<?xml version="1.0" encoding="UTF-8" standalone="no" ?>
<gpx xmlns="http://www.topografix.com/GPX/1/1" creator="www.cicloide.com" version="1.1" xmlns:xsi="http://www.w3.org/2001/XMLSchema-instance" xsi:schemaLocation="http://www.topografix.com/GPX/1/1 http://www.topografix.com/GPX/1/1/gpx.xsd">
  <trk>
    <name>www.cicloide.com 14444</name>
    <desc>www.cicloide.com 14444</desc>
    <trkseg>
      <trkpt lat="41.612330380" lon="2.538453557">
        <ele>134.72</ele>
        <time>2013-07-07T07:41:47Z</time>
      </trkpt>
      <trkpt lat="41.612489803" lon="2.538251050">
        <ele>135.20</ele>
        <time>2013-07-07T07:41:55Z</time>
      </trkpt>
      <trkpt lat="41.612621148" lon="2.538093722">
        <ele>135.68</ele>
        <time>2013-07-07T07:42:02Z</time>
      </trkpt>
      <trkpt lat="41.612795408" lon="2.537883671">
        <ele>136.16</ele>
        <time>2013-07-07T07:42:11Z</time>
      </trkpt>
      <trkpt lat="41.612959358" lon="2.537687618">
        <ele>137.61</ele>
        <time>2013-07-07T07:42:19Z</time>
      </trkpt>
      <trkpt lat="41.613103526" lon="2.537509335">
        <ele>137.61</ele>
        <time>2013-07-07T07:42:26Z</time>
      </trkpt>
      <trkpt lat="41.613246522" lon="2.537332393">
        <ele>139.05</ele>
        <time>2013-07-07T07:42:33Z</time>
      </trkpt>
      <trkpt lat="41.613395552" lon="2.537172886">
        <ele>139.53</ele>
        <time>2013-07-07T07:42:40Z</time>
      </trkpt>
      <trkpt lat="41.613522538" lon="2.536992004">
        <ele>140.01</ele>
        <time>2013-07-07T07:42:47Z</time>
      </trkpt>
      <trkpt lat="41.613606189" lon="2.536817661">
        <ele>140.49</ele>
        <time>2013-07-07T07:42:53Z</time>
      </trkpt>
      <trkpt lat="41.613651703" lon="2.536589254">
        <ele>140.97</ele>
        <time>2013-07-07T07:43:00Z</time>
      </trkpt>
      <trkpt lat="41.613733091" lon="2.536330253">
        <ele>141.93</ele>
        <time>2013-07-07T07:43:08Z</time>
      </trkpt>
      <trkpt lat="41.613843816" lon="2.536050046">
        <ele>142.41</ele>
        <time>2013-07-07T07:43:17Z</time>
      </trkpt>
      <trkpt lat="41.613960408" lon="2.535726085">
        <ele>143.85</ele>
        <time>2013-07-07T07:43:27Z</time>
      </trkpt>
      <trkpt lat="41.614041126" lon="2.535466330">
        <ele>144.34</ele>
        <time>2013-07-07T07:43:35Z</time>
      </trkpt>
      <trkpt lat="41.614141457" lon="2.535150584">
        <ele>145.78</ele>
        <time>2013-07-07T07:43:45Z</time>
      </trkpt>
      <trkpt lat="41.614212871" lon="2.534913460">
        <ele>146.26</ele>
        <time>2013-07-07T07:43:52Z</time>
      </trkpt>
      <trkpt lat="41.614310017" lon="2.534590840">
        <ele>147.70</ele>
        <time>2013-07-07T07:44:02Z</time>
      </trkpt>
      <trkpt lat="41.614379168" lon="2.534382382">
        <ele>148.66</ele>
        <time>2013-07-07T07:44:09Z</time>
      </trkpt>
      <trkpt lat="41.614462987" lon="2.534094548">
        <ele>150.10</ele>
        <time>2013-07-07T07:44:18Z</time>
      </trkpt>
      <trkpt lat="41.614561726" lon="2.533761703">
        <ele>151.06</ele>
        <time>2013-07-07T07:44:28Z</time>
      </trkpt>
      <trkpt lat="41.614636493" lon="2.533523237">
        <ele>151.54</ele>
        <time>2013-07-07T07:44:35Z</time>
      </trkpt>
      <trkpt lat="41.614707906" lon="2.533284521">
        <ele>152.03</ele>
        <time>2013-07-07T07:44:42Z</time>
      </trkpt>
      <trkpt lat="41.614801113" lon="2.532953687">
        <ele>153.47</ele>
        <time>2013-07-07T07:44:52Z</time>
      </trkpt>
      <trkpt lat="41.614890548" lon="2.532682533">
        <ele>153.95</ele>
        <time>2013-07-07T07:45:00Z</time>
      </trkpt>
      <trkpt lat="41.614992640" lon="2.532354716">
        <ele>154.91</ele>
        <time>2013-07-07T07:45:10Z</time>
      </trkpt>
      <trkpt lat="41.615044356" lon="2.532067301">
        <ele>155.87</ele>
        <time>2013-07-07T07:45:18Z</time>
      </trkpt>
      <trkpt lat="41.615074782" lon="2.531743005">
        <ele>156.35</ele>
        <time>2013-07-07T07:45:27Z</time>
      </trkpt>
      <trkpt lat="41.615094731" lon="2.531379147">
        <ele>157.79</ele>
        <time>2013-07-07T07:45:37Z</time>
      </trkpt>
      <trkpt lat="41.615118452" lon="2.531052588">
        <ele>158.75</ele>
        <time>2013-07-07T07:45:46Z</time>
      </trkpt>
      <trkpt lat="41.615163798" lon="2.530643299">
        <ele>159.24</ele>
        <time>2013-07-07T07:45:57Z</time>
      </trkpt>
      <trkpt lat="41.615173856" lon="2.530318836">
        <ele>160.20</ele>
        <time>2013-07-07T07:46:06Z</time>
      </trkpt>
      <trkpt lat="41.615175114" lon="2.530034773">
        <ele>161.64</ele>
        <time>2013-07-07T07:46:14Z</time>
      </trkpt>
      <trkpt lat="41.615182154" lon="2.529713746">
        <ele>162.60</ele>
        <time>2013-07-07T07:46:23Z</time>
      </trkpt>
      <trkpt lat="41.615189614" lon="2.529324323">
        <ele>163.08</ele>
        <time>2013-07-07T07:46:34Z</time>
      </trkpt>
      <trkpt lat="41.615195565" lon="2.529081164">
        <ele>164.52</ele>
        <time>2013-07-07T07:46:41Z</time>
      </trkpt>
      <trkpt lat="41.615236302" lon="2.528824091">
        <ele>165.00</ele>
        <time>2013-07-07T07:46:48Z</time>
      </trkpt>
      <trkpt lat="41.615300591" lon="2.528470291">
        <ele>165.48</ele>
        <time>2013-07-07T07:46:58Z</time>
      </trkpt>
      <trkpt lat="41.615352810" lon="2.528204165">
        <ele>166.93</ele>
        <time>2013-07-07T07:47:06Z</time>
      </trkpt>
      <trkpt lat="41.615413411" lon="2.527892023">
        <ele>167.41</ele>
        <time>2013-07-07T07:47:15Z</time>
      </trkpt>
      <trkpt lat="41.615471498" lon="2.527610727">
        <ele>168.37</ele>
        <time>2013-07-07T07:47:24Z</time>
      </trkpt>
      <trkpt lat="41.615531428" lon="2.527358934">
        <ele>169.33</ele>
        <time>2013-07-07T07:47:32Z</time>
      </trkpt>
      <trkpt lat="41.615578451" lon="2.527094150">
        <ele>170.29</ele>
        <time>2013-07-07T07:47:40Z</time>
      </trkpt>
      <trkpt lat="41.615597897" lon="2.526810339">
        <ele>171.73</ele>
        <time>2013-07-07T07:47:49Z</time>
      </trkpt>
      <trkpt lat="41.615574847" lon="2.526549326">
        <ele>173.17</ele>
        <time>2013-07-07T07:47:57Z</time>
      </trkpt>
      <trkpt lat="41.615536122" lon="2.526240118">
        <ele>173.66</ele>
        <time>2013-07-07T07:48:06Z</time>
      </trkpt>
      <trkpt lat="41.615520616" lon="2.525881875">
        <ele>174.62</ele>
        <time>2013-07-07T07:48:16Z</time>
      </trkpt>
      <trkpt lat="41.615517347" lon="2.525639806">
        <ele>175.58</ele>
        <time>2013-07-07T07:48:23Z</time>
      </trkpt>
      <trkpt lat="41.615513994" lon="2.525367981">
        <ele>176.06</ele>
        <time>2013-07-07T07:48:31Z</time>
      </trkpt>
      <trkpt lat="41.615531261" lon="2.525094312">
        <ele>177.02</ele>
        <time>2013-07-07T07:48:39Z</time>
      </trkpt>
      <trkpt lat="41.615561687" lon="2.524803124">
        <ele>177.98</ele>
        <time>2013-07-07T07:48:48Z</time>
      </trkpt>
      <trkpt lat="41.615589850" lon="2.524544291">
        <ele>179.42</ele>
        <time>2013-07-07T07:48:56Z</time>
      </trkpt>
      <trkpt lat="41.615604099" lon="2.524261318">
        <ele>180.38</ele>
        <time>2013-07-07T07:49:04Z</time>
      </trkpt>
      <trkpt lat="41.615630000" lon="2.523955882">
        <ele>182.31</ele>
        <time>2013-07-07T07:49:13Z</time>
      </trkpt>
      <trkpt lat="41.615634610" lon="2.523728397">
        <ele>182.79</ele>
        <time>2013-07-07T07:49:20Z</time>
      </trkpt>
      <trkpt lat="41.615675932" lon="2.523397395">
        <ele>183.75</ele>
        <time>2013-07-07T07:49:29Z</time>
      </trkpt>
      <trkpt lat="41.615705604" lon="2.523151890">
        <ele>184.23</ele>
        <time>2013-07-07T07:49:36Z</time>
      </trkpt>
      <trkpt lat="41.615727900" lon="2.522963883">
        <ele>185.19</ele>
        <time>2013-07-07T07:49:42Z</time>
      </trkpt>
      <trkpt lat="41.615746089" lon="2.522771267">
        <ele>186.15</ele>
        <time>2013-07-07T07:49:48Z</time>
      </trkpt>
      <trkpt lat="41.615794285" lon="2.522455018">
        <ele>187.11</ele>
        <time>2013-07-07T07:49:57Z</time>
      </trkpt>
      <trkpt lat="41.615832003" lon="2.522196185">
        <ele>188.08</ele>
        <time>2013-07-07T07:50:04Z</time>
      </trkpt>
      <trkpt lat="41.615857736" lon="2.522001976">
        <ele>189.04</ele>
        <time>2013-07-07T07:50:10Z</time>
      </trkpt>
      <trkpt lat="41.615889671" lon="2.521726295">
        <ele>189.04</ele>
        <time>2013-07-07T07:50:19Z</time>
      </trkpt>
      <trkpt lat="41.615942309" lon="2.521454722">
        <ele>190.00</ele>
        <time>2013-07-07T07:50:27Z</time>
      </trkpt>
      <trkpt lat="41.615966030" lon="2.521264704">
        <ele>190.48</ele>
        <time>2013-07-07T07:50:33Z</time>
      </trkpt>
      <trkpt lat="41.616024368" lon="2.520994555">
        <ele>190.48</ele>
        <time>2013-07-07T07:50:41Z</time>
      </trkpt>
      <trkpt lat="41.616083125" lon="2.520727592">
        <ele>190.96</ele>
        <time>2013-07-07T07:50:49Z</time>
      </trkpt>
      <trkpt lat="41.616162167" lon="2.520468675">
        <ele>191.92</ele>
        <time>2013-07-07T07:50:57Z</time>
      </trkpt>
      <trkpt lat="41.616255625" lon="2.520186121">
        <ele>192.88</ele>
        <time>2013-07-07T07:51:06Z</time>
      </trkpt>
      <trkpt lat="41.616323686" lon="2.519935083">
        <ele>193.84</ele>
        <time>2013-07-07T07:51:14Z</time>
      </trkpt>
      <trkpt lat="41.616382862" lon="2.519745233">
        <ele>194.32</ele>
        <time>2013-07-07T07:51:20Z</time>
      </trkpt>
      <trkpt lat="41.616436171" lon="2.519534847">
        <ele>195.28</ele>
        <time>2013-07-07T07:51:27Z</time>
      </trkpt>
      <trkpt lat="41.616482439" lon="2.519306189">
        <ele>195.77</ele>
        <time>2013-07-07T07:51:35Z</time>
      </trkpt>
      <trkpt lat="41.616544298" lon="2.519047272">
        <ele>196.25</ele>
        <time>2013-07-07T07:51:43Z</time>
      </trkpt>
      <trkpt lat="41.616584363" lon="2.518797239">
        <ele>197.21</ele>
        <time>2013-07-07T07:51:50Z</time>
      </trkpt>
      <trkpt lat="41.616673127" lon="2.518574532">
        <ele>197.21</ele>
        <time>2013-07-07T07:51:56Z</time>
      </trkpt>
      <trkpt lat="41.616712187" lon="2.518296924">
        <ele>197.21</ele>
        <time>2013-07-07T07:52:03Z</time>
      </trkpt>
      <trkpt lat="41.616721407" lon="2.518026859">
        <ele>197.21</ele>
        <time>2013-07-07T07:52:11Z</time>
      </trkpt>
      <trkpt lat="41.616734818" lon="2.517742544">
        <ele>198.17</ele>
        <time>2013-07-07T07:52:20Z</time>
      </trkpt>
      <trkpt lat="41.616750576" lon="2.517472228">
        <ele>199.61</ele>
        <time>2013-07-07T07:52:28Z</time>
      </trkpt>
      <trkpt lat="41.616772872" lon="2.517205851">
        <ele>200.09</ele>
        <time>2013-07-07T07:52:36Z</time>
      </trkpt>
      <trkpt lat="41.616796760" lon="2.516975600">
        <ele>201.05</ele>
        <time>2013-07-07T07:52:43Z</time>
      </trkpt>
      <trkpt lat="41.616818470" lon="2.516709978">
        <ele>202.01</ele>
        <time>2013-07-07T07:52:51Z</time>
      </trkpt>
      <trkpt lat="41.616834814" lon="2.516455587">
        <ele>202.49</ele>
        <time>2013-07-07T07:52:59Z</time>
      </trkpt>
      <trkpt lat="41.616854093" lon="2.516135734">
        <ele>203.46</ele>
        <time>2013-07-07T07:53:08Z</time>
      </trkpt>
      <trkpt lat="41.616875383" lon="2.515842619">
        <ele>204.90</ele>
        <time>2013-07-07T07:53:17Z</time>
      </trkpt>
      <trkpt lat="41.616886866" lon="2.515518909">
        <ele>205.38</ele>
        <time>2013-07-07T07:53:26Z</time>
      </trkpt>
      <trkpt lat="41.616886950" lon="2.515285222">
        <ele>206.34</ele>
        <time>2013-07-07T07:53:33Z</time>
      </trkpt>
      <trkpt lat="41.616881250" lon="2.514925052">
        <ele>207.30</ele>
        <time>2013-07-07T07:53:44Z</time>
      </trkpt>
      <trkpt lat="41.616886698" lon="2.514648281">
        <ele>208.26</ele>
        <time>2013-07-07T07:53:53Z</time>
      </trkpt>
      <trkpt lat="41.616896170" lon="2.514445774">
        <ele>209.22</ele>
        <time>2013-07-07T07:54:00Z</time>
      </trkpt>
      <trkpt lat="41.616900612" lon="2.514207896">
        <ele>210.19</ele>
        <time>2013-07-07T07:54:07Z</time>
      </trkpt>
      <trkpt lat="41.616899104" lon="2.513934646">
        <ele>210.67</ele>
        <time>2013-07-07T07:54:15Z</time>
      </trkpt>
      <trkpt lat="41.616904636" lon="2.513600543">
        <ele>211.63</ele>
        <time>2013-07-07T07:54:25Z</time>
      </trkpt>
      <trkpt lat="41.616887369" lon="2.513327796">
        <ele>212.59</ele>
        <time>2013-07-07T07:54:33Z</time>
      </trkpt>
      <trkpt lat="41.616891308" lon="2.513053875">
        <ele>213.07</ele>
        <time>2013-07-07T07:54:41Z</time>
      </trkpt>
      <trkpt lat="41.616864319" lon="2.512791438">
        <ele>214.03</ele>
        <time>2013-07-07T07:54:49Z</time>
      </trkpt>
      <trkpt lat="41.616817631" lon="2.512530007">
        <ele>214.51</ele>
        <time>2013-07-07T07:54:57Z</time>
      </trkpt>
      <trkpt lat="41.616736914" lon="2.512300761">
        <ele>215.47</ele>
        <time>2013-07-07T07:55:05Z</time>
      </trkpt>
      <trkpt lat="41.616633313" lon="2.512117365">
        <ele>215.95</ele>
        <time>2013-07-07T07:55:13Z</time>
      </trkpt>
      <trkpt lat="41.616514793" lon="2.511898430">
        <ele>216.91</ele>
        <time>2013-07-07T07:55:21Z</time>
      </trkpt>
      <trkpt lat="41.616414797" lon="2.511680836">
        <ele>217.40</ele>
        <time>2013-07-07T07:55:29Z</time>
      </trkpt>
      <trkpt lat="41.616378084" lon="2.511505403">
        <ele>218.36</ele>
        <time>2013-07-07T07:55:35Z</time>
      </trkpt>
      <trkpt lat="41.616386047" lon="2.511293341">
        <ele>218.36</ele>
        <time>2013-07-07T07:55:41Z</time>
      </trkpt>
      <trkpt lat="41.616418234" lon="2.511077339">
        <ele>218.84</ele>
        <time>2013-07-07T07:55:48Z</time>
      </trkpt>
      <trkpt lat="41.616491659" lon="2.510805262">
        <ele>220.28</ele>
        <time>2013-07-07T07:55:57Z</time>
      </trkpt>
      <trkpt lat="41.616586710" lon="2.510666123">
        <ele>221.72</ele>
        <time>2013-07-07T07:56:04Z</time>
      </trkpt>
      <trkpt lat="41.616670110" lon="2.510543495">
        <ele>223.64</ele>
        <time>2013-07-07T07:56:12Z</time>
      </trkpt>
      <trkpt lat="41.616762395" lon="2.510323890">
        <ele>226.05</ele>
        <time>2013-07-07T07:56:23Z</time>
      </trkpt>
      <trkpt lat="41.616794246" lon="2.510119623">
        <ele>227.49</ele>
        <time>2013-07-07T07:56:33Z</time>
      </trkpt>
      <trkpt lat="41.616796844" lon="2.509943519">
        <ele>229.41</ele>
        <time>2013-07-07T07:56:42Z</time>
      </trkpt>
      <trkpt lat="41.616848142" lon="2.509752411">
        <ele>230.85</ele>
        <time>2013-07-07T07:56:52Z</time>
      </trkpt>
      <trkpt lat="41.616920310" lon="2.509600867">
        <ele>231.81</ele>
        <time>2013-07-07T07:57:00Z</time>
      </trkpt>
      <trkpt lat="41.616936403" lon="2.509554347">
        <ele>231.81</ele>
        <time>2013-07-07T07:57:02Z</time>
      </trkpt>
      <trkpt lat="41.616879909" lon="2.509478491">
        <ele>231.81</ele>
        <time>2013-07-07T07:57:08Z</time>
      </trkpt>
      <trkpt lat="41.616855853" lon="2.509496177">
        <ele>232.30</ele>
        <time>2013-07-07T07:57:10Z</time>
      </trkpt>
      <trkpt lat="41.616749151" lon="2.509617714">
        <ele>233.26</ele>
        <time>2013-07-07T07:57:20Z</time>
      </trkpt>
      <trkpt lat="41.616670948" lon="2.509754255">
        <ele>234.22</ele>
        <time>2013-07-07T07:57:28Z</time>
      </trkpt>
      <trkpt lat="41.616601462" lon="2.509818126">
        <ele>234.70</ele>
        <time>2013-07-07T07:57:33Z</time>
      </trkpt>
      <trkpt lat="41.616546142" lon="2.509805469">
        <ele>235.18</ele>
        <time>2013-07-07T07:57:37Z</time>
      </trkpt>
      <trkpt lat="41.616417144" lon="2.509735899">
        <ele>237.10</ele>
        <time>2013-07-07T07:57:47Z</time>
      </trkpt>
      <trkpt lat="41.616390573" lon="2.509688458">
        <ele>237.58</ele>
        <time>2013-07-07T07:57:50Z</time>
      </trkpt>
      <trkpt lat="41.616362326" lon="2.509521490">
        <ele>239.02</ele>
        <time>2013-07-07T07:57:59Z</time>
      </trkpt>
      <trkpt lat="41.616347071" lon="2.509394169">
        <ele>240.95</ele>
        <time>2013-07-07T07:58:07Z</time>
      </trkpt>
      <trkpt lat="41.616332152" lon="2.509224854">
        <ele>242.87</ele>
        <time>2013-07-07T07:58:17Z</time>
      </trkpt>
      <trkpt lat="41.616330810" lon="2.509207588">
        <ele>242.87</ele>
        <time>2013-07-07T07:58:18Z</time>
      </trkpt>
      <trkpt lat="41.616325195" lon="2.509140700">
        <ele>243.83</ele>
        <time>2013-07-07T07:58:22Z</time>
      </trkpt>
      <trkpt lat="41.616315974" lon="2.509055289">
        <ele>244.31</ele>
        <time>2013-07-07T07:58:27Z</time>
      </trkpt>
      <trkpt lat="41.616304659" lon="2.508984713">
        <ele>245.27</ele>
        <time>2013-07-07T07:58:31Z</time>
      </trkpt>
      <trkpt lat="41.616268198" lon="2.508829648">
        <ele>247.20</ele>
        <time>2013-07-07T07:58:40Z</time>
      </trkpt>
      <trkpt lat="41.616240956" lon="2.508714061">
        <ele>248.16</ele>
        <time>2013-07-07T07:58:47Z</time>
      </trkpt>
      <trkpt lat="41.616210027" lon="2.508570563">
        <ele>250.08</ele>
        <time>2013-07-07T07:58:56Z</time>
      </trkpt>
      <trkpt lat="41.616205669" lon="2.508542148">
        <ele>250.56</ele>
        <time>2013-07-07T07:58:58Z</time>
      </trkpt>
      <trkpt lat="41.616166944" lon="2.508389263">
        <ele>252.48</ele>
        <time>2013-07-07T07:59:08Z</time>
      </trkpt>
      <trkpt lat="41.616118078" lon="2.508222044">
        <ele>253.93</ele>
        <time>2013-07-07T07:59:18Z</time>
      </trkpt>
      <trkpt lat="41.616066697" lon="2.508072510">
        <ele>255.37</ele>
        <time>2013-07-07T07:59:27Z</time>
      </trkpt>
      <trkpt lat="41.616014729" lon="2.507942088">
        <ele>257.29</ele>
        <time>2013-07-07T07:59:36Z</time>
      </trkpt>
      <trkpt lat="41.615959408" lon="2.507779647">
        <ele>257.77</ele>
        <time>2013-07-07T07:59:44Z</time>
      </trkpt>
      <trkpt lat="41.615909787" lon="2.507648721">
        <ele>259.21</ele>
        <time>2013-07-07T07:59:52Z</time>
      </trkpt>
      <trkpt lat="41.615859915" lon="2.507500781">
        <ele>261.62</ele>
        <time>2013-07-07T08:00:01Z</time>
      </trkpt>
      <trkpt lat="41.615833177" lon="2.507349655">
        <ele>262.10</ele>
        <time>2013-07-07T08:00:09Z</time>
      </trkpt>
      <trkpt lat="41.615803337" lon="2.507249240">
        <ele>263.06</ele>
        <time>2013-07-07T08:00:15Z</time>
      </trkpt>
      <trkpt lat="41.615751034" lon="2.507110100">
        <ele>264.50</ele>
        <time>2013-07-07T08:00:23Z</time>
      </trkpt>
      <trkpt lat="41.615726978" lon="2.507032652">
        <ele>265.46</ele>
        <time>2013-07-07T08:00:28Z</time>
      </trkpt>
      <trkpt lat="41.615713819" lon="2.506897954">
        <ele>266.42</ele>
        <time>2013-07-07T08:00:35Z</time>
      </trkpt>
      <trkpt lat="41.615723709" lon="2.506734926">
        <ele>267.86</ele>
        <time>2013-07-07T08:00:44Z</time>
      </trkpt>
      <trkpt lat="41.615732594" lon="2.506584136">
        <ele>269.79</ele>
        <time>2013-07-07T08:00:52Z</time>
      </trkpt>
      <trkpt lat="41.615737372" lon="2.506549267">
        <ele>270.27</ele>
        <time>2013-07-07T08:00:54Z</time>
      </trkpt>
      <trkpt lat="41.615772492" lon="2.506404009">
        <ele>272.67</ele>
        <time>2013-07-07T08:01:03Z</time>
      </trkpt>
      <trkpt lat="41.615826890" lon="2.506246010">
        <ele>274.11</ele>
        <time>2013-07-07T08:01:13Z</time>
      </trkpt>
      <trkpt lat="41.615870309" lon="2.506123383">
        <ele>276.04</ele>
        <time>2013-07-07T08:01:21Z</time>
      </trkpt>
      <trkpt lat="41.615883887" lon="2.506094130">
        <ele>276.52</ele>
        <time>2013-07-07T08:01:23Z</time>
      </trkpt>
      <trkpt lat="41.615946165" lon="2.505957253">
        <ele>277.96</ele>
        <time>2013-07-07T08:01:33Z</time>
      </trkpt>
      <trkpt lat="41.615994109" lon="2.505846109">
        <ele>279.40</ele>
        <time>2013-07-07T08:01:41Z</time>
      </trkpt>
      <trkpt lat="41.616032499" lon="2.505719291">
        <ele>280.84</ele>
        <time>2013-07-07T08:01:50Z</time>
      </trkpt>
      <trkpt lat="41.616074492" lon="2.505594065">
        <ele>282.77</ele>
        <time>2013-07-07T08:01:58Z</time>
      </trkpt>
      <trkpt lat="41.616109696" lon="2.505455932">
        <ele>283.73</ele>
        <time>2013-07-07T08:02:07Z</time>
      </trkpt>
      <trkpt lat="41.616163089" lon="2.505284522">
        <ele>285.65</ele>
        <time>2013-07-07T08:02:17Z</time>
      </trkpt>
      <trkpt lat="41.616182283" lon="2.505113782">
        <ele>289.01</ele>
        <time>2013-07-07T08:02:27Z</time>
      </trkpt>
      <trkpt lat="41.616180691" lon="2.505028790">
        <ele>289.49</ele>
        <time>2013-07-07T08:02:32Z</time>
      </trkpt>
      <trkpt lat="41.616164933" lon="2.504903397">
        <ele>289.49</ele>
        <time>2013-07-07T08:02:38Z</time>
      </trkpt>
      <trkpt lat="41.616090753" lon="2.504839778">
        <ele>290.94</ele>
        <time>2013-07-07T08:02:45Z</time>
      </trkpt>
      <trkpt lat="41.616006012" lon="2.504831731">
        <ele>291.42</ele>
        <time>2013-07-07T08:02:51Z</time>
      </trkpt>
      <trkpt lat="41.615848516" lon="2.504809519">
        <ele>292.38</ele>
        <time>2013-07-07T08:03:02Z</time>
      </trkpt>
      <trkpt lat="41.615721195" lon="2.504818153">
        <ele>293.34</ele>
        <time>2013-07-07T08:03:11Z</time>
      </trkpt>
      <trkpt lat="41.615602172" lon="2.504826535">
        <ele>295.26</ele>
        <time>2013-07-07T08:03:20Z</time>
      </trkpt>
      <trkpt lat="41.615503433" lon="2.504833073">
        <ele>295.74</ele>
        <time>2013-07-07T08:03:27Z</time>
      </trkpt>
      <trkpt lat="41.615465547" lon="2.504823852">
        <ele>296.22</ele>
        <time>2013-07-07T08:03:30Z</time>
      </trkpt>
      <trkpt lat="41.615413914" lon="2.504752355">
        <ele>297.18</ele>
        <time>2013-07-07T08:03:35Z</time>
      </trkpt>
      <trkpt lat="41.615380554" lon="2.504587986">
        <ele>299.11</ele>
        <time>2013-07-07T08:03:45Z</time>
      </trkpt>
      <trkpt lat="41.615372005" lon="2.504445242">
        <ele>300.55</ele>
        <time>2013-07-07T08:03:54Z</time>
      </trkpt>
      <trkpt lat="41.615372005" lon="2.504374079">
        <ele>301.51</ele>
        <time>2013-07-07T08:03:58Z</time>
      </trkpt>
      <trkpt lat="41.615372843" lon="2.504255224">
        <ele>302.95</ele>
        <time>2013-07-07T08:04:05Z</time>
      </trkpt>
      <trkpt lat="41.615380889" lon="2.504191522">
        <ele>303.91</ele>
        <time>2013-07-07T08:04:09Z</time>
      </trkpt>
      <trkpt lat="41.615380470" lon="2.504159419">
        <ele>304.39</ele>
        <time>2013-07-07T08:04:11Z</time>
      </trkpt>
      <trkpt lat="41.615404862" lon="2.504014999">
        <ele>305.84</ele>
        <time>2013-07-07T08:04:20Z</time>
      </trkpt>
      <trkpt lat="41.615411316" lon="2.503952721">
        <ele>306.80</ele>
        <time>2013-07-07T08:04:24Z</time>
      </trkpt>
      <trkpt lat="41.615434282" lon="2.503860939">
        <ele>308.24</ele>
        <time>2013-07-07T08:04:31Z</time>
      </trkpt>
      <trkpt lat="41.615437048" lon="2.503829507">
        <ele>308.72</ele>
        <time>2013-07-07T08:04:33Z</time>
      </trkpt>
      <trkpt lat="41.615441826" lon="2.503703695">
        <ele>310.16</ele>
        <time>2013-07-07T08:04:42Z</time>
      </trkpt>
      <trkpt lat="41.615428582" lon="2.503568662">
        <ele>311.60</ele>
        <time>2013-07-07T08:04:50Z</time>
      </trkpt>
      <trkpt lat="41.615411148" lon="2.503417201">
        <ele>312.57</ele>
        <time>2013-07-07T08:04:59Z</time>
      </trkpt>
      <trkpt lat="41.615398743" lon="2.503265321">
        <ele>313.05</ele>
        <time>2013-07-07T08:05:06Z</time>
      </trkpt>
      <trkpt lat="41.615354822" lon="2.503121320">
        <ele>313.05</ele>
        <time>2013-07-07T08:05:12Z</time>
      </trkpt>
      <trkpt lat="41.615249210" lon="2.502920071">
        <ele>313.05</ele>
        <time>2013-07-07T08:05:21Z</time>
      </trkpt>
      <trkpt lat="41.615176371" lon="2.502730304">
        <ele>313.05</ele>
        <time>2013-07-07T08:05:29Z</time>
      </trkpt>
      <trkpt lat="41.615136138" lon="2.502522182">
        <ele>313.53</ele>
        <time>2013-07-07T08:05:37Z</time>
      </trkpt>
      <trkpt lat="41.615084086" lon="2.502252787">
        <ele>314.01</ele>
        <time>2013-07-07T08:05:47Z</time>
      </trkpt>
      <trkpt lat="41.615015522" lon="2.502054136">
        <ele>315.45</ele>
        <time>2013-07-07T08:05:56Z</time>
      </trkpt>
      <trkpt lat="41.614963890" lon="2.501816174">
        <ele>316.89</ele>
        <time>2013-07-07T08:06:06Z</time>
      </trkpt>
      <trkpt lat="41.614937151" lon="2.501658594">
        <ele>317.37</ele>
        <time>2013-07-07T08:06:12Z</time>
      </trkpt>
      <trkpt lat="41.614948551" lon="2.501439072">
        <ele>317.37</ele>
        <time>2013-07-07T08:06:18Z</time>
      </trkpt>
      <trkpt lat="41.614928350" lon="2.501365647">
        <ele>317.37</ele>
        <time>2013-07-07T08:06:21Z</time>
      </trkpt>
      <trkpt lat="41.614782254" lon="2.501344944">
        <ele>317.37</ele>
        <time>2013-07-07T08:06:28Z</time>
      </trkpt>
      <trkpt lat="41.614620399" lon="2.501261460">
        <ele>318.33</ele>
        <time>2013-07-07T08:06:38Z</time>
      </trkpt>
      <trkpt lat="41.614455024" lon="2.501159368">
        <ele>319.30</ele>
        <time>2013-07-07T08:06:48Z</time>
      </trkpt>
      <trkpt lat="41.614336504" lon="2.501046212">
        <ele>320.74</ele>
        <time>2013-07-07T08:06:57Z</time>
      </trkpt>
      <trkpt lat="41.614283447" lon="2.500896428">
        <ele>321.70</ele>
        <time>2013-07-07T08:07:04Z</time>
      </trkpt>
      <trkpt lat="41.614231898" lon="2.500703560">
        <ele>324.10</ele>
        <time>2013-07-07T08:07:14Z</time>
      </trkpt>
      <trkpt lat="41.614216559" lon="2.500672966">
        <ele>324.58</ele>
        <time>2013-07-07T08:07:16Z</time>
      </trkpt>
      <trkpt lat="41.614185714" lon="2.500609851">
        <ele>325.54</ele>
        <time>2013-07-07T08:07:20Z</time>
      </trkpt>
      <trkpt lat="41.614097285" lon="2.500466185">
        <ele>327.95</ele>
        <time>2013-07-07T08:07:31Z</time>
      </trkpt>
      <trkpt lat="41.614043724" lon="2.500387060">
        <ele>329.87</ele>
        <time>2013-07-07T08:07:39Z</time>
      </trkpt>
      <trkpt lat="41.613999049" lon="2.500314724">
        <ele>331.79</ele>
        <time>2013-07-07T08:07:47Z</time>
      </trkpt>
      <trkpt lat="41.613951188" lon="2.500237275">
        <ele>333.71</ele>
        <time>2013-07-07T08:07:54Z</time>
      </trkpt>
      <trkpt lat="41.613874661" lon="2.500123197">
        <ele>335.16</ele>
        <time>2013-07-07T08:08:05Z</time>
      </trkpt>
      <trkpt lat="41.613844319" lon="2.500056477">
        <ele>336.12</ele>
        <time>2013-07-07T08:08:11Z</time>
      </trkpt>
      <trkpt lat="41.613882289" lon="2.499991434">
        <ele>337.56</ele>
        <time>2013-07-07T08:08:18Z</time>
      </trkpt>
      <trkpt lat="41.613968371" lon="2.500094699">
        <ele>339.48</ele>
        <time>2013-07-07T08:08:28Z</time>
      </trkpt>
      <trkpt lat="41.614041294" lon="2.500179775">
        <ele>340.92</ele>
        <time>2013-07-07T08:08:37Z</time>
      </trkpt>
      <trkpt lat="41.614069541" lon="2.500210788">
        <ele>341.89</ele>
        <time>2013-07-07T08:08:40Z</time>
      </trkpt>
      <trkpt lat="41.614144056" lon="2.500249429">
        <ele>342.85</ele>
        <time>2013-07-07T08:08:47Z</time>
      </trkpt>
      <trkpt lat="41.614155455" lon="2.500253620">
        <ele>342.85</ele>
        <time>2013-07-07T08:08:48Z</time>
      </trkpt>
      <trkpt lat="41.614268024" lon="2.500304582">
        <ele>344.29</ele>
        <time>2013-07-07T08:08:58Z</time>
      </trkpt>
      <trkpt lat="41.614333403" lon="2.500340372">
        <ele>345.73</ele>
        <time>2013-07-07T08:09:04Z</time>
      </trkpt>
      <trkpt lat="41.614384113" lon="2.500370547">
        <ele>346.21</ele>
        <time>2013-07-07T08:09:09Z</time>
      </trkpt>
      <trkpt lat="41.614491905" lon="2.500453696">
        <ele>348.62</ele>
        <time>2013-07-07T08:09:20Z</time>
      </trkpt>
      <trkpt lat="41.614580082" lon="2.500547238">
        <ele>350.54</ele>
        <time>2013-07-07T08:09:30Z</time>
      </trkpt>
      <trkpt lat="41.614679659" lon="2.500598200">
        <ele>351.98</ele>
        <time>2013-07-07T08:09:39Z</time>
      </trkpt>
      <trkpt lat="41.614802873" lon="2.500534413">
        <ele>352.94</ele>
        <time>2013-07-07T08:09:49Z</time>
      </trkpt>
      <trkpt lat="41.614923992" lon="2.500493007">
        <ele>352.94</ele>
        <time>2013-07-07T08:09:57Z</time>
      </trkpt>
      <trkpt lat="41.615006973" lon="2.500531564">
        <ele>352.94</ele>
        <time>2013-07-07T08:10:02Z</time>
      </trkpt>
      <trkpt lat="41.615073776" lon="2.500587806">
        <ele>353.42</ele>
        <time>2013-07-07T08:10:07Z</time>
      </trkpt>
      <trkpt lat="41.615168324" lon="2.500610856">
        <ele>353.90</ele>
        <time>2013-07-07T08:10:13Z</time>
      </trkpt>
      <trkpt lat="41.615284833" lon="2.500533743">
        <ele>355.34</ele>
        <time>2013-07-07T08:10:22Z</time>
      </trkpt>
      <trkpt lat="41.615325653" lon="2.500512201">
        <ele>355.34</ele>
        <time>2013-07-07T08:10:25Z</time>
      </trkpt>
      <trkpt lat="41.615453141" lon="2.500451014">
        <ele>356.31</ele>
        <time>2013-07-07T08:10:34Z</time>
      </trkpt>
      <trkpt lat="41.615570823" lon="2.500449505">
        <ele>356.79</ele>
        <time>2013-07-07T08:10:42Z</time>
      </trkpt>
      <trkpt lat="41.615685991" lon="2.500461491">
        <ele>358.71</ele>
        <time>2013-07-07T08:10:50Z</time>
      </trkpt>
      <trkpt lat="41.615727146" lon="2.500457048">
        <ele>359.19</ele>
        <time>2013-07-07T08:10:53Z</time>
      </trkpt>
      <trkpt lat="41.615769474" lon="2.500416648">
        <ele>360.15</ele>
        <time>2013-07-07T08:10:57Z</time>
      </trkpt>
      <trkpt lat="41.615784059" lon="2.500321513">
        <ele>361.11</ele>
        <time>2013-07-07T08:11:04Z</time>
      </trkpt>
      <trkpt lat="41.615746592" lon="2.500252279">
        <ele>362.55</ele>
        <time>2013-07-07T08:11:10Z</time>
      </trkpt>
      <trkpt lat="41.615697390" lon="2.500235599">
        <ele>363.52</ele>
        <time>2013-07-07T08:11:15Z</time>
      </trkpt>
      <trkpt lat="41.615644081" lon="2.500234928">
        <ele>364.48</ele>
        <time>2013-07-07T08:11:20Z</time>
      </trkpt>
      <trkpt lat="41.615512485" lon="2.500237191">
        <ele>366.40</ele>
        <time>2013-07-07T08:11:31Z</time>
      </trkpt>
      <trkpt lat="41.615416261" lon="2.500237694">
        <ele>368.32</ele>
        <time>2013-07-07T08:11:39Z</time>
      </trkpt>
      <trkpt lat="41.615306458" lon="2.500212297">
        <ele>369.76</ele>
        <time>2013-07-07T08:11:48Z</time>
      </trkpt>
      <trkpt lat="41.615251557" lon="2.500169130">
        <ele>370.73</ele>
        <time>2013-07-07T08:11:53Z</time>
      </trkpt>
      <trkpt lat="41.615165474" lon="2.500028566">
        <ele>371.69</ele>
        <time>2013-07-07T08:12:03Z</time>
      </trkpt>
      <trkpt lat="41.615084338" lon="2.499966875">
        <ele>372.65</ele>
        <time>2013-07-07T08:12:10Z</time>
      </trkpt>
      <trkpt lat="41.614953328" lon="2.499974502">
        <ele>374.57</ele>
        <time>2013-07-07T08:12:20Z</time>
      </trkpt>
      <trkpt lat="41.614839083" lon="2.499966204">
        <ele>376.49</ele>
        <time>2013-07-07T08:12:30Z</time>
      </trkpt>
      <trkpt lat="41.614761467" lon="2.499882218">
        <ele>378.42</ele>
        <time>2013-07-07T08:12:39Z</time>
      </trkpt>
      <trkpt lat="41.614691813" lon="2.499746347">
        <ele>381.30</ele>
        <time>2013-07-07T08:12:49Z</time>
      </trkpt>
      <trkpt lat="41.614648143" lon="2.499640316">
        <ele>382.74</ele>
        <time>2013-07-07T08:12:56Z</time>
      </trkpt>
      <trkpt lat="41.614584776" lon="2.499476701">
        <ele>385.15</ele>
        <time>2013-07-07T08:13:07Z</time>
      </trkpt>
      <trkpt lat="41.614575137" lon="2.499338232">
        <ele>387.07</ele>
        <time>2013-07-07T08:13:16Z</time>
      </trkpt>
      <trkpt lat="41.614594080" lon="2.499214180">
        <ele>388.51</ele>
        <time>2013-07-07T08:13:24Z</time>
      </trkpt>
      <trkpt lat="41.614632721" lon="2.499073364">
        <ele>389.47</ele>
        <time>2013-07-07T08:13:32Z</time>
      </trkpt>
      <trkpt lat="41.614670691" lon="2.498940427">
        <ele>390.43</ele>
        <time>2013-07-07T08:13:40Z</time>
      </trkpt>
      <trkpt lat="41.614677229" lon="2.498805311">
        <ele>391.39</ele>
        <time>2013-07-07T08:13:48Z</time>
      </trkpt>
      <trkpt lat="41.614692651" lon="2.498648066">
        <ele>393.32</ele>
        <time>2013-07-07T08:13:57Z</time>
      </trkpt>
      <trkpt lat="41.614701536" lon="2.498595512">
        <ele>393.32</ele>
        <time>2013-07-07T08:14:00Z</time>
      </trkpt>
      <trkpt lat="41.614708493" lon="2.498489983">
        <ele>394.28</ele>
        <time>2013-07-07T08:14:06Z</time>
      </trkpt>
      <trkpt lat="41.614730873" lon="2.498336008">
        <ele>395.24</ele>
        <time>2013-07-07T08:14:15Z</time>
      </trkpt>
      <trkpt lat="41.614747888" lon="2.498149594">
        <ele>397.16</ele>
        <time>2013-07-07T08:14:25Z</time>
      </trkpt>
      <trkpt lat="41.614721485" lon="2.497959493">
        <ele>398.12</ele>
        <time>2013-07-07T08:14:35Z</time>
      </trkpt>
      <trkpt lat="41.614664320" lon="2.497766960">
        <ele>399.08</ele>
        <time>2013-07-07T08:14:42Z</time>
      </trkpt>
      <trkpt lat="41.614579831" lon="2.497559005">
        <ele>396.20</ele>
        <time>2013-07-07T08:14:47Z</time>
      </trkpt>
      <trkpt lat="41.614508752" lon="2.497430427">
        <ele>394.76</ele>
        <time>2013-07-07T08:14:50Z</time>
      </trkpt>
      <trkpt lat="41.614303982" lon="2.497430595">
        <ele>393.80</ele>
        <time>2013-07-07T08:14:55Z</time>
      </trkpt>
      <trkpt lat="41.614243214" lon="2.497532938">
        <ele>393.80</ele>
        <time>2013-07-07T08:14:59Z</time>
      </trkpt>
      <trkpt lat="41.614209938" lon="2.497579038">
        <ele>395.24</ele>
        <time>2013-07-07T08:15:02Z</time>
      </trkpt>
      <trkpt lat="41.614127208" lon="2.497654140">
        <ele>396.68</ele>
        <time>2013-07-07T08:15:09Z</time>
      </trkpt>
      <trkpt lat="41.613997708" lon="2.497736534">
        <ele>398.60</ele>
        <time>2013-07-07T08:15:18Z</time>
      </trkpt>
      <trkpt lat="41.613868543" lon="2.497752292">
        <ele>400.05</ele>
        <time>2013-07-07T08:15:27Z</time>
      </trkpt>
      <trkpt lat="41.613758907" lon="2.497670652">
        <ele>401.49</ele>
        <time>2013-07-07T08:15:35Z</time>
      </trkpt>
      <trkpt lat="41.613670059" lon="2.497508546">
        <ele>402.45</ele>
        <time>2013-07-07T08:15:44Z</time>
      </trkpt>
      <trkpt lat="41.613567465" lon="2.497352475">
        <ele>403.41</ele>
        <time>2013-07-07T08:15:54Z</time>
      </trkpt>
      <trkpt lat="41.613471240" lon="2.497314338">
        <ele>404.37</ele>
        <time>2013-07-07T08:16:01Z</time>
      </trkpt>
      <trkpt lat="41.613344171" lon="2.497347195">
        <ele>404.85</ele>
        <time>2013-07-07T08:16:09Z</time>
      </trkpt>
      <trkpt lat="41.613242079" lon="2.497392709">
        <ele>406.29</ele>
        <time>2013-07-07T08:16:16Z</time>
      </trkpt>
      <trkpt lat="41.613114507" lon="2.497346273">
        <ele>407.74</ele>
        <time>2013-07-07T08:16:25Z</time>
      </trkpt>
      <trkpt lat="41.613038147" lon="2.497219119">
        <ele>408.22</ele>
        <time>2013-07-07T08:16:33Z</time>
      </trkpt>
      <trkpt lat="41.612980564" lon="2.497093558">
        <ele>409.18</ele>
        <time>2013-07-07T08:16:40Z</time>
      </trkpt>
      <trkpt lat="41.612926249" lon="2.496959364">
        <ele>410.62</ele>
        <time>2013-07-07T08:16:47Z</time>
      </trkpt>
      <trkpt lat="41.612851566" lon="2.496778315">
        <ele>411.58</ele>
        <time>2013-07-07T08:16:57Z</time>
      </trkpt>
      <trkpt lat="41.612819296" lon="2.496659376">
        <ele>413.02</ele>
        <time>2013-07-07T08:17:04Z</time>
      </trkpt>
      <trkpt lat="41.612762299" lon="2.496455947">
        <ele>413.98</ele>
        <time>2013-07-07T08:17:15Z</time>
      </trkpt>
      <trkpt lat="41.612717959" lon="2.496349497">
        <ele>415.43</ele>
        <time>2013-07-07T08:17:22Z</time>
      </trkpt>
      <trkpt lat="41.612664482" lon="2.496203736">
        <ele>416.39</ele>
        <time>2013-07-07T08:17:30Z</time>
      </trkpt>
      <trkpt lat="41.612631541" lon="2.496034589">
        <ele>417.35</ele>
        <time>2013-07-07T08:17:38Z</time>
      </trkpt>
      <trkpt lat="41.612613269" lon="2.495874327">
        <ele>418.79</ele>
        <time>2013-07-07T08:17:47Z</time>
      </trkpt>
      <trkpt lat="41.612591224" lon="2.495722028">
        <ele>419.75</ele>
        <time>2013-07-07T08:17:55Z</time>
      </trkpt>
      <trkpt lat="41.612553673" lon="2.495571153">
        <ele>420.23</ele>
        <time>2013-07-07T08:18:02Z</time>
      </trkpt>
      <trkpt lat="41.612519978" lon="2.495395050">
        <ele>418.79</ele>
        <time>2013-07-07T08:18:07Z</time>
      </trkpt>
      <trkpt lat="41.612491899" lon="2.495289857">
        <ele>417.83</ele>
        <time>2013-07-07T08:18:09Z</time>
      </trkpt>
      <trkpt lat="41.612454767" lon="2.494957849">
        <ele>415.43</ele>
        <time>2013-07-07T08:18:14Z</time>
      </trkpt>
      <trkpt lat="41.612494749" lon="2.494836060">
        <ele>413.98</ele>
        <time>2013-07-07T08:18:16Z</time>
      </trkpt>
      <trkpt lat="41.612548393" lon="2.494728772">
        <ele>412.54</ele>
        <time>2013-07-07T08:18:18Z</time>
      </trkpt>
      <trkpt lat="41.612518386" lon="2.494586531">
        <ele>411.10</ele>
        <time>2013-07-07T08:18:22Z</time>
      </trkpt>
      <trkpt lat="41.612463819" lon="2.494638080">
        <ele>410.14</ele>
        <time>2013-07-07T08:18:24Z</time>
      </trkpt>
      <trkpt lat="41.612227450" lon="2.494965142">
        <ele>407.74</ele>
        <time>2013-07-07T08:18:31Z</time>
      </trkpt>
      <trkpt lat="41.612170285" lon="2.495026916">
        <ele>407.26</ele>
        <time>2013-07-07T08:18:33Z</time>
      </trkpt>
      <trkpt lat="41.612112115" lon="2.494913844">
        <ele>404.85</ele>
        <time>2013-07-07T08:18:38Z</time>
      </trkpt>
      <trkpt lat="41.612142206" lon="2.494800102">
        <ele>403.89</ele>
        <time>2013-07-07T08:18:40Z</time>
      </trkpt>
      <trkpt lat="41.612187468" lon="2.494687114">
        <ele>402.93</ele>
        <time>2013-07-07T08:18:42Z</time>
      </trkpt>
      <trkpt lat="41.612292410" lon="2.494301211">
        <ele>401.49</ele>
        <time>2013-07-07T08:18:47Z</time>
      </trkpt>
      <trkpt lat="41.612417719" lon="2.494089652">
        <ele>399.57</ele>
        <time>2013-07-07T08:18:51Z</time>
      </trkpt>
      <trkpt lat="41.612500197" lon="2.494021507">
        <ele>398.12</ele>
        <time>2013-07-07T08:18:53Z</time>
      </trkpt>
      <trkpt lat="41.612498437" lon="2.493842302">
        <ele>396.68</ele>
        <time>2013-07-07T08:18:56Z</time>
      </trkpt>
      <trkpt lat="41.612458790" lon="2.493794441">
        <ele>396.68</ele>
        <time>2013-07-07T08:18:57Z</time>
      </trkpt>
      <trkpt lat="41.612366338" lon="2.493717328">
        <ele>395.72</ele>
        <time>2013-07-07T08:18:59Z</time>
      </trkpt>
      <trkpt lat="41.612195766" lon="2.493423626">
        <ele>394.28</ele>
        <time>2013-07-07T08:19:05Z</time>
      </trkpt>
      <trkpt lat="41.612189983" lon="2.493207960">
        <ele>393.32</ele>
        <time>2013-07-07T08:19:08Z</time>
      </trkpt>
      <trkpt lat="41.612254523" lon="2.492597422">
        <ele>391.87</ele>
        <time>2013-07-07T08:19:16Z</time>
      </trkpt>
      <trkpt lat="41.612397016" lon="2.492348647">
        <ele>390.43</ele>
        <time>2013-07-07T08:19:21Z</time>
      </trkpt>
      <trkpt lat="41.612341108" lon="2.492225349">
        <ele>389.95</ele>
        <time>2013-07-07T08:19:24Z</time>
      </trkpt>
      <trkpt lat="41.612222756" lon="2.492142117">
        <ele>389.95</ele>
        <time>2013-07-07T08:19:28Z</time>
      </trkpt>
      <trkpt lat="41.612077833" lon="2.491855539">
        <ele>388.03</ele>
        <time>2013-07-07T08:19:34Z</time>
      </trkpt>
      <trkpt lat="41.611970544" lon="2.491635766">
        <ele>386.11</ele>
        <time>2013-07-07T08:19:38Z</time>
      </trkpt>
      <trkpt lat="41.611942884" lon="2.491575919">
        <ele>386.11</ele>
        <time>2013-07-07T08:19:39Z</time>
      </trkpt>
      <trkpt lat="41.611885887" lon="2.491281463">
        <ele>383.70</ele>
        <time>2013-07-07T08:19:44Z</time>
      </trkpt>
      <trkpt lat="41.611885300" lon="2.491093708">
        <ele>383.22</ele>
        <time>2013-07-07T08:19:47Z</time>
      </trkpt>
      <trkpt lat="41.611943136" lon="2.490726162">
        <ele>379.38</ele>
        <time>2013-07-07T08:19:54Z</time>
      </trkpt>
      <trkpt lat="41.611978423" lon="2.490629267">
        <ele>377.94</ele>
        <time>2013-07-07T08:19:56Z</time>
      </trkpt>
      <trkpt lat="41.612020584" lon="2.490336655">
        <ele>375.53</ele>
        <time>2013-07-07T08:20:00Z</time>
      </trkpt>
      <trkpt lat="41.612135752" lon="2.489888726">
        <ele>371.69</ele>
        <time>2013-07-07T08:20:06Z</time>
      </trkpt>
      <trkpt lat="41.612128124" lon="2.489814881">
        <ele>370.24</ele>
        <time>2013-07-07T08:20:07Z</time>
      </trkpt>
      <trkpt lat="41.612116557" lon="2.489501398">
        <ele>368.32</ele>
        <time>2013-07-07T08:20:11Z</time>
      </trkpt>
      <trkpt lat="41.612141284" lon="2.489371311">
        <ele>366.40</ele>
        <time>2013-07-07T08:20:13Z</time>
      </trkpt>
      <trkpt lat="41.612124604" lon="2.489047937">
        <ele>364.00</ele>
        <time>2013-07-07T08:20:17Z</time>
      </trkpt>
      <trkpt lat="41.612060231" lon="2.488808885">
        <ele>362.55</ele>
        <time>2013-07-07T08:20:20Z</time>
      </trkpt>
      <trkpt lat="41.612085460" lon="2.488562625">
        <ele>361.59</ele>
        <time>2013-07-07T08:20:24Z</time>
      </trkpt>
      <trkpt lat="41.612246225" lon="2.488483332">
        <ele>360.63</ele>
        <time>2013-07-07T08:20:28Z</time>
      </trkpt>
      <trkpt lat="41.612318561" lon="2.488292141">
        <ele>359.67</ele>
        <time>2013-07-07T08:20:32Z</time>
      </trkpt>
      <trkpt lat="41.612304899" lon="2.488248723">
        <ele>359.67</ele>
        <time>2013-07-07T08:20:33Z</time>
      </trkpt>
      <trkpt lat="41.612254020" lon="2.488117462">
        <ele>357.75</ele>
        <time>2013-07-07T08:20:36Z</time>
      </trkpt>
      <trkpt lat="41.612184367" lon="2.487804649">
        <ele>355.83</ele>
        <time>2013-07-07T08:20:42Z</time>
      </trkpt>
      <trkpt lat="41.612129382" lon="2.487401983">
        <ele>352.94</ele>
        <time>2013-07-07T08:20:48Z</time>
      </trkpt>
      <trkpt lat="41.612147822" lon="2.486999232">
        <ele>350.54</ele>
        <time>2013-07-07T08:20:54Z</time>
      </trkpt>
      <trkpt lat="41.612208088" lon="2.486775603">
        <ele>347.65</ele>
        <time>2013-07-07T08:20:58Z</time>
      </trkpt>
      <trkpt lat="41.612135500" lon="2.486558931">
        <ele>346.21</ele>
        <time>2013-07-07T08:21:03Z</time>
      </trkpt>
      <trkpt lat="41.612104906" lon="2.486410320">
        <ele>344.77</ele>
        <time>2013-07-07T08:21:06Z</time>
      </trkpt>
      <trkpt lat="41.612084874" lon="2.486032380">
        <ele>342.37</ele>
        <time>2013-07-07T08:21:12Z</time>
      </trkpt>
      <trkpt lat="41.612091328" lon="2.485673970">
        <ele>339.00</ele>
        <time>2013-07-07T08:21:17Z</time>
      </trkpt>
      <trkpt lat="41.612141451" lon="2.485400552">
        <ele>336.12</ele>
        <time>2013-07-07T08:21:21Z</time>
      </trkpt>
      <trkpt lat="41.612297522" lon="2.485131577">
        <ele>333.71</ele>
        <time>2013-07-07T08:21:26Z</time>
      </trkpt>
      <trkpt lat="41.612407828" lon="2.484898811">
        <ele>331.79</ele>
        <time>2013-07-07T08:21:30Z</time>
      </trkpt>
      <trkpt lat="41.612431549" lon="2.484833516">
        <ele>331.79</ele>
        <time>2013-07-07T08:21:31Z</time>
      </trkpt>
      <trkpt lat="41.612484439" lon="2.484684905">
        <ele>330.35</ele>
        <time>2013-07-07T08:21:33Z</time>
      </trkpt>
      <trkpt lat="41.612576891" lon="2.484497989">
        <ele>328.91</ele>
        <time>2013-07-07T08:21:36Z</time>
      </trkpt>
      <trkpt lat="41.612680911" lon="2.484289782">
        <ele>327.47</ele>
        <time>2013-07-07T08:21:39Z</time>
      </trkpt>
      <trkpt lat="41.612803203" lon="2.483945370">
        <ele>325.06</ele>
        <time>2013-07-07T08:21:44Z</time>
      </trkpt>
      <trkpt lat="41.612880149" lon="2.483544296">
        <ele>321.70</ele>
        <time>2013-07-07T08:21:50Z</time>
      </trkpt>
      <trkpt lat="41.612912503" lon="2.483423932">
        <ele>321.22</ele>
        <time>2013-07-07T08:21:52Z</time>
      </trkpt>
      <trkpt lat="41.613039321" lon="2.483176582">
        <ele>319.78</ele>
        <time>2013-07-07T08:21:56Z</time>
      </trkpt>
      <trkpt lat="41.613114758" lon="2.482873408">
        <ele>317.85</ele>
        <time>2013-07-07T08:22:01Z</time>
      </trkpt>
      <trkpt lat="41.613110986" lon="2.482826134">
        <ele>317.85</ele>
        <time>2013-07-07T08:22:02Z</time>
      </trkpt>
      <trkpt lat="41.613068155" lon="2.482656904">
        <ele>316.89</ele>
        <time>2013-07-07T08:22:06Z</time>
      </trkpt>
      <trkpt lat="41.613042757" lon="2.482482812">
        <ele>315.45</ele>
        <time>2013-07-07T08:22:09Z</time>
      </trkpt>
      <trkpt lat="41.613027502" lon="2.482364794">
        <ele>314.01</ele>
        <time>2013-07-07T08:22:11Z</time>
      </trkpt>
      <trkpt lat="41.613037728" lon="2.482092634">
        <ele>314.49</ele>
        <time>2013-07-07T08:22:17Z</time>
      </trkpt>
      <trkpt lat="41.613040243" lon="2.482061034">
        <ele>314.49</ele>
        <time>2013-07-07T08:22:18Z</time>
      </trkpt>
      <trkpt lat="41.613008727" lon="2.481827095">
        <ele>315.45</ele>
        <time>2013-07-07T08:22:25Z</time>
      </trkpt>
      <trkpt lat="41.612910575" lon="2.481596425">
        <ele>317.37</ele>
        <time>2013-07-07T08:22:33Z</time>
      </trkpt>
      <trkpt lat="41.612812339" lon="2.481416382">
        <ele>318.81</ele>
        <time>2013-07-07T08:22:41Z</time>
      </trkpt>
      <trkpt lat="41.612803035" lon="2.481384028">
        <ele>318.81</ele>
        <time>2013-07-07T08:22:42Z</time>
      </trkpt>
      <trkpt lat="41.612824828" lon="2.481105749">
        <ele>318.81</ele>
        <time>2013-07-07T08:22:50Z</time>
      </trkpt>
      <trkpt lat="41.612796832" lon="2.480841635">
        <ele>319.30</ele>
        <time>2013-07-07T08:22:58Z</time>
      </trkpt>
      <trkpt lat="41.612839832" lon="2.480591603">
        <ele>319.30</ele>
        <time>2013-07-07T08:23:04Z</time>
      </trkpt>
      <trkpt lat="41.612861960" lon="2.480498647">
        <ele>318.33</ele>
        <time>2013-07-07T08:23:06Z</time>
      </trkpt>
      <trkpt lat="41.612862630" lon="2.480307121">
        <ele>316.41</ele>
        <time>2013-07-07T08:23:09Z</time>
      </trkpt>
      <trkpt lat="41.612844106" lon="2.480180973">
        <ele>314.97</ele>
        <time>2013-07-07T08:23:11Z</time>
      </trkpt>
      <trkpt lat="41.612734220" lon="2.479816193">
        <ele>312.57</ele>
        <time>2013-07-07T08:23:17Z</time>
      </trkpt>
      <trkpt lat="41.612718294" lon="2.479722064">
        <ele>311.12</ele>
        <time>2013-07-07T08:23:19Z</time>
      </trkpt>
      <trkpt lat="41.612712762" lon="2.479554007">
        <ele>309.68</ele>
        <time>2013-07-07T08:23:22Z</time>
      </trkpt>
      <trkpt lat="41.612756348" lon="2.479157124">
        <ele>308.24</ele>
        <time>2013-07-07T08:23:28Z</time>
      </trkpt>
      <trkpt lat="41.612793312" lon="2.478720343">
        <ele>307.76</ele>
        <time>2013-07-07T08:23:35Z</time>
      </trkpt>
      <trkpt lat="41.612796497" lon="2.478520770">
        <ele>306.80</ele>
        <time>2013-07-07T08:23:39Z</time>
      </trkpt>
      <trkpt lat="41.612821559" lon="2.478306780">
        <ele>306.32</ele>
        <time>2013-07-07T08:23:43Z</time>
      </trkpt>
      <trkpt lat="41.612945527" lon="2.477973683">
        <ele>305.36</ele>
        <time>2013-07-07T08:23:49Z</time>
      </trkpt>
      <trkpt lat="41.612975451" lon="2.477919871">
        <ele>304.88</ele>
        <time>2013-07-07T08:23:50Z</time>
      </trkpt>
      <trkpt lat="41.613068741" lon="2.477553582">
        <ele>301.51</ele>
        <time>2013-07-07T08:23:55Z</time>
      </trkpt>
      <trkpt lat="41.613078464" lon="2.477490466">
        <ele>301.51</ele>
        <time>2013-07-07T08:23:56Z</time>
      </trkpt>
      <trkpt lat="41.613100593" lon="2.477332216">
        <ele>299.59</ele>
        <time>2013-07-07T08:24:00Z</time>
      </trkpt>
      <trkpt lat="41.613079135" lon="2.477133062">
        <ele>297.67</ele>
        <time>2013-07-07T08:24:05Z</time>
      </trkpt>
      <trkpt lat="41.612998501" lon="2.476907253">
        <ele>296.22</ele>
        <time>2013-07-07T08:24:08Z</time>
      </trkpt>
      <trkpt lat="41.612716199" lon="2.476309288">
        <ele>293.82</ele>
        <time>2013-07-07T08:24:15Z</time>
      </trkpt>
      <trkpt lat="41.612596254" lon="2.475939144">
        <ele>292.86</ele>
        <time>2013-07-07T08:24:19Z</time>
      </trkpt>
      <trkpt lat="41.612492737" lon="2.475708809">
        <ele>292.86</ele>
        <time>2013-07-07T08:24:22Z</time>
      </trkpt>
      <trkpt lat="41.612379581" lon="2.475463303">
        <ele>292.38</ele>
        <time>2013-07-07T08:24:26Z</time>
      </trkpt>
      <trkpt lat="41.612318226" lon="2.475133475">
        <ele>290.46</ele>
        <time>2013-07-07T08:24:31Z</time>
      </trkpt>
      <trkpt lat="41.612329793" lon="2.474640703">
        <ele>289.49</ele>
        <time>2013-07-07T08:24:39Z</time>
      </trkpt>
      <trkpt lat="41.612334487" lon="2.474527296">
        <ele>289.49</ele>
        <time>2013-07-07T08:24:41Z</time>
      </trkpt>
      <trkpt lat="41.612332978" lon="2.474178022">
        <ele>289.49</ele>
        <time>2013-07-07T08:24:48Z</time>
      </trkpt>
      <trkpt lat="41.612226612" lon="2.473837214">
        <ele>289.49</ele>
        <time>2013-07-07T08:24:56Z</time>
      </trkpt>
      <trkpt lat="41.612209093" lon="2.473686759">
        <ele>289.49</ele>
        <time>2013-07-07T08:24:59Z</time>
      </trkpt>
      <trkpt lat="41.612080515" lon="2.473503111">
        <ele>287.57</ele>
        <time>2013-07-07T08:25:04Z</time>
      </trkpt>
      <trkpt lat="41.611990074" lon="2.473480815">
        <ele>287.09</ele>
        <time>2013-07-07T08:25:06Z</time>
      </trkpt>
      <trkpt lat="41.611783628" lon="2.473439576">
        <ele>283.73</ele>
        <time>2013-07-07T08:25:11Z</time>
      </trkpt>
      <trkpt lat="41.611576427" lon="2.473314686">
        <ele>280.36</ele>
        <time>2013-07-07T08:25:18Z</time>
      </trkpt>
      <trkpt lat="41.611531919" lon="2.473272776">
        <ele>278.44</ele>
        <time>2013-07-07T08:25:20Z</time>
      </trkpt>
      <trkpt lat="41.611426391" lon="2.473103210">
        <ele>275.56</ele>
        <time>2013-07-07T08:25:24Z</time>
      </trkpt>
      <trkpt lat="41.611252383" lon="2.472676655">
        <ele>272.67</ele>
        <time>2013-07-07T08:25:31Z</time>
      </trkpt>
      <trkpt lat="41.611089271" lon="2.472507928">
        <ele>270.75</ele>
        <time>2013-07-07T08:25:36Z</time>
      </trkpt>
      <trkpt lat="41.610912245" lon="2.472425953">
        <ele>267.38</ele>
        <time>2013-07-07T08:25:40Z</time>
      </trkpt>
      <trkpt lat="41.610760449" lon="2.472340122">
        <ele>265.94</ele>
        <time>2013-07-07T08:25:43Z</time>
      </trkpt>
      <trkpt lat="41.610364153" lon="2.472123534">
        <ele>263.54</ele>
        <time>2013-07-07T08:25:50Z</time>
      </trkpt>
      <trkpt lat="41.610047652" lon="2.472014401">
        <ele>263.06</ele>
        <time>2013-07-07T08:25:56Z</time>
      </trkpt>
      <trkpt lat="41.609945896" lon="2.471981879">
        <ele>262.58</ele>
        <time>2013-07-07T08:25:58Z</time>
      </trkpt>
      <trkpt lat="41.609750094" lon="2.471868556">
        <ele>262.10</ele>
        <time>2013-07-07T08:26:03Z</time>
      </trkpt>
      <trkpt lat="41.609640543" lon="2.471628834">
        <ele>261.62</ele>
        <time>2013-07-07T08:26:10Z</time>
      </trkpt>
      <trkpt lat="41.609586144" lon="2.471375113">
        <ele>260.65</ele>
        <time>2013-07-07T08:26:17Z</time>
      </trkpt>
      <trkpt lat="41.609494949" lon="2.471047465">
        <ele>260.65</ele>
        <time>2013-07-07T08:26:26Z</time>
      </trkpt>
      <trkpt lat="41.609428984" lon="2.470745716">
        <ele>260.17</ele>
        <time>2013-07-07T08:26:34Z</time>
      </trkpt>
      <trkpt lat="41.609366874" lon="2.470376829">
        <ele>259.69</ele>
        <time>2013-07-07T08:26:42Z</time>
      </trkpt>
      <trkpt lat="41.609306357" lon="2.470031494">
        <ele>259.21</ele>
        <time>2013-07-07T08:26:49Z</time>
      </trkpt>
      <trkpt lat="41.609282133" lon="2.469911885">
        <ele>258.73</ele>
        <time>2013-07-07T08:26:51Z</time>
      </trkpt>
      <trkpt lat="41.609200912" lon="2.469663948">
        <ele>257.77</ele>
        <time>2013-07-07T08:26:55Z</time>
      </trkpt>
      <trkpt lat="41.609063449" lon="2.469384747">
        <ele>256.33</ele>
        <time>2013-07-07T08:26:59Z</time>
      </trkpt>
      <trkpt lat="41.608914922" lon="2.469046537">
        <ele>255.37</ele>
        <time>2013-07-07T08:27:04Z</time>
      </trkpt>
      <trkpt lat="41.608931685" lon="2.468767336">
        <ele>255.37</ele>
        <time>2013-07-07T08:27:09Z</time>
      </trkpt>
      <trkpt lat="41.608968231" lon="2.468693994">
        <ele>255.37</ele>
        <time>2013-07-07T08:27:11Z</time>
      </trkpt>
      <trkpt lat="41.609053307" lon="2.468400963">
        <ele>255.85</ele>
        <time>2013-07-07T08:27:19Z</time>
      </trkpt>
      <trkpt lat="41.609102341" lon="2.468114385">
        <ele>255.85</ele>
        <time>2013-07-07T08:27:26Z</time>
      </trkpt>
      <trkpt lat="41.609120949" lon="2.468016736">
        <ele>255.37</ele>
        <time>2013-07-07T08:27:28Z</time>
      </trkpt>
      <trkpt lat="41.609149447" lon="2.467820684">
        <ele>254.41</ele>
        <time>2013-07-07T08:27:31Z</time>
      </trkpt>
      <trkpt lat="41.609116590" lon="2.467204530">
        <ele>252.00</ele>
        <time>2013-07-07T08:27:39Z</time>
      </trkpt>
      <trkpt lat="41.609068310" lon="2.466905044">
        <ele>251.04</ele>
        <time>2013-07-07T08:27:43Z</time>
      </trkpt>
      <trkpt lat="41.608909892" lon="2.466635985">
        <ele>250.08</ele>
        <time>2013-07-07T08:27:48Z</time>
      </trkpt>
      <trkpt lat="41.608708643" lon="2.466413446">
        <ele>249.60</ele>
        <time>2013-07-07T08:27:54Z</time>
      </trkpt>
      <trkpt lat="41.608603031" lon="2.466232229">
        <ele>249.12</ele>
        <time>2013-07-07T08:27:58Z</time>
      </trkpt>
      <trkpt lat="41.608465400" lon="2.465893013">
        <ele>247.68</ele>
        <time>2013-07-07T08:28:05Z</time>
      </trkpt>
      <trkpt lat="41.608336486" lon="2.465774577">
        <ele>246.72</ele>
        <time>2013-07-07T08:28:10Z</time>
      </trkpt>
      <trkpt lat="41.608252500" lon="2.465545919">
        <ele>246.72</ele>
        <time>2013-07-07T08:28:16Z</time>
      </trkpt>
      <trkpt lat="41.608169435" lon="2.465275267">
        <ele>246.72</ele>
        <time>2013-07-07T08:28:23Z</time>
      </trkpt>
      <trkpt lat="41.608094082" lon="2.465011740">
        <ele>246.72</ele>
        <time>2013-07-07T08:28:29Z</time>
      </trkpt>
      <trkpt lat="41.607964498" lon="2.464769252">
        <ele>245.27</ele>
        <time>2013-07-07T08:28:34Z</time>
      </trkpt>
      <trkpt lat="41.607842625" lon="2.464464234">
        <ele>244.79</ele>
        <time>2013-07-07T08:28:40Z</time>
      </trkpt>
      <trkpt lat="41.607866681" lon="2.464235827">
        <ele>244.79</ele>
        <time>2013-07-07T08:28:44Z</time>
      </trkpt>
      <trkpt lat="41.607886211" lon="2.463999290">
        <ele>244.79</ele>
        <time>2013-07-07T08:28:50Z</time>
      </trkpt>
      <trkpt lat="41.607906746" lon="2.463782534">
        <ele>246.23</ele>
        <time>2013-07-07T08:28:58Z</time>
      </trkpt>
      <trkpt lat="41.607932646" lon="2.463486066">
        <ele>246.23</ele>
        <time>2013-07-07T08:29:05Z</time>
      </trkpt>
      <trkpt lat="41.607901717" lon="2.463182809">
        <ele>246.23</ele>
        <time>2013-07-07T08:29:11Z</time>
      </trkpt>
      <trkpt lat="41.607864669" lon="2.463087674">
        <ele>246.23</ele>
        <time>2013-07-07T08:29:13Z</time>
      </trkpt>
      <trkpt lat="41.607609021" lon="2.462702777">
        <ele>244.79</ele>
        <time>2013-07-07T08:29:22Z</time>
      </trkpt>
      <trkpt lat="41.607416573" lon="2.462482333">
        <ele>244.31</ele>
        <time>2013-07-07T08:29:27Z</time>
      </trkpt>
      <trkpt lat="41.607336023" lon="2.462415362">
        <ele>243.35</ele>
        <time>2013-07-07T08:29:29Z</time>
      </trkpt>
      <trkpt lat="41.607020192" lon="2.462254178">
        <ele>242.39</ele>
        <time>2013-07-07T08:29:36Z</time>
      </trkpt>
      <trkpt lat="41.606831013" lon="2.462170694">
        <ele>241.91</ele>
        <time>2013-07-07T08:29:40Z</time>
      </trkpt>
      <trkpt lat="41.606638061" lon="2.461955195">
        <ele>240.95</ele>
        <time>2013-07-07T08:29:45Z</time>
      </trkpt>
      <trkpt lat="41.606370008" lon="2.461363349">
        <ele>238.06</ele>
        <time>2013-07-07T08:29:53Z</time>
      </trkpt>
      <trkpt lat="41.606333715" lon="2.461297467">
        <ele>238.06</ele>
        <time>2013-07-07T08:29:54Z</time>
      </trkpt>
      <trkpt lat="41.606174542" lon="2.461071156">
        <ele>237.10</ele>
        <time>2013-07-07T08:29:58Z</time>
      </trkpt>
      <trkpt lat="41.606089550" lon="2.460882312">
        <ele>236.62</ele>
        <time>2013-07-07T08:30:01Z</time>
      </trkpt>
      <trkpt lat="41.605936496" lon="2.460400688">
        <ele>235.18</ele>
        <time>2013-07-07T08:30:09Z</time>
      </trkpt>
      <trkpt lat="41.605817222" lon="2.460064154">
        <ele>234.70</ele>
        <time>2013-07-07T08:30:15Z</time>
      </trkpt>
      <trkpt lat="41.605699204" lon="2.459823761">
        <ele>235.18</ele>
        <time>2013-07-07T08:30:21Z</time>
      </trkpt>
      <trkpt lat="41.605621337" lon="2.459558977">
        <ele>235.18</ele>
        <time>2013-07-07T08:30:26Z</time>
      </trkpt>
      <trkpt lat="41.605600298" lon="2.459241387">
        <ele>235.18</ele>
        <time>2013-07-07T08:30:33Z</time>
      </trkpt>
      <trkpt lat="41.605580601" lon="2.458881971">
        <ele>235.18</ele>
        <time>2013-07-07T08:30:41Z</time>
      </trkpt>
      <trkpt lat="41.605498793" lon="2.458579971">
        <ele>235.18</ele>
        <time>2013-07-07T08:30:47Z</time>
      </trkpt>
      <trkpt lat="41.605416399" lon="2.458281156">
        <ele>235.18</ele>
        <time>2013-07-07T08:30:54Z</time>
      </trkpt>
      <trkpt lat="41.605319001" lon="2.457908077">
        <ele>234.70</ele>
        <time>2013-07-07T08:31:01Z</time>
      </trkpt>
      <trkpt lat="41.605270973" lon="2.457603730">
        <ele>234.22</ele>
        <time>2013-07-07T08:31:07Z</time>
      </trkpt>
      <trkpt lat="41.605247504" lon="2.457332241">
        <ele>234.22</ele>
        <time>2013-07-07T08:31:13Z</time>
      </trkpt>
      <trkpt lat="41.605239625" lon="2.457033426">
        <ele>233.74</ele>
        <time>2013-07-07T08:31:19Z</time>
      </trkpt>
      <trkpt lat="41.605229231" lon="2.456639811">
        <ele>233.74</ele>
        <time>2013-07-07T08:31:27Z</time>
      </trkpt>
      <trkpt lat="41.605214814" lon="2.456537133">
        <ele>232.78</ele>
        <time>2013-07-07T08:31:29Z</time>
      </trkpt>
      <trkpt lat="41.605174581" lon="2.456422301">
        <ele>232.30</ele>
        <time>2013-07-07T08:31:31Z</time>
      </trkpt>
      <trkpt lat="41.605084476" lon="2.456245778">
        <ele>229.41</ele>
        <time>2013-07-07T08:31:34Z</time>
      </trkpt>
      <trkpt lat="41.604951623" lon="2.456097251">
        <ele>228.45</ele>
        <time>2013-07-07T08:31:37Z</time>
      </trkpt>
      <trkpt lat="41.604833941" lon="2.456042601">
        <ele>227.01</ele>
        <time>2013-07-07T08:31:39Z</time>
      </trkpt>
      <trkpt lat="41.604774764" lon="2.456020137">
        <ele>226.53</ele>
        <time>2013-07-07T08:31:40Z</time>
      </trkpt>
      <trkpt lat="41.604505119" lon="2.455848057">
        <ele>225.09</ele>
        <time>2013-07-07T08:31:45Z</time>
      </trkpt>
      <trkpt lat="41.604179985" lon="2.455369366">
        <ele>223.64</ele>
        <time>2013-07-07T08:31:52Z</time>
      </trkpt>
      <trkpt lat="41.604069679" lon="2.455104834">
        <ele>223.16</ele>
        <time>2013-07-07T08:31:56Z</time>
      </trkpt>
      <trkpt lat="41.604028272" lon="2.454982122">
        <ele>223.16</ele>
        <time>2013-07-07T08:31:58Z</time>
      </trkpt>
      <trkpt lat="41.603964737" lon="2.454689929">
        <ele>223.16</ele>
        <time>2013-07-07T08:32:04Z</time>
      </trkpt>
      <trkpt lat="41.603966581" lon="2.454590939">
        <ele>222.68</ele>
        <time>2013-07-07T08:32:10Z</time>
      </trkpt>
      <trkpt lat="41.604016957" lon="2.454421289">
        <ele>222.20</ele>
        <time>2013-07-07T08:32:15Z</time>
      </trkpt>
      <trkpt lat="41.604082922" lon="2.454327077">
        <ele>220.76</ele>
        <time>2013-07-07T08:32:19Z</time>
      </trkpt>
      <trkpt lat="41.604120976" lon="2.454328166">
        <ele>220.28</ele>
        <time>2013-07-07T08:32:26Z</time>
      </trkpt>
      <trkpt lat="41.604157940" lon="2.454494463">
        <ele>220.28</ele>
        <time>2013-07-07T08:32:33Z</time>
      </trkpt>
      <trkpt lat="41.604154839" lon="2.454524973">
        <ele>220.28</ele>
        <time>2013-07-07T08:32:34Z</time>
      </trkpt>
      <trkpt lat="41.604132208" lon="2.454617426">
        <ele>220.28</ele>
        <time>2013-07-07T08:32:37Z</time>
      </trkpt>
      <trkpt lat="41.604116450" lon="2.454644248">
        <ele>219.80</ele>
        <time>2013-07-07T08:32:44Z</time>
      </trkpt>
      <trkpt lat="41.604122652" lon="2.454669394">
        <ele>219.80</ele>
        <time>2013-07-07T08:32:55Z</time>
      </trkpt>
      <trkpt lat="41.604138746" lon="2.454663526">
        <ele>219.80</ele>
        <time>2013-07-07T08:33:04Z</time>
      </trkpt>
      <trkpt lat="41.604152827" lon="2.454641817">
        <ele>219.80</ele>
        <time>2013-07-07T08:33:23Z</time>
      </trkpt>
      <trkpt lat="41.604164227" lon="2.454615079">
        <ele>219.80</ele>
        <time>2013-07-07T08:33:44Z</time>
      </trkpt>
      <trkpt lat="41.604177135" lon="2.454623293">
        <ele>219.80</ele>
        <time>2013-07-07T08:33:59Z</time>
      </trkpt>
      <trkpt lat="41.604174201" lon="2.454616923">
        <ele>219.80</ele>
        <time>2013-07-07T08:34:12Z</time>
      </trkpt>
      <trkpt lat="41.604158192" lon="2.454624634">
        <ele>219.80</ele>
        <time>2013-07-07T08:34:33Z</time>
      </trkpt>
      <trkpt lat="41.604145619" lon="2.454628993">
        <ele>219.80</ele>
        <time>2013-07-07T08:34:54Z</time>
      </trkpt>
      <trkpt lat="41.604142266" lon="2.454647433">
        <ele>220.28</ele>
        <time>2013-07-07T08:35:10Z</time>
      </trkpt>
      <trkpt lat="41.604139416" lon="2.454642069">
        <ele>220.28</ele>
        <time>2013-07-07T08:35:23Z</time>
      </trkpt>
      <trkpt lat="41.604154084" lon="2.454641733">
        <ele>220.28</ele>
        <time>2013-07-07T08:35:39Z</time>
      </trkpt>
      <trkpt lat="41.604163640" lon="2.454634190">
        <ele>220.28</ele>
        <time>2013-07-07T08:35:56Z</time>
      </trkpt>
      <trkpt lat="41.604181829" lon="2.454637710">
        <ele>220.28</ele>
        <time>2013-07-07T08:36:14Z</time>
      </trkpt>
      <trkpt lat="41.604175039" lon="2.454642069">
        <ele>220.28</ele>
        <time>2013-07-07T08:36:26Z</time>
      </trkpt>
      <trkpt lat="41.604170597" lon="2.454629328">
        <ele>220.28</ele>
        <time>2013-07-07T08:36:38Z</time>
      </trkpt>
      <trkpt lat="41.604143439" lon="2.454622539">
        <ele>220.28</ele>
        <time>2013-07-07T08:36:47Z</time>
      </trkpt>
      <trkpt lat="41.604134387" lon="2.454611475">
        <ele>220.28</ele>
        <time>2013-07-07T08:37:03Z</time>
      </trkpt>
      <trkpt lat="41.604121563" lon="2.454625892">
        <ele>220.28</ele>
        <time>2013-07-07T08:37:14Z</time>
      </trkpt>
      <trkpt lat="41.604121730" lon="2.454626897">
        <ele>220.28</ele>
        <time>2013-07-07T08:37:21Z</time>
      </trkpt>
      <trkpt lat="41.604122568" lon="2.454620108">
        <ele>220.28</ele>
        <time>2013-07-07T08:37:22Z</time>
      </trkpt>
      <trkpt lat="41.604138410" lon="2.454463115">
        <ele>220.28</ele>
        <time>2013-07-07T08:37:31Z</time>
      </trkpt>
      <trkpt lat="41.604128603" lon="2.454335291">
        <ele>220.28</ele>
        <time>2013-07-07T08:37:37Z</time>
      </trkpt>
      <trkpt lat="41.604209321" lon="2.454206294">
        <ele>219.32</ele>
        <time>2013-07-07T08:37:43Z</time>
      </trkpt>
      <trkpt lat="41.604265899" lon="2.453952741">
        <ele>217.88</ele>
        <time>2013-07-07T08:37:48Z</time>
      </trkpt>
      <trkpt lat="41.604220972" lon="2.453774877">
        <ele>217.88</ele>
        <time>2013-07-07T08:37:53Z</time>
      </trkpt>
      <trkpt lat="41.604210662" lon="2.453774458">
        <ele>217.40</ele>
        <time>2013-07-07T08:37:54Z</time>
      </trkpt>
      <trkpt lat="41.604227929" lon="2.453829359">
        <ele>217.40</ele>
        <time>2013-07-07T08:37:58Z</time>
      </trkpt>
      <trkpt lat="41.604292553" lon="2.454005798">
        <ele>217.40</ele>
        <time>2013-07-07T08:38:05Z</time>
      </trkpt>
      <trkpt lat="41.604290877" lon="2.454052737">
        <ele>217.40</ele>
        <time>2013-07-07T08:38:10Z</time>
      </trkpt>
      <trkpt lat="41.604280148" lon="2.454068663">
        <ele>217.40</ele>
        <time>2013-07-07T08:38:15Z</time>
      </trkpt>
      <trkpt lat="41.604254248" lon="2.454078721">
        <ele>217.88</ele>
        <time>2013-07-07T08:38:21Z</time>
      </trkpt>
      <trkpt lat="41.604246285" lon="2.454108393">
        <ele>217.88</ele>
        <time>2013-07-07T08:38:33Z</time>
      </trkpt>
      <trkpt lat="41.604268497" lon="2.454112919">
        <ele>217.88</ele>
        <time>2013-07-07T08:38:53Z</time>
      </trkpt>
      <trkpt lat="41.604249890" lon="2.454083582">
        <ele>217.88</ele>
        <time>2013-07-07T08:39:13Z</time>
      </trkpt>
      <trkpt lat="41.604229186" lon="2.454066400">
        <ele>217.88</ele>
        <time>2013-07-07T08:39:37Z</time>
      </trkpt>
      <trkpt lat="41.604227426" lon="2.454080649">
        <ele>217.88</ele>
        <time>2013-07-07T08:39:57Z</time>
      </trkpt>
      <trkpt lat="41.604222732" lon="2.454071345">
        <ele>218.36</ele>
        <time>2013-07-07T08:40:18Z</time>
      </trkpt>
      <trkpt lat="41.604220385" lon="2.454055168">
        <ele>218.36</ele>
        <time>2013-07-07T08:40:36Z</time>
      </trkpt>
      <trkpt lat="41.604205717" lon="2.454067657">
        <ele>218.36</ele>
        <time>2013-07-07T08:40:49Z</time>
      </trkpt>
      <trkpt lat="41.604218625" lon="2.454110572">
        <ele>218.36</ele>
        <time>2013-07-07T08:41:08Z</time>
      </trkpt>
      <trkpt lat="41.604208902" lon="2.454081068">
        <ele>218.84</ele>
        <time>2013-07-07T08:41:28Z</time>
      </trkpt>
      <trkpt lat="41.604201191" lon="2.454096826">
        <ele>218.84</ele>
        <time>2013-07-07T08:41:48Z</time>
      </trkpt>
      <trkpt lat="41.604200855" lon="2.454121133">
        <ele>218.84</ele>
        <time>2013-07-07T08:42:11Z</time>
      </trkpt>
      <trkpt lat="41.604195575" lon="2.454094479">
        <ele>218.84</ele>
        <time>2013-07-07T08:42:31Z</time>
      </trkpt>
      <trkpt lat="41.604165735" lon="2.454089198">
        <ele>218.84</ele>
        <time>2013-07-07T08:42:51Z</time>
      </trkpt>
      <trkpt lat="41.604176548" lon="2.454070674">
        <ele>218.84</ele>
        <time>2013-07-07T08:42:56Z</time>
      </trkpt>
      <trkpt lat="41.604205382" lon="2.453951735">
        <ele>218.84</ele>
        <time>2013-07-07T08:43:01Z</time>
      </trkpt>
      <trkpt lat="41.604164059" lon="2.453739422">
        <ele>218.36</ele>
        <time>2013-07-07T08:43:08Z</time>
      </trkpt>
      <trkpt lat="41.604104296" lon="2.453498861">
        <ele>218.36</ele>
        <time>2013-07-07T08:43:15Z</time>
      </trkpt>
      <trkpt lat="41.603993822" lon="2.453239357">
        <ele>217.88</ele>
        <time>2013-07-07T08:43:22Z</time>
      </trkpt>
      <trkpt lat="41.603834734" lon="2.453044394">
        <ele>217.88</ele>
        <time>2013-07-07T08:43:28Z</time>
      </trkpt>
      <trkpt lat="41.603607752" lon="2.452912295">
        <ele>217.40</ele>
        <time>2013-07-07T08:43:35Z</time>
      </trkpt>
      <trkpt lat="41.603446400" lon="2.452951439">
        <ele>216.91</ele>
        <time>2013-07-07T08:43:40Z</time>
      </trkpt>
      <trkpt lat="41.603270632" lon="2.453052944">
        <ele>216.91</ele>
        <time>2013-07-07T08:43:47Z</time>
      </trkpt>
      <trkpt lat="41.603114477" lon="2.452999802">
        <ele>215.95</ele>
        <time>2013-07-07T08:43:52Z</time>
      </trkpt>
      <trkpt lat="41.603002327" lon="2.452840798">
        <ele>215.95</ele>
        <time>2013-07-07T08:43:58Z</time>
      </trkpt>
      <trkpt lat="41.602872240" lon="2.452638459">
        <ele>217.40</ele>
        <time>2013-07-07T08:44:06Z</time>
      </trkpt>
      <trkpt lat="41.602696639" lon="2.452370824">
        <ele>217.40</ele>
        <time>2013-07-07T08:44:14Z</time>
      </trkpt>
      <trkpt lat="41.602569486" lon="2.452249035">
        <ele>217.88</ele>
        <time>2013-07-07T08:44:19Z</time>
      </trkpt>
      <trkpt lat="41.602422048" lon="2.452082655">
        <ele>218.36</ele>
        <time>2013-07-07T08:44:26Z</time>
      </trkpt>
      <trkpt lat="41.602323644" lon="2.451833628">
        <ele>219.80</ele>
        <time>2013-07-07T08:44:34Z</time>
      </trkpt>
      <trkpt lat="41.602240412" lon="2.451559205">
        <ele>220.28</ele>
        <time>2013-07-07T08:44:42Z</time>
      </trkpt>
      <trkpt lat="41.602083335" lon="2.451227365">
        <ele>220.76</ele>
        <time>2013-07-07T08:44:51Z</time>
      </trkpt>
      <trkpt lat="41.602032122" lon="2.450985547">
        <ele>221.24</ele>
        <time>2013-07-07T08:44:58Z</time>
      </trkpt>
      <trkpt lat="41.601980238" lon="2.450672818">
        <ele>221.24</ele>
        <time>2013-07-07T08:45:05Z</time>
      </trkpt>
      <trkpt lat="41.601854006" lon="2.450229332">
        <ele>219.80</ele>
        <time>2013-07-07T08:45:12Z</time>
      </trkpt>
      <trkpt lat="41.601835315" lon="2.450170240">
        <ele>219.80</ele>
        <time>2013-07-07T08:45:13Z</time>
      </trkpt>
      <trkpt lat="41.601785359" lon="2.449718455">
        <ele>218.84</ele>
        <time>2013-07-07T08:45:20Z</time>
      </trkpt>
      <trkpt lat="41.601678825" lon="2.449401368">
        <ele>218.36</ele>
        <time>2013-07-07T08:45:26Z</time>
      </trkpt>
      <trkpt lat="41.601525771" lon="2.448866518">
        <ele>217.40</ele>
        <time>2013-07-07T08:45:35Z</time>
      </trkpt>
      <trkpt lat="41.601496351" lon="2.448737018">
        <ele>216.91</ele>
        <time>2013-07-07T08:45:37Z</time>
      </trkpt>
      <trkpt lat="41.601487466" lon="2.448540462">
        <ele>216.43</ele>
        <time>2013-07-07T08:45:40Z</time>
      </trkpt>
      <trkpt lat="41.601501883" lon="2.448338626">
        <ele>216.43</ele>
        <time>2013-07-07T08:45:43Z</time>
      </trkpt>
      <trkpt lat="41.601440359" lon="2.448085241">
        <ele>216.43</ele>
        <time>2013-07-07T08:45:48Z</time>
      </trkpt>
      <trkpt lat="41.601415801" lon="2.448069986">
        <ele>216.43</ele>
        <time>2013-07-07T08:45:49Z</time>
      </trkpt>
      <trkpt lat="41.601368527" lon="2.448043164">
        <ele>217.88</ele>
        <time>2013-07-07T08:45:51Z</time>
      </trkpt>
      <trkpt lat="41.601244474" lon="2.447904695">
        <ele>219.32</ele>
        <time>2013-07-07T08:45:57Z</time>
      </trkpt>
      <trkpt lat="41.601141796" lon="2.447749714">
        <ele>220.28</ele>
        <time>2013-07-07T08:46:03Z</time>
      </trkpt>
      <trkpt lat="41.601050182" lon="2.447580064">
        <ele>220.76</ele>
        <time>2013-07-07T08:46:10Z</time>
      </trkpt>
      <trkpt lat="41.600986228" lon="2.447367583">
        <ele>220.76</ele>
        <time>2013-07-07T08:46:15Z</time>
      </trkpt>
      <trkpt lat="41.600916826" lon="2.447129620">
        <ele>220.76</ele>
        <time>2013-07-07T08:46:19Z</time>
      </trkpt>
      <trkpt lat="41.600893021" lon="2.446992576">
        <ele>219.32</ele>
        <time>2013-07-07T08:46:21Z</time>
      </trkpt>
      <trkpt lat="41.600878521" lon="2.446923509">
        <ele>219.32</ele>
        <time>2013-07-07T08:46:22Z</time>
      </trkpt>
      <trkpt lat="41.600677271" lon="2.446603488">
        <ele>218.84</ele>
        <time>2013-07-07T08:46:28Z</time>
      </trkpt>
      <trkpt lat="41.600575515" lon="2.446566776">
        <ele>218.84</ele>
        <time>2013-07-07T08:46:30Z</time>
      </trkpt>
      <trkpt lat="41.600084251" lon="2.446528470">
        <ele>217.40</ele>
        <time>2013-07-07T08:46:39Z</time>
      </trkpt>
      <trkpt lat="41.599873363" lon="2.446383379">
        <ele>217.40</ele>
        <time>2013-07-07T08:46:45Z</time>
      </trkpt>
      <trkpt lat="41.599713687" lon="2.445997980">
        <ele>218.36</ele>
        <time>2013-07-07T08:46:55Z</time>
      </trkpt>
      <trkpt lat="41.599576895" lon="2.445686592">
        <ele>219.80</ele>
        <time>2013-07-07T08:47:04Z</time>
      </trkpt>
      <trkpt lat="41.599485448" lon="2.445371600">
        <ele>219.80</ele>
        <time>2013-07-07T08:47:12Z</time>
      </trkpt>
      <trkpt lat="41.599328204" lon="2.444893245">
        <ele>219.32</ele>
        <time>2013-07-07T08:47:22Z</time>
      </trkpt>
      <trkpt lat="41.599166182" lon="2.444380608">
        <ele>217.88</ele>
        <time>2013-07-07T08:47:31Z</time>
      </trkpt>
      <trkpt lat="41.599044309" lon="2.444193775">
        <ele>217.40</ele>
        <time>2013-07-07T08:47:35Z</time>
      </trkpt>
      <trkpt lat="41.598950096" lon="2.444167456">
        <ele>216.43</ele>
        <time>2013-07-07T08:47:37Z</time>
      </trkpt>
      <trkpt lat="41.598854794" lon="2.444130575">
        <ele>215.47</ele>
        <time>2013-07-07T08:47:39Z</time>
      </trkpt>
      <trkpt lat="41.598675002" lon="2.444051869">
        <ele>212.11</ele>
        <time>2013-07-07T08:47:43Z</time>
      </trkpt>
      <trkpt lat="41.598517171" lon="2.444000740">
        <ele>209.22</ele>
        <time>2013-07-07T08:47:47Z</time>
      </trkpt>
      <trkpt lat="41.598424048" lon="2.443783145">
        <ele>208.26</ele>
        <time>2013-07-07T08:47:52Z</time>
      </trkpt>
      <trkpt lat="41.598342240" lon="2.443337983">
        <ele>207.30</ele>
        <time>2013-07-07T08:48:01Z</time>
      </trkpt>
      <trkpt lat="41.598269402" lon="2.443038078">
        <ele>206.82</ele>
        <time>2013-07-07T08:48:07Z</time>
      </trkpt>
      <trkpt lat="41.598162784" lon="2.442515634">
        <ele>206.34</ele>
        <time>2013-07-07T08:48:17Z</time>
      </trkpt>
      <trkpt lat="41.598066057" lon="2.442260908">
        <ele>204.90</ele>
        <time>2013-07-07T08:48:22Z</time>
      </trkpt>
      <trkpt lat="41.597785934" lon="2.441867797">
        <ele>202.98</ele>
        <time>2013-07-07T08:48:29Z</time>
      </trkpt>
      <trkpt lat="41.597742599" lon="2.441804849">
        <ele>202.98</ele>
        <time>2013-07-07T08:48:30Z</time>
      </trkpt>
      <trkpt lat="41.597544954" lon="2.441336636">
        <ele>202.49</ele>
        <time>2013-07-07T08:48:37Z</time>
      </trkpt>
      <trkpt lat="41.597422327" lon="2.440924414">
        <ele>202.49</ele>
        <time>2013-07-07T08:48:45Z</time>
      </trkpt>
      <trkpt lat="41.597299196" lon="2.440558460">
        <ele>202.49</ele>
        <time>2013-07-07T08:48:54Z</time>
      </trkpt>
      <trkpt lat="41.597178329" lon="2.440418147">
        <ele>202.49</ele>
        <time>2013-07-07T08:48:59Z</time>
      </trkpt>
      <trkpt lat="41.597000968" lon="2.440263920">
        <ele>201.53</ele>
        <time>2013-07-07T08:49:03Z</time>
      </trkpt>
      <trkpt lat="41.596808604" lon="2.440110866">
        <ele>199.13</ele>
        <time>2013-07-07T08:49:07Z</time>
      </trkpt>
      <trkpt lat="41.596769963" lon="2.440066107">
        <ele>199.13</ele>
        <time>2013-07-07T08:49:08Z</time>
      </trkpt>
      <trkpt lat="41.596597380" lon="2.439851781">
        <ele>197.21</ele>
        <time>2013-07-07T08:49:12Z</time>
      </trkpt>
      <trkpt lat="41.596338714" lon="2.439516757">
        <ele>194.32</ele>
        <time>2013-07-07T08:49:18Z</time>
      </trkpt>
      <trkpt lat="41.596140566" lon="2.439437213">
        <ele>193.84</ele>
        <time>2013-07-07T08:49:23Z</time>
      </trkpt>
      <trkpt lat="41.596037804" lon="2.439463699">
        <ele>193.84</ele>
        <time>2013-07-07T08:49:26Z</time>
      </trkpt>
      <trkpt lat="41.595979633" lon="2.439344173">
        <ele>193.36</ele>
        <time>2013-07-07T08:49:31Z</time>
      </trkpt>
      <trkpt lat="41.595964965" lon="2.439316765">
        <ele>193.36</ele>
        <time>2013-07-07T08:49:32Z</time>
      </trkpt>
      <trkpt lat="41.595744186" lon="2.439295475">
        <ele>192.88</ele>
        <time>2013-07-07T08:49:39Z</time>
      </trkpt>
      <trkpt lat="41.595529022" lon="2.439174272">
        <ele>191.92</ele>
        <time>2013-07-07T08:49:45Z</time>
      </trkpt>
      <trkpt lat="41.595274632" lon="2.438874368">
        <ele>191.44</ele>
        <time>2013-07-07T08:49:54Z</time>
      </trkpt>
      <trkpt lat="41.595146305" lon="2.438498691">
        <ele>190.48</ele>
        <time>2013-07-07T08:50:02Z</time>
      </trkpt>
      <trkpt lat="41.595069610" lon="2.438216388">
        <ele>190.48</ele>
        <time>2013-07-07T08:50:08Z</time>
      </trkpt>
      <trkpt lat="41.595061983" lon="2.437821098">
        <ele>190.00</ele>
        <time>2013-07-07T08:50:16Z</time>
      </trkpt>
      <trkpt lat="41.595010434" lon="2.437417593">
        <ele>189.52</ele>
        <time>2013-07-07T08:50:24Z</time>
      </trkpt>
      <trkpt lat="41.594956203" lon="2.437080557">
        <ele>189.52</ele>
        <time>2013-07-07T08:50:31Z</time>
      </trkpt>
      <trkpt lat="41.594852016" lon="2.436893305">
        <ele>188.56</ele>
        <time>2013-07-07T08:50:36Z</time>
      </trkpt>
      <trkpt lat="41.594680522" lon="2.436609829">
        <ele>188.08</ele>
        <time>2013-07-07T08:50:43Z</time>
      </trkpt>
      <trkpt lat="41.594603660" lon="2.436380081">
        <ele>188.08</ele>
        <time>2013-07-07T08:50:49Z</time>
      </trkpt>
      <trkpt lat="41.594488660" lon="2.436137090">
        <ele>188.08</ele>
        <time>2013-07-07T08:50:55Z</time>
      </trkpt>
      <trkpt lat="41.594375253" lon="2.435986634">
        <ele>188.08</ele>
        <time>2013-07-07T08:51:00Z</time>
      </trkpt>
      <trkpt lat="41.594275928" lon="2.435726963">
        <ele>187.59</ele>
        <time>2013-07-07T08:51:06Z</time>
      </trkpt>
      <trkpt lat="41.594218512" lon="2.435593858">
        <ele>187.11</ele>
        <time>2013-07-07T08:51:09Z</time>
      </trkpt>
      <trkpt lat="41.594106613" lon="2.435559744">
        <ele>186.63</ele>
        <time>2013-07-07T08:51:13Z</time>
      </trkpt>
      <trkpt lat="41.593924977" lon="2.435491935">
        <ele>186.63</ele>
        <time>2013-07-07T08:51:20Z</time>
      </trkpt>
      <trkpt lat="41.593726410" lon="2.435452456">
        <ele>186.63</ele>
        <time>2013-07-07T08:51:28Z</time>
      </trkpt>
      <trkpt lat="41.593449472" lon="2.435381042">
        <ele>188.56</ele>
        <time>2013-07-07T08:51:37Z</time>
      </trkpt>
      <trkpt lat="41.593209163" lon="2.435279118">
        <ele>189.04</ele>
        <time>2013-07-07T08:51:45Z</time>
      </trkpt>
      <trkpt lat="41.592975978" lon="2.435220026">
        <ele>190.00</ele>
        <time>2013-07-07T08:51:53Z</time>
      </trkpt>
      <trkpt lat="41.592780848" lon="2.435210973">
        <ele>190.48</ele>
        <time>2013-07-07T08:52:00Z</time>
      </trkpt>
      <trkpt lat="41.592597116" lon="2.435297977">
        <ele>191.44</ele>
        <time>2013-07-07T08:52:07Z</time>
      </trkpt>
      <trkpt lat="41.592426377" lon="2.435447427">
        <ele>192.88</ele>
        <time>2013-07-07T08:52:15Z</time>
      </trkpt>
      <trkpt lat="41.592308947" lon="2.435596038">
        <ele>192.88</ele>
        <time>2013-07-07T08:52:21Z</time>
      </trkpt>
      <trkpt lat="41.592158408" lon="2.435812626">
        <ele>192.88</ele>
        <time>2013-07-07T08:52:29Z</time>
      </trkpt>
      <trkpt lat="41.591988339" lon="2.436149160">
        <ele>192.88</ele>
        <time>2013-07-07T08:52:38Z</time>
      </trkpt>
      <trkpt lat="41.591854647" lon="2.436471025">
        <ele>191.92</ele>
        <time>2013-07-07T08:52:45Z</time>
      </trkpt>
      <trkpt lat="41.591686674" lon="2.436827675">
        <ele>190.96</ele>
        <time>2013-07-07T08:52:53Z</time>
      </trkpt>
      <trkpt lat="41.591635461" lon="2.437051891">
        <ele>190.00</ele>
        <time>2013-07-07T08:52:58Z</time>
      </trkpt>
      <trkpt lat="41.591591372" lon="2.437165549">
        <ele>189.52</ele>
        <time>2013-07-07T08:53:05Z</time>
      </trkpt>
      <trkpt lat="41.591574524" lon="2.437189689">
        <ele>189.52</ele>
        <time>2013-07-07T08:53:13Z</time>
      </trkpt>
      <trkpt lat="41.591553318" lon="2.437219361">
        <ele>188.56</ele>
        <time>2013-07-07T08:53:22Z</time>
      </trkpt>
      <trkpt lat="41.591535632" lon="2.437227994">
        <ele>188.56</ele>
        <time>2013-07-07T08:53:27Z</time>
      </trkpt>
      <trkpt lat="41.591473690" lon="2.437241154">
        <ele>187.11</ele>
        <time>2013-07-07T08:53:31Z</time>
      </trkpt>
      <trkpt lat="41.591333209" lon="2.437246434">
        <ele>186.63</ele>
        <time>2013-07-07T08:53:38Z</time>
      </trkpt>
      <trkpt lat="41.591197255" lon="2.437154066">
        <ele>186.63</ele>
        <time>2013-07-07T08:53:45Z</time>
      </trkpt>
      <trkpt lat="41.591028695" lon="2.436948625">
        <ele>185.19</ele>
        <time>2013-07-07T08:53:53Z</time>
      </trkpt>
      <trkpt lat="41.590834821" lon="2.436758524">
        <ele>184.71</ele>
        <time>2013-07-07T08:54:00Z</time>
      </trkpt>
      <trkpt lat="41.590781177" lon="2.436624162">
        <ele>184.71</ele>
        <time>2013-07-07T08:54:05Z</time>
      </trkpt>
      <trkpt lat="41.590775645" lon="2.436415788">
        <ele>186.15</ele>
        <time>2013-07-07T08:54:12Z</time>
      </trkpt>
      <trkpt lat="41.590749913" lon="2.436201044">
        <ele>186.15</ele>
        <time>2013-07-07T08:54:18Z</time>
      </trkpt>
      <trkpt lat="41.590769610" lon="2.435989484">
        <ele>186.63</ele>
        <time>2013-07-07T08:54:24Z</time>
      </trkpt>
      <trkpt lat="41.590758546" lon="2.435764682">
        <ele>188.08</ele>
        <time>2013-07-07T08:54:31Z</time>
      </trkpt>
      <trkpt lat="41.590757037" lon="2.435506687">
        <ele>188.08</ele>
        <time>2013-07-07T08:54:37Z</time>
      </trkpt>
      <trkpt lat="41.590773298" lon="2.435231341">
        <ele>188.08</ele>
        <time>2013-07-07T08:54:43Z</time>
      </trkpt>
      <trkpt lat="41.590769945" lon="2.435142325">
        <ele>186.63</ele>
        <time>2013-07-07T08:54:45Z</time>
      </trkpt>
      <trkpt lat="41.590761563" lon="2.434910398">
        <ele>186.15</ele>
        <time>2013-07-07T08:54:50Z</time>
      </trkpt>
      <trkpt lat="41.590757875" lon="2.434547797">
        <ele>185.19</ele>
        <time>2013-07-07T08:54:57Z</time>
      </trkpt>
      <trkpt lat="41.590754523" lon="2.434256107">
        <ele>185.19</ele>
        <time>2013-07-07T08:55:03Z</time>
      </trkpt>
      <trkpt lat="41.590717558" lon="2.434024766">
        <ele>184.23</ele>
        <time>2013-07-07T08:55:09Z</time>
      </trkpt>
      <trkpt lat="41.590689479" lon="2.433911359">
        <ele>184.71</ele>
        <time>2013-07-07T08:55:12Z</time>
      </trkpt>
      <trkpt lat="41.590727952" lon="2.433696698">
        <ele>183.75</ele>
        <time>2013-07-07T08:55:17Z</time>
      </trkpt>
      <trkpt lat="41.590869774" lon="2.433237119">
        <ele>183.27</ele>
        <time>2013-07-07T08:55:27Z</time>
      </trkpt>
      <trkpt lat="41.590902128" lon="2.432972921">
        <ele>183.27</ele>
        <time>2013-07-07T08:55:33Z</time>
      </trkpt>
      <trkpt lat="41.590931129" lon="2.432542091">
        <ele>182.79</ele>
        <time>2013-07-07T08:55:41Z</time>
      </trkpt>
      <trkpt lat="41.591007237" lon="2.432188710">
        <ele>182.31</ele>
        <time>2013-07-07T08:55:49Z</time>
      </trkpt>
      <trkpt lat="41.591058702" lon="2.431832228">
        <ele>181.35</ele>
        <time>2013-07-07T08:55:55Z</time>
      </trkpt>
      <trkpt lat="41.591099773" lon="2.431444649">
        <ele>180.87</ele>
        <time>2013-07-07T08:56:02Z</time>
      </trkpt>
      <trkpt lat="41.591099857" lon="2.431220768">
        <ele>180.38</ele>
        <time>2013-07-07T08:56:07Z</time>
      </trkpt>
      <trkpt lat="41.591061887" lon="2.431125969">
        <ele>179.90</ele>
        <time>2013-07-07T08:56:12Z</time>
      </trkpt>
      <trkpt lat="41.591053840" lon="2.431116497">
        <ele>179.90</ele>
        <time>2013-07-07T08:56:13Z</time>
      </trkpt>
      <trkpt lat="41.591026683" lon="2.431041228">
        <ele>179.90</ele>
        <time>2013-07-07T08:56:19Z</time>
      </trkpt>
      <trkpt lat="41.591108993" lon="2.430934023">
        <ele>178.46</ele>
        <time>2013-07-07T08:56:25Z</time>
      </trkpt>
      <trkpt lat="41.591138581" lon="2.430918684">
        <ele>177.98</ele>
        <time>2013-07-07T08:56:26Z</time>
      </trkpt>
      <trkpt lat="41.591217790" lon="2.430868644">
        <ele>177.50</ele>
        <time>2013-07-07T08:56:29Z</time>
      </trkpt>
      <trkpt lat="41.591215024" lon="2.430667395">
        <ele>177.02</ele>
        <time>2013-07-07T08:56:35Z</time>
      </trkpt>
      <trkpt lat="41.591211504" lon="2.430469247">
        <ele>177.02</ele>
        <time>2013-07-07T08:56:40Z</time>
      </trkpt>
      <trkpt lat="41.591318960" lon="2.430364976">
        <ele>177.02</ele>
        <time>2013-07-07T08:56:47Z</time>
      </trkpt>
      <trkpt lat="41.591339077" lon="2.430364389">
        <ele>177.02</ele>
        <time>2013-07-07T08:56:49Z</time>
      </trkpt>
      <trkpt lat="41.591350644" lon="2.430391966">
        <ele>177.02</ele>
        <time>2013-07-07T08:56:55Z</time>
      </trkpt>
      <trkpt lat="41.591228603" lon="2.430404957">
        <ele>177.02</ele>
        <time>2013-07-07T08:57:03Z</time>
      </trkpt>
      <trkpt lat="41.591219802" lon="2.430415686">
        <ele>176.54</ele>
        <time>2013-07-07T08:57:05Z</time>
      </trkpt>
      <trkpt lat="41.591215863" lon="2.430469666">
        <ele>176.54</ele>
        <time>2013-07-07T08:57:08Z</time>
      </trkpt>
      <trkpt lat="41.591181078" lon="2.430491543">
        <ele>176.54</ele>
        <time>2013-07-07T08:57:12Z</time>
      </trkpt>
      <trkpt lat="41.591138749" lon="2.430355420">
        <ele>175.58</ele>
        <time>2013-07-07T08:57:22Z</time>
      </trkpt>
      <trkpt lat="41.591130199" lon="2.430345027">
        <ele>175.58</ele>
        <time>2013-07-07T08:57:33Z</time>
      </trkpt>
      <trkpt lat="41.591139922" lon="2.430374950">
        <ele>175.58</ele>
        <time>2013-07-07T08:57:39Z</time>
      </trkpt>
      <trkpt lat="41.591163392" lon="2.430385260">
        <ele>175.58</ele>
        <time>2013-07-07T08:57:44Z</time>
      </trkpt>
      <trkpt lat="41.591182335" lon="2.430401018">
        <ele>175.58</ele>
        <time>2013-07-07T08:57:50Z</time>
      </trkpt>
      <trkpt lat="41.591217204" lon="2.430405628">
        <ele>177.02</ele>
        <time>2013-07-07T08:57:54Z</time>
      </trkpt>
      <trkpt lat="41.591316278" lon="2.430366568">
        <ele>177.50</ele>
        <time>2013-07-07T08:58:02Z</time>
      </trkpt>
      <trkpt lat="41.591471259" lon="2.430397078">
        <ele>177.50</ele>
        <time>2013-07-07T08:58:09Z</time>
      </trkpt>
      <trkpt lat="41.591678879" lon="2.430466229">
        <ele>177.50</ele>
        <time>2013-07-07T08:58:16Z</time>
      </trkpt>
      <trkpt lat="41.591722968" lon="2.430497829">
        <ele>177.50</ele>
        <time>2013-07-07T08:58:20Z</time>
      </trkpt>
      <trkpt lat="41.591722213" lon="2.430572679">
        <ele>177.50</ele>
        <time>2013-07-07T08:58:24Z</time>
      </trkpt>
      <trkpt lat="41.591628252" lon="2.430834614">
        <ele>177.50</ele>
        <time>2013-07-07T08:58:33Z</time>
      </trkpt>
      <trkpt lat="41.591527586" lon="2.431144744">
        <ele>177.98</ele>
        <time>2013-07-07T08:58:43Z</time>
      </trkpt>
      <trkpt lat="41.591468493" lon="2.431294361">
        <ele>178.94</ele>
        <time>2013-07-07T08:58:50Z</time>
      </trkpt>
      <trkpt lat="41.591450221" lon="2.431344653">
        <ele>178.94</ele>
        <time>2013-07-07T08:58:58Z</time>
      </trkpt>
      <trkpt lat="41.591440581" lon="2.431403577">
        <ele>178.94</ele>
        <time>2013-07-07T08:59:03Z</time>
      </trkpt>
      <trkpt lat="41.591413256" lon="2.431481613">
        <ele>178.94</ele>
        <time>2013-07-07T08:59:07Z</time>
      </trkpt>
      <trkpt lat="41.591437899" lon="2.431618406">
        <ele>179.42</ele>
        <time>2013-07-07T08:59:13Z</time>
      </trkpt>
      <trkpt lat="41.591552983" lon="2.431815799">
        <ele>179.90</ele>
        <time>2013-07-07T08:59:20Z</time>
      </trkpt>
      <trkpt lat="41.591732439" lon="2.432072956">
        <ele>180.87</ele>
        <time>2013-07-07T08:59:28Z</time>
      </trkpt>
      <trkpt lat="41.591961098" lon="2.432276469">
        <ele>181.35</ele>
        <time>2013-07-07T08:59:37Z</time>
      </trkpt>
      <trkpt lat="41.592177686" lon="2.432474533">
        <ele>181.35</ele>
        <time>2013-07-07T08:59:45Z</time>
      </trkpt>
      <trkpt lat="41.592298385" lon="2.432562208">
        <ele>181.83</ele>
        <time>2013-07-07T08:59:50Z</time>
      </trkpt>
      <trkpt lat="41.592548585" lon="2.432635717">
        <ele>183.27</ele>
        <time>2013-07-07T08:59:59Z</time>
      </trkpt>
      <trkpt lat="41.592689820" lon="2.432781395">
        <ele>183.75</ele>
        <time>2013-07-07T09:00:05Z</time>
      </trkpt>
      <trkpt lat="41.592908839" lon="2.432911649">
        <ele>184.23</ele>
        <time>2013-07-07T09:00:13Z</time>
      </trkpt>
      <trkpt lat="41.593175635" lon="2.433058333">
        <ele>184.71</ele>
        <time>2013-07-07T09:00:22Z</time>
      </trkpt>
      <trkpt lat="41.593373616" lon="2.433223205">
        <ele>185.19</ele>
        <time>2013-07-07T09:00:29Z</time>
      </trkpt>
      <trkpt lat="41.593558772" lon="2.433445912">
        <ele>185.19</ele>
        <time>2013-07-07T09:00:37Z</time>
      </trkpt>
      <trkpt lat="41.593734122" lon="2.433705835">
        <ele>186.15</ele>
        <time>2013-07-07T09:00:45Z</time>
      </trkpt>
      <trkpt lat="41.593916931" lon="2.433907839">
        <ele>187.59</ele>
        <time>2013-07-07T09:00:53Z</time>
      </trkpt>
      <trkpt lat="41.593993961" lon="2.433983527">
        <ele>188.56</ele>
        <time>2013-07-07T09:00:57Z</time>
      </trkpt>
      <trkpt lat="41.594040564" lon="2.433938265">
        <ele>189.04</ele>
        <time>2013-07-07T09:01:02Z</time>
      </trkpt>
      <trkpt lat="41.594030506" lon="2.433918735">
        <ele>188.56</ele>
        <time>2013-07-07T09:01:03Z</time>
      </trkpt>
      <trkpt lat="41.593884241" lon="2.433655795">
        <ele>189.52</ele>
        <time>2013-07-07T09:01:12Z</time>
      </trkpt>
      <trkpt lat="41.593777372" lon="2.433468795">
        <ele>189.52</ele>
        <time>2013-07-07T09:01:18Z</time>
      </trkpt>
      <trkpt lat="41.593647620" lon="2.433248853">
        <ele>190.00</ele>
        <time>2013-07-07T09:01:25Z</time>
      </trkpt>
      <trkpt lat="41.593509403" lon="2.433061099">
        <ele>191.44</ele>
        <time>2013-07-07T09:01:32Z</time>
      </trkpt>
      <trkpt lat="41.593365485" lon="2.432858257">
        <ele>192.40</ele>
        <time>2013-07-07T09:01:39Z</time>
      </trkpt>
      <trkpt lat="41.593189717" lon="2.432612918">
        <ele>193.36</ele>
        <time>2013-07-07T09:01:47Z</time>
      </trkpt>
      <trkpt lat="41.593020822" lon="2.432330281">
        <ele>194.80</ele>
        <time>2013-07-07T09:01:56Z</time>
      </trkpt>
      <trkpt lat="41.593008668" lon="2.432060551">
        <ele>196.25</ele>
        <time>2013-07-07T09:02:03Z</time>
      </trkpt>
      <trkpt lat="41.593101791" lon="2.431784200">
        <ele>196.73</ele>
        <time>2013-07-07T09:02:10Z</time>
      </trkpt>
      <trkpt lat="41.593164571" lon="2.431689568">
        <ele>197.21</ele>
        <time>2013-07-07T09:02:14Z</time>
      </trkpt>
      <trkpt lat="41.593282085" lon="2.431453953">
        <ele>197.21</ele>
        <time>2013-07-07T09:02:21Z</time>
      </trkpt>
      <trkpt lat="41.593343692" lon="2.431272820">
        <ele>197.21</ele>
        <time>2013-07-07T09:02:27Z</time>
      </trkpt>
      <trkpt lat="41.593497919" lon="2.430828746">
        <ele>195.28</ele>
        <time>2013-07-07T09:02:36Z</time>
      </trkpt>
      <trkpt lat="41.593631024" lon="2.430414429">
        <ele>194.32</ele>
        <time>2013-07-07T09:02:43Z</time>
      </trkpt>
      <trkpt lat="41.593726913" lon="2.430156266">
        <ele>193.84</ele>
        <time>2013-07-07T09:02:47Z</time>
      </trkpt>
      <trkpt lat="41.593940652" lon="2.429898020">
        <ele>193.36</ele>
        <time>2013-07-07T09:02:52Z</time>
      </trkpt>
      <trkpt lat="41.594188672" lon="2.429918975">
        <ele>191.92</ele>
        <time>2013-07-07T09:02:56Z</time>
      </trkpt>
      <trkpt lat="41.594306019" lon="2.429983348">
        <ele>191.92</ele>
        <time>2013-07-07T09:02:58Z</time>
      </trkpt>
      <trkpt lat="41.594620927" lon="2.430232709">
        <ele>190.48</ele>
        <time>2013-07-07T09:03:04Z</time>
      </trkpt>
      <trkpt lat="41.594942541" lon="2.430282665">
        <ele>190.48</ele>
        <time>2013-07-07T09:03:10Z</time>
      </trkpt>
      <trkpt lat="41.595062066" lon="2.430094659">
        <ele>190.00</ele>
        <time>2013-07-07T09:03:14Z</time>
      </trkpt>
      <trkpt lat="41.595060139" lon="2.429828199">
        <ele>190.00</ele>
        <time>2013-07-07T09:03:19Z</time>
      </trkpt>
      <trkpt lat="41.594955784" lon="2.429563750">
        <ele>190.00</ele>
        <time>2013-07-07T09:03:24Z</time>
      </trkpt>
      <trkpt lat="41.594928040" lon="2.429158066">
        <ele>190.00</ele>
        <time>2013-07-07T09:03:30Z</time>
      </trkpt>
      <trkpt lat="41.595024096" lon="2.428995121">
        <ele>190.00</ele>
        <time>2013-07-07T09:03:33Z</time>
      </trkpt>
      <trkpt lat="41.595442772" lon="2.428632855">
        <ele>189.04</ele>
        <time>2013-07-07T09:03:43Z</time>
      </trkpt>
      <trkpt lat="41.595540422" lon="2.428592958">
        <ele>189.04</ele>
        <time>2013-07-07T09:03:45Z</time>
      </trkpt>
      <trkpt lat="41.595786179" lon="2.428317612">
        <ele>188.08</ele>
        <time>2013-07-07T09:03:52Z</time>
      </trkpt>
      <trkpt lat="41.595816270" lon="2.428042937">
        <ele>188.08</ele>
        <time>2013-07-07T09:03:57Z</time>
      </trkpt>
      <trkpt lat="41.595810319" lon="2.427989628">
        <ele>188.08</ele>
        <time>2013-07-07T09:03:58Z</time>
      </trkpt>
      <trkpt lat="41.595705210" lon="2.427548237">
        <ele>188.08</ele>
        <time>2013-07-07T09:04:06Z</time>
      </trkpt>
      <trkpt lat="41.595661624" lon="2.427387724">
        <ele>188.08</ele>
        <time>2013-07-07T09:04:09Z</time>
      </trkpt>
      <trkpt lat="41.595497590" lon="2.426691020">
        <ele>189.52</ele>
        <time>2013-07-07T09:04:22Z</time>
      </trkpt>
      <trkpt lat="41.595486275" lon="2.426567303">
        <ele>189.52</ele>
        <time>2013-07-07T09:04:24Z</time>
      </trkpt>
      <trkpt lat="41.595506056" lon="2.425979396">
        <ele>190.00</ele>
        <time>2013-07-07T09:04:33Z</time>
      </trkpt>
      <trkpt lat="41.595533632" lon="2.425712098">
        <ele>190.00</ele>
        <time>2013-07-07T09:04:37Z</time>
      </trkpt>
      <trkpt lat="41.595687105" lon="2.425114887">
        <ele>190.00</ele>
        <time>2013-07-07T09:04:46Z</time>
      </trkpt>
      <trkpt lat="41.595742928" lon="2.424925707">
        <ele>188.56</ele>
        <time>2013-07-07T09:04:49Z</time>
      </trkpt>
      <trkpt lat="41.595889109" lon="2.424606692">
        <ele>188.08</ele>
        <time>2013-07-07T09:04:55Z</time>
      </trkpt>
      <trkpt lat="41.596058172" lon="2.424331766">
        <ele>186.15</ele>
        <time>2013-07-07T09:05:01Z</time>
      </trkpt>
      <trkpt lat="41.596018442" lon="2.424255574">
        <ele>185.19</ele>
        <time>2013-07-07T09:05:05Z</time>
      </trkpt>
      <trkpt lat="41.595954069" lon="2.424277367">
        <ele>184.23</ele>
        <time>2013-07-07T09:05:07Z</time>
      </trkpt>
      <trkpt lat="41.595772600" lon="2.424356576">
        <ele>181.83</ele>
        <time>2013-07-07T09:05:12Z</time>
      </trkpt>
      <trkpt lat="41.595512761" lon="2.424543576">
        <ele>177.98</ele>
        <time>2013-07-07T09:05:18Z</time>
      </trkpt>
      <trkpt lat="41.595467918" lon="2.424570482">
        <ele>177.02</ele>
        <time>2013-07-07T09:05:19Z</time>
      </trkpt>
      <trkpt lat="41.595335065" lon="2.424720267">
        <ele>176.06</ele>
        <time>2013-07-07T09:05:22Z</time>
      </trkpt>
      <trkpt lat="41.595041782" lon="2.425191581">
        <ele>173.66</ele>
        <time>2013-07-07T09:05:29Z</time>
      </trkpt>
      <trkpt lat="41.594863415" lon="2.425288895">
        <ele>172.69</ele>
        <time>2013-07-07T09:05:34Z</time>
      </trkpt>
      <trkpt lat="41.594729137" lon="2.425240364">
        <ele>172.69</ele>
        <time>2013-07-07T09:05:38Z</time>
      </trkpt>
      <trkpt lat="41.594661411" lon="2.424929563">
        <ele>171.73</ele>
        <time>2013-07-07T09:05:44Z</time>
      </trkpt>
      <trkpt lat="41.594618664" lon="2.424481215">
        <ele>170.77</ele>
        <time>2013-07-07T09:05:52Z</time>
      </trkpt>
      <trkpt lat="41.594607516" lon="2.424033286">
        <ele>170.77</ele>
        <time>2013-07-07T09:06:00Z</time>
      </trkpt>
      <trkpt lat="41.594592345" lon="2.423687616">
        <ele>170.77</ele>
        <time>2013-07-07T09:06:07Z</time>
      </trkpt>
      <trkpt lat="41.594464856" lon="2.423454432">
        <ele>170.77</ele>
        <time>2013-07-07T09:06:13Z</time>
      </trkpt>
      <trkpt lat="41.594331081" lon="2.423287129">
        <ele>170.77</ele>
        <time>2013-07-07T09:06:20Z</time>
      </trkpt>
      <trkpt lat="41.594244747" lon="2.423013628">
        <ele>170.77</ele>
        <time>2013-07-07T09:06:28Z</time>
      </trkpt>
      <trkpt lat="41.594193282" lon="2.422747502">
        <ele>172.21</ele>
        <time>2013-07-07T09:06:35Z</time>
      </trkpt>
      <trkpt lat="41.594134357" lon="2.422590090">
        <ele>173.66</ele>
        <time>2013-07-07T09:06:41Z</time>
      </trkpt>
      <trkpt lat="41.594107368" lon="2.422429912">
        <ele>175.58</ele>
        <time>2013-07-07T09:06:48Z</time>
      </trkpt>
      <trkpt lat="41.594052718" lon="2.422227824">
        <ele>178.46</ele>
        <time>2013-07-07T09:06:56Z</time>
      </trkpt>
      <trkpt lat="41.593965714" lon="2.421987431">
        <ele>180.87</ele>
        <time>2013-07-07T09:07:05Z</time>
      </trkpt>
      <trkpt lat="41.593947692" lon="2.421912413">
        <ele>181.83</ele>
        <time>2013-07-07T09:07:08Z</time>
      </trkpt>
      <trkpt lat="41.593936461" lon="2.421770843">
        <ele>182.31</ele>
        <time>2013-07-07T09:07:13Z</time>
      </trkpt>
      <trkpt lat="41.593914584" lon="2.421693981">
        <ele>183.27</ele>
        <time>2013-07-07T09:07:16Z</time>
      </trkpt>
      <trkpt lat="41.593890612" lon="2.421635475">
        <ele>183.75</ele>
        <time>2013-07-07T09:07:19Z</time>
      </trkpt>
      <trkpt lat="41.593875273" lon="2.421588285">
        <ele>184.23</ele>
        <time>2013-07-07T09:07:21Z</time>
      </trkpt>
      <trkpt lat="41.593836045" lon="2.421499604">
        <ele>185.19</ele>
        <time>2013-07-07T09:07:26Z</time>
      </trkpt>
      <trkpt lat="41.593801931" lon="2.421314951">
        <ele>187.59</ele>
        <time>2013-07-07T09:07:35Z</time>
      </trkpt>
      <trkpt lat="41.593803691" lon="2.421274634">
        <ele>188.08</ele>
        <time>2013-07-07T09:07:37Z</time>
      </trkpt>
      <trkpt lat="41.593792543" lon="2.421110433">
        <ele>189.52</ele>
        <time>2013-07-07T09:07:45Z</time>
      </trkpt>
      <trkpt lat="41.593717274" lon="2.421000043">
        <ele>190.96</ele>
        <time>2013-07-07T09:07:53Z</time>
      </trkpt>
      <trkpt lat="41.593706210" lon="2.420990823">
        <ele>191.44</ele>
        <time>2013-07-07T09:07:54Z</time>
      </trkpt>
      <trkpt lat="41.593636724" lon="2.420862245">
        <ele>192.40</ele>
        <time>2013-07-07T09:08:02Z</time>
      </trkpt>
      <trkpt lat="41.593621385" lon="2.420792088">
        <ele>193.84</ele>
        <time>2013-07-07T09:08:06Z</time>
      </trkpt>
      <trkpt lat="41.593601352" lon="2.420641549">
        <ele>194.32</ele>
        <time>2013-07-07T09:08:14Z</time>
      </trkpt>
      <trkpt lat="41.593592551" lon="2.420477599">
        <ele>195.77</ele>
        <time>2013-07-07T09:08:21Z</time>
      </trkpt>
      <trkpt lat="41.593569752" lon="2.420322785">
        <ele>197.21</ele>
        <time>2013-07-07T09:08:28Z</time>
      </trkpt>
      <trkpt lat="41.593511079" lon="2.420189094">
        <ele>197.21</ele>
        <time>2013-07-07T09:08:36Z</time>
      </trkpt>
      <trkpt lat="41.593435390" lon="2.419958759">
        <ele>198.17</ele>
        <time>2013-07-07T09:08:45Z</time>
      </trkpt>
      <trkpt lat="41.593395074" lon="2.419805538">
        <ele>199.13</ele>
        <time>2013-07-07T09:08:53Z</time>
      </trkpt>
      <trkpt lat="41.593391805" lon="2.419786260">
        <ele>199.61</ele>
        <time>2013-07-07T09:08:54Z</time>
      </trkpt>
      <trkpt lat="41.593360456" lon="2.419617280">
        <ele>201.53</ele>
        <time>2013-07-07T09:09:04Z</time>
      </trkpt>
      <trkpt lat="41.593365486" lon="2.419404883">
        <ele>201.53</ele>
        <time>2013-07-07T09:09:12Z</time>
      </trkpt>
      <trkpt lat="41.593395493" lon="2.419246884">
        <ele>201.53</ele>
        <time>2013-07-07T09:09:19Z</time>
      </trkpt>
      <trkpt lat="41.593452322" lon="2.419088718">
        <ele>200.09</ele>
        <time>2013-07-07T09:09:24Z</time>
      </trkpt>
      <trkpt lat="41.593463973" lon="2.419046808">
        <ele>200.09</ele>
        <time>2013-07-07T09:09:25Z</time>
      </trkpt>
      <trkpt lat="41.593532034" lon="2.418833740">
        <ele>198.65</ele>
        <time>2013-07-07T09:09:31Z</time>
      </trkpt>
      <trkpt lat="41.593532453" lon="2.418604579">
        <ele>197.69</ele>
        <time>2013-07-07T09:09:36Z</time>
      </trkpt>
      <trkpt lat="41.593480318" lon="2.418247091">
        <ele>194.80</ele>
        <time>2013-07-07T09:09:42Z</time>
      </trkpt>
      <trkpt lat="41.593518791" lon="2.417938469">
        <ele>192.88</ele>
        <time>2013-07-07T09:09:48Z</time>
      </trkpt>
      <trkpt lat="41.593566148" lon="2.417776866">
        <ele>191.92</ele>
        <time>2013-07-07T09:09:51Z</time>
      </trkpt>
      <trkpt lat="41.593541086" lon="2.417409739">
        <ele>191.44</ele>
        <time>2013-07-07T09:09:57Z</time>
      </trkpt>
      <trkpt lat="41.593462716" lon="2.417248806">
        <ele>190.48</ele>
        <time>2013-07-07T09:10:00Z</time>
      </trkpt>
      <trkpt lat="41.593419800" lon="2.417140260">
        <ele>190.48</ele>
        <time>2013-07-07T09:10:02Z</time>
      </trkpt>
      <trkpt lat="41.593382836" lon="2.416864831">
        <ele>190.00</ele>
        <time>2013-07-07T09:10:07Z</time>
      </trkpt>
      <trkpt lat="41.593473864" lon="2.416529303">
        <ele>189.04</ele>
        <time>2013-07-07T09:10:15Z</time>
      </trkpt>
      <trkpt lat="41.593482581" lon="2.416248594">
        <ele>189.04</ele>
        <time>2013-07-07T09:10:22Z</time>
      </trkpt>
      <trkpt lat="41.593481240" lon="2.415880544">
        <ele>190.00</ele>
        <time>2013-07-07T09:10:32Z</time>
      </trkpt>
      <trkpt lat="41.593535973" lon="2.415546274">
        <ele>190.00</ele>
        <time>2013-07-07T09:10:40Z</time>
      </trkpt>
      <trkpt lat="41.593575201" lon="2.415305462">
        <ele>188.56</ele>
        <time>2013-07-07T09:10:45Z</time>
      </trkpt>
      <trkpt lat="41.593548546" lon="2.415027686">
        <ele>188.56</ele>
        <time>2013-07-07T09:10:51Z</time>
      </trkpt>
      <trkpt lat="41.593541925" lon="2.414737923">
        <ele>187.11</ele>
        <time>2013-07-07T09:10:56Z</time>
      </trkpt>
      <trkpt lat="41.593530106" lon="2.414553186">
        <ele>187.11</ele>
        <time>2013-07-07T09:10:59Z</time>
      </trkpt>
      <trkpt lat="41.593532537" lon="2.414436007">
        <ele>186.15</ele>
        <time>2013-07-07T09:11:01Z</time>
      </trkpt>
      <trkpt lat="41.593504793" lon="2.414120261">
        <ele>184.23</ele>
        <time>2013-07-07T09:11:08Z</time>
      </trkpt>
      <trkpt lat="41.593445700" lon="2.413762102">
        <ele>182.31</ele>
        <time>2013-07-07T09:11:15Z</time>
      </trkpt>
      <trkpt lat="41.593421728" lon="2.413559679">
        <ele>181.35</ele>
        <time>2013-07-07T09:11:18Z</time>
      </trkpt>
      <trkpt lat="41.593414603" lon="2.413270671">
        <ele>180.87</ele>
        <time>2013-07-07T09:11:22Z</time>
      </trkpt>
      <trkpt lat="41.593477887" lon="2.412705060">
        <ele>177.50</ele>
        <time>2013-07-07T09:11:29Z</time>
      </trkpt>
      <trkpt lat="41.593577380" lon="2.412190998">
        <ele>175.10</ele>
        <time>2013-07-07T09:11:36Z</time>
      </trkpt>
      <trkpt lat="41.593646615" lon="2.411876341">
        <ele>173.17</ele>
        <time>2013-07-07T09:11:40Z</time>
      </trkpt>
      <trkpt lat="41.593667569" lon="2.411804006">
        <ele>172.69</ele>
        <time>2013-07-07T09:11:41Z</time>
      </trkpt>
      <trkpt lat="41.593748455" lon="2.411637038">
        <ele>170.77</ele>
        <time>2013-07-07T09:11:44Z</time>
      </trkpt>
      <trkpt lat="41.593812325" lon="2.411510974">
        <ele>168.85</ele>
        <time>2013-07-07T09:11:47Z</time>
      </trkpt>
      <trkpt lat="41.593837973" lon="2.411418438">
        <ele>168.85</ele>
        <time>2013-07-07T09:11:49Z</time>
      </trkpt>
      <trkpt lat="41.593857671" lon="2.410979562">
        <ele>164.52</ele>
        <time>2013-07-07T09:11:55Z</time>
      </trkpt>
      <trkpt lat="41.593882817" lon="2.410618972">
        <ele>160.68</ele>
        <time>2013-07-07T09:11:59Z</time>
      </trkpt>
      <trkpt lat="41.593895054" lon="2.410365671">
        <ele>157.31</ele>
        <time>2013-07-07T09:12:02Z</time>
      </trkpt>
      <trkpt lat="41.593904861" lon="2.410085296">
        <ele>154.43</ele>
        <time>2013-07-07T09:12:06Z</time>
      </trkpt>
      <trkpt lat="41.593915338" lon="2.409805425">
        <ele>151.54</ele>
        <time>2013-07-07T09:12:11Z</time>
      </trkpt>
      <trkpt lat="41.593929839" lon="2.409389347">
        <ele>148.66</ele>
        <time>2013-07-07T09:12:18Z</time>
      </trkpt>
      <trkpt lat="41.593966887" lon="2.409027500">
        <ele>145.78</ele>
        <time>2013-07-07T09:12:25Z</time>
      </trkpt>
      <trkpt lat="41.593977867" lon="2.408927085">
        <ele>145.30</ele>
        <time>2013-07-07T09:12:30Z</time>
      </trkpt>
      <trkpt lat="41.593989099" lon="2.408920379">
        <ele>145.30</ele>
        <time>2013-07-07T09:12:38Z</time>
      </trkpt>
      <trkpt lat="41.593995134" lon="2.408926917">
        <ele>145.30</ele>
        <time>2013-07-07T09:12:53Z</time>
      </trkpt>
      <trkpt lat="41.593994631" lon="2.408931946">
        <ele>145.30</ele>
        <time>2013-07-07T09:13:03Z</time>
      </trkpt>
      <trkpt lat="41.594005947" lon="2.408931527">
        <ele>145.30</ele>
        <time>2013-07-07T09:13:05Z</time>
      </trkpt>
      <trkpt lat="41.594063866" lon="2.408939742">
        <ele>145.30</ele>
        <time>2013-07-07T09:13:09Z</time>
      </trkpt>
      <trkpt lat="41.594246926" lon="2.408950890">
        <ele>145.30</ele>
        <time>2013-07-07T09:13:16Z</time>
      </trkpt>
      <trkpt lat="41.594467287" lon="2.408979137">
        <ele>145.30</ele>
        <time>2013-07-07T09:13:24Z</time>
      </trkpt>
      <trkpt lat="41.594540545" lon="2.408985842">
        <ele>145.30</ele>
        <time>2013-07-07T09:13:27Z</time>
      </trkpt>
      <trkpt lat="41.594582370" lon="2.408800602">
        <ele>145.30</ele>
        <time>2013-07-07T09:13:33Z</time>
      </trkpt>
      <trkpt lat="41.594607013" lon="2.408475133">
        <ele>144.34</ele>
        <time>2013-07-07T09:13:40Z</time>
      </trkpt>
      <trkpt lat="41.594590082" lon="2.408316631">
        <ele>144.34</ele>
        <time>2013-07-07T09:13:45Z</time>
      </trkpt>
      <trkpt lat="41.594536940" lon="2.408274219">
        <ele>144.34</ele>
        <time>2013-07-07T09:13:47Z</time>
      </trkpt>
      <trkpt lat="41.594334182" lon="2.408202972">
        <ele>144.34</ele>
        <time>2013-07-07T09:13:54Z</time>
      </trkpt>
      <trkpt lat="41.594034697" lon="2.408177827">
        <ele>144.34</ele>
        <time>2013-07-07T09:14:04Z</time>
      </trkpt>
      <trkpt lat="41.594010892" lon="2.408166260">
        <ele>144.34</ele>
        <time>2013-07-07T09:14:05Z</time>
      </trkpt>
      <trkpt lat="41.593981220" lon="2.408053439">
        <ele>143.85</ele>
        <time>2013-07-07T09:14:09Z</time>
      </trkpt>
      <trkpt lat="41.593979208" lon="2.407798797">
        <ele>143.37</ele>
        <time>2013-07-07T09:14:17Z</time>
      </trkpt>
      <trkpt lat="41.593947525" lon="2.407510124">
        <ele>142.89</ele>
        <time>2013-07-07T09:14:25Z</time>
      </trkpt>
      <trkpt lat="41.593913997" lon="2.407265792">
        <ele>142.89</ele>
        <time>2013-07-07T09:14:32Z</time>
      </trkpt>
      <trkpt lat="41.593878793" lon="2.406928923">
        <ele>142.89</ele>
        <time>2013-07-07T09:14:42Z</time>
      </trkpt>
      <trkpt lat="41.593839231" lon="2.406753574">
        <ele>142.89</ele>
        <time>2013-07-07T09:14:49Z</time>
      </trkpt>
      <trkpt lat="41.593815594" lon="2.406685680">
        <ele>142.89</ele>
        <time>2013-07-07T09:14:55Z</time>
      </trkpt>
      <trkpt lat="41.593812325" lon="2.406659445">
        <ele>142.89</ele>
        <time>2013-07-07T09:15:15Z</time>
      </trkpt>
      <trkpt lat="41.593803021" lon="2.406672521">
        <ele>142.89</ele>
        <time>2013-07-07T09:15:30Z</time>
      </trkpt>
      <trkpt lat="41.593786006" lon="2.406673443">
        <ele>142.89</ele>
        <time>2013-07-07T09:15:43Z</time>
      </trkpt>
      <trkpt lat="41.593754825" lon="2.406603454">
        <ele>142.89</ele>
        <time>2013-07-07T09:15:47Z</time>
      </trkpt>
      <trkpt lat="41.593731020" lon="2.406414609">
        <ele>140.97</ele>
        <time>2013-07-07T09:15:52Z</time>
      </trkpt>
      <trkpt lat="41.593728925" lon="2.405947235">
        <ele>140.01</ele>
        <time>2013-07-07T09:16:00Z</time>
      </trkpt>
      <trkpt lat="41.593729763" lon="2.405903900">
        <ele>140.01</ele>
        <time>2013-07-07T09:16:01Z</time>
      </trkpt>
      <trkpt lat="41.593641250" lon="2.405854866">
        <ele>139.53</ele>
        <time>2013-07-07T09:16:05Z</time>
      </trkpt>
      <trkpt lat="41.593379148" lon="2.405779010">
        <ele>139.53</ele>
        <time>2013-07-07T09:16:13Z</time>
      </trkpt>
      <trkpt lat="41.593154764" lon="2.405653700">
        <ele>138.57</ele>
        <time>2013-07-07T09:16:20Z</time>
      </trkpt>
      <trkpt lat="41.592977236" lon="2.405414648">
        <ele>138.09</ele>
        <time>2013-07-07T09:16:27Z</time>
      </trkpt>
      <trkpt lat="41.592830720" lon="2.405056993">
        <ele>137.61</ele>
        <time>2013-07-07T09:16:35Z</time>
      </trkpt>
      <trkpt lat="41.592823344" lon="2.405024052">
        <ele>137.13</ele>
        <time>2013-07-07T09:16:36Z</time>
      </trkpt>
      <trkpt lat="41.592881934" lon="2.404820623">
        <ele>136.64</ele>
        <time>2013-07-07T09:16:43Z</time>
      </trkpt>
      <trkpt lat="41.592921748" lon="2.404760860">
        <ele>136.64</ele>
        <time>2013-07-07T09:16:46Z</time>
      </trkpt>
      <trkpt lat="41.592928621" lon="2.404510744">
        <ele>136.64</ele>
        <time>2013-07-07T09:16:51Z</time>
      </trkpt>
      <trkpt lat="41.592990395" lon="2.404277643">
        <ele>136.16</ele>
        <time>2013-07-07T09:16:55Z</time>
      </trkpt>
      <trkpt lat="41.592969105" lon="2.403759977">
        <ele>135.68</ele>
        <time>2013-07-07T09:17:04Z</time>
      </trkpt>
      <trkpt lat="41.592950162" lon="2.403456384">
        <ele>135.20</ele>
        <time>2013-07-07T09:17:09Z</time>
      </trkpt>
      <trkpt lat="41.592949492" lon="2.403340798">
        <ele>135.20</ele>
        <time>2013-07-07T09:17:11Z</time>
      </trkpt>
      <trkpt lat="41.592886795" lon="2.403081546">
        <ele>135.20</ele>
        <time>2013-07-07T09:17:16Z</time>
      </trkpt>
      <trkpt lat="41.592775819" lon="2.402849786">
        <ele>135.20</ele>
        <time>2013-07-07T09:17:21Z</time>
      </trkpt>
      <trkpt lat="41.592683115" lon="2.402662031">
        <ele>134.24</ele>
        <time>2013-07-07T09:17:25Z</time>
      </trkpt>
      <trkpt lat="41.592622262" lon="2.402571172">
        <ele>134.24</ele>
        <time>2013-07-07T09:17:27Z</time>
      </trkpt>
      <trkpt lat="41.592505502" lon="2.402384255">
        <ele>133.76</ele>
        <time>2013-07-07T09:17:31Z</time>
      </trkpt>
      <trkpt lat="41.592454121" lon="2.402287109">
        <ele>133.76</ele>
        <time>2013-07-07T09:17:33Z</time>
      </trkpt>
      <trkpt lat="41.592307522" lon="2.402072113">
        <ele>133.76</ele>
        <time>2013-07-07T09:17:38Z</time>
      </trkpt>
      <trkpt lat="41.592215153" lon="2.401957197">
        <ele>133.76</ele>
        <time>2013-07-07T09:17:41Z</time>
      </trkpt>
      <trkpt lat="41.592071571" lon="2.401744129">
        <ele>132.80</ele>
        <time>2013-07-07T09:17:46Z</time>
      </trkpt>
      <trkpt lat="41.591982471" lon="2.401623765">
        <ele>132.80</ele>
        <time>2013-07-07T09:17:49Z</time>
      </trkpt>
      <trkpt lat="41.591805446" lon="2.401345570">
        <ele>132.32</ele>
        <time>2013-07-07T09:17:55Z</time>
      </trkpt>
      <trkpt lat="41.591730009" lon="2.401190924">
        <ele>131.84</ele>
        <time>2013-07-07T09:17:58Z</time>
      </trkpt>
      <trkpt lat="41.591652308" lon="2.400976012">
        <ele>131.84</ele>
        <time>2013-07-07T09:18:03Z</time>
      </trkpt>
      <trkpt lat="41.591618781" lon="2.400929241">
        <ele>131.84</ele>
        <time>2013-07-07T09:18:05Z</time>
      </trkpt>
      <trkpt lat="41.591513755" lon="2.400719525">
        <ele>131.84</ele>
        <time>2013-07-07T09:18:11Z</time>
      </trkpt>
      <trkpt lat="41.591425829" lon="2.400492292">
        <ele>131.84</ele>
        <time>2013-07-07T09:18:17Z</time>
      </trkpt>
      <trkpt lat="41.591316529" lon="2.400256425">
        <ele>131.84</ele>
        <time>2013-07-07T09:18:23Z</time>
      </trkpt>
      <trkpt lat="41.591163895" lon="2.399896506">
        <ele>130.88</ele>
        <time>2013-07-07T09:18:31Z</time>
      </trkpt>
      <trkpt lat="41.591021151" lon="2.399626358">
        <ele>130.40</ele>
        <time>2013-07-07T09:18:37Z</time>
      </trkpt>
      <trkpt lat="41.590950743" lon="2.399503395">
        <ele>130.40</ele>
        <time>2013-07-07T09:18:40Z</time>
      </trkpt>
      <trkpt lat="41.590817303" lon="2.399273731">
        <ele>129.92</ele>
        <time>2013-07-07T09:18:45Z</time>
      </trkpt>
      <trkpt lat="41.590527205" lon="2.398847846">
        <ele>129.43</ele>
        <time>2013-07-07T09:18:55Z</time>
      </trkpt>
      <trkpt lat="41.590410697" lon="2.398654811">
        <ele>129.43</ele>
        <time>2013-07-07T09:19:00Z</time>
      </trkpt>
      <trkpt lat="41.590332159" lon="2.398526065">
        <ele>129.43</ele>
        <time>2013-07-07T09:19:03Z</time>
      </trkpt>
      <trkpt lat="41.590041307" lon="2.398158854">
        <ele>129.43</ele>
        <time>2013-07-07T09:19:12Z</time>
      </trkpt>
      <trkpt lat="41.589933767" lon="2.398038574">
        <ele>129.43</ele>
        <time>2013-07-07T09:19:15Z</time>
      </trkpt>
      <trkpt lat="41.589736624" lon="2.397763060">
        <ele>128.95</ele>
        <time>2013-07-07T09:19:21Z</time>
      </trkpt>
      <trkpt lat="41.589533279" lon="2.397479501">
        <ele>128.47</ele>
        <time>2013-07-07T09:19:27Z</time>
      </trkpt>
      <trkpt lat="41.589467062" lon="2.397376822">
        <ele>128.47</ele>
        <time>2013-07-07T09:19:29Z</time>
      </trkpt>
      <trkpt lat="41.589318367" lon="2.397144225">
        <ele>127.51</ele>
        <time>2013-07-07T09:19:34Z</time>
      </trkpt>
      <trkpt lat="41.589282325" lon="2.397072224">
        <ele>127.03</ele>
        <time>2013-07-07T09:19:36Z</time>
      </trkpt>
      <trkpt lat="41.589113178" lon="2.396775337">
        <ele>127.03</ele>
        <time>2013-07-07T09:19:44Z</time>
      </trkpt>
      <trkpt lat="41.589046039" lon="2.396593534">
        <ele>127.03</ele>
        <time>2013-07-07T09:19:49Z</time>
      </trkpt>
      <trkpt lat="41.588906229" lon="2.396340987">
        <ele>127.03</ele>
        <time>2013-07-07T09:19:56Z</time>
      </trkpt>
      <trkpt lat="41.588786033" lon="2.396168403">
        <ele>126.55</ele>
        <time>2013-07-07T09:20:00Z</time>
      </trkpt>
      <trkpt lat="41.588728952" lon="2.396054410">
        <ele>126.07</ele>
        <time>2013-07-07T09:20:02Z</time>
      </trkpt>
      <trkpt lat="41.588606157" lon="2.395888448">
        <ele>125.11</ele>
        <time>2013-07-07T09:20:06Z</time>
      </trkpt>
      <trkpt lat="41.588429215" lon="2.395678984">
        <ele>123.67</ele>
        <time>2013-07-07T09:20:13Z</time>
      </trkpt>
      <trkpt lat="41.588303403" lon="2.395587118">
        <ele>123.67</ele>
        <time>2013-07-07T09:20:18Z</time>
      </trkpt>
      <trkpt lat="41.588128472" lon="2.395527272">
        <ele>123.67</ele>
        <time>2013-07-07T09:20:23Z</time>
      </trkpt>
      <trkpt lat="41.587824377" lon="2.395457367">
        <ele>123.67</ele>
        <time>2013-07-07T09:20:31Z</time>
      </trkpt>
      <trkpt lat="41.587638131" lon="2.395568427">
        <ele>123.19</ele>
        <time>2013-07-07T09:20:37Z</time>
      </trkpt>
      <trkpt lat="41.587542158" lon="2.395645373">
        <ele>123.19</ele>
        <time>2013-07-07T09:20:40Z</time>
      </trkpt>
      <trkpt lat="41.587248121" lon="2.395783842">
        <ele>122.71</ele>
        <time>2013-07-07T09:20:48Z</time>
      </trkpt>
      <trkpt lat="41.587070509" lon="2.395836648">
        <ele>122.71</ele>
        <time>2013-07-07T09:20:53Z</time>
      </trkpt>
      <trkpt lat="41.587031114" lon="2.395852657">
        <ele>122.71</ele>
        <time>2013-07-07T09:20:54Z</time>
      </trkpt>
      <trkpt lat="41.586822237" lon="2.395901859">
        <ele>122.22</ele>
        <time>2013-07-07T09:20:59Z</time>
      </trkpt>
      <trkpt lat="41.586685779" lon="2.395986348">
        <ele>122.22</ele>
        <time>2013-07-07T09:21:03Z</time>
      </trkpt>
      <trkpt lat="41.586577988" lon="2.396021972">
        <ele>121.74</ele>
        <time>2013-07-07T09:21:06Z</time>
      </trkpt>
      <trkpt lat="41.586346647" lon="2.395953827">
        <ele>121.26</ele>
        <time>2013-07-07T09:21:13Z</time>
      </trkpt>
      <trkpt lat="41.586232234" lon="2.395842347">
        <ele>121.26</ele>
        <time>2013-07-07T09:21:18Z</time>
      </trkpt>
      <trkpt lat="41.586004331" lon="2.395600529">
        <ele>121.26</ele>
        <time>2013-07-07T09:21:26Z</time>
      </trkpt>
      <trkpt lat="41.585785563" lon="2.395338763">
        <ele>121.26</ele>
        <time>2013-07-07T09:21:34Z</time>
      </trkpt>
      <trkpt lat="41.585600071" lon="2.395137513">
        <ele>120.30</ele>
        <time>2013-07-07T09:21:41Z</time>
      </trkpt>
      <trkpt lat="41.585585319" lon="2.395107674">
        <ele>120.30</ele>
        <time>2013-07-07T09:21:45Z</time>
      </trkpt>
      <trkpt lat="41.585591019" lon="2.395107506">
        <ele>120.30</ele>
        <time>2013-07-07T09:21:51Z</time>
      </trkpt>
      <trkpt lat="41.585472080" lon="2.395018825">
        <ele>120.30</ele>
        <time>2013-07-07T09:21:59Z</time>
      </trkpt>
      <trkpt lat="41.585241326" lon="2.394797376">
        <ele>120.30</ele>
        <time>2013-07-07T09:22:08Z</time>
      </trkpt>
      <trkpt lat="41.585096403" lon="2.394627223">
        <ele>120.30</ele>
        <time>2013-07-07T09:22:14Z</time>
      </trkpt>
      <trkpt lat="41.585062959" lon="2.394605598">
        <ele>120.30</ele>
        <time>2013-07-07T09:22:15Z</time>
      </trkpt>
      <trkpt lat="41.584993724" lon="2.394549020">
        <ele>119.82</ele>
        <time>2013-07-07T09:22:17Z</time>
      </trkpt>
      <trkpt lat="41.584731119" lon="2.394419687">
        <ele>119.82</ele>
        <time>2013-07-07T09:22:24Z</time>
      </trkpt>
      <trkpt lat="41.584523416" lon="2.394376017">
        <ele>119.34</ele>
        <time>2013-07-07T09:22:29Z</time>
      </trkpt>
      <trkpt lat="41.584405147" lon="2.394324552">
        <ele>119.34</ele>
        <time>2013-07-07T09:22:32Z</time>
      </trkpt>
      <trkpt lat="41.584084707" lon="2.394243416">
        <ele>118.86</ele>
        <time>2013-07-07T09:22:40Z</time>
      </trkpt>
      <trkpt lat="41.583865353" lon="2.394229250">
        <ele>118.38</ele>
        <time>2013-07-07T09:22:46Z</time>
      </trkpt>
      <trkpt lat="41.583773068" lon="2.394186670">
        <ele>118.38</ele>
        <time>2013-07-07T09:22:52Z</time>
      </trkpt>
      <trkpt lat="41.583769883" lon="2.394195471">
        <ele>117.90</ele>
        <time>2013-07-07T09:22:57Z</time>
      </trkpt>
      <trkpt lat="41.583714143" lon="2.394181641">
        <ele>117.90</ele>
        <time>2013-07-07T09:23:01Z</time>
      </trkpt>
      <trkpt lat="41.583497806" lon="2.394203015">
        <ele>117.90</ele>
        <time>2013-07-07T09:23:08Z</time>
      </trkpt>
      <trkpt lat="41.583307453" lon="2.394207541">
        <ele>117.90</ele>
        <time>2013-07-07T09:23:14Z</time>
      </trkpt>
      <trkpt lat="41.583217180" lon="2.394208966">
        <ele>117.90</ele>
        <time>2013-07-07T09:23:17Z</time>
      </trkpt>
      <trkpt lat="41.583046273" lon="2.394190861">
        <ele>117.42</ele>
        <time>2013-07-07T09:23:23Z</time>
      </trkpt>
      <trkpt lat="41.582863212" lon="2.394223048">
        <ele>117.42</ele>
        <time>2013-07-07T09:23:29Z</time>
      </trkpt>
      <trkpt lat="41.582744525" lon="2.394235117">
        <ele>117.42</ele>
        <time>2013-07-07T09:23:33Z</time>
      </trkpt>
      <trkpt lat="41.582558027" lon="2.394281637">
        <ele>116.94</ele>
        <time>2013-07-07T09:23:40Z</time>
      </trkpt>
      <trkpt lat="41.582438334" lon="2.394327402">
        <ele>116.46</ele>
        <time>2013-07-07T09:23:44Z</time>
      </trkpt>
      <trkpt lat="41.582256698" lon="2.394396721">
        <ele>116.46</ele>
        <time>2013-07-07T09:23:50Z</time>
      </trkpt>
      <trkpt lat="41.582150499" lon="2.394496046">
        <ele>116.46</ele>
        <time>2013-07-07T09:23:55Z</time>
      </trkpt>
      <trkpt lat="41.582038852" lon="2.394675167">
        <ele>116.46</ele>
        <time>2013-07-07T09:24:00Z</time>
      </trkpt>
      <trkpt lat="41.581874986" lon="2.394893013">
        <ele>115.98</ele>
        <time>2013-07-07T09:24:07Z</time>
      </trkpt>
      <trkpt lat="41.581718580" lon="2.395083534">
        <ele>115.50</ele>
        <time>2013-07-07T09:24:13Z</time>
      </trkpt>
      <trkpt lat="41.581484892" lon="2.395328453">
        <ele>115.50</ele>
        <time>2013-07-07T09:24:21Z</time>
      </trkpt>
      <trkpt lat="41.581327480" lon="2.395476310">
        <ele>115.01</ele>
        <time>2013-07-07T09:24:27Z</time>
      </trkpt>
      <trkpt lat="41.581104940" lon="2.395577647">
        <ele>115.01</ele>
        <time>2013-07-07T09:24:34Z</time>
      </trkpt>
      <trkpt lat="41.580996143" lon="2.395598518">
        <ele>116.46</ele>
        <time>2013-07-07T09:24:38Z</time>
      </trkpt>
      <trkpt lat="41.580748374" lon="2.395697340">
        <ele>116.46</ele>
        <time>2013-07-07T09:24:46Z</time>
      </trkpt>
      <trkpt lat="41.580515106" lon="2.395741932">
        <ele>115.01</ele>
        <time>2013-07-07T09:24:52Z</time>
      </trkpt>
      <trkpt lat="41.580411925" lon="2.395809406">
        <ele>115.01</ele>
        <time>2013-07-07T09:24:55Z</time>
      </trkpt>
      <trkpt lat="41.580227439" lon="2.395985846">
        <ele>113.57</ele>
        <time>2013-07-07T09:25:01Z</time>
      </trkpt>
      <trkpt lat="41.580009510" lon="2.395995736">
        <ele>112.61</ele>
        <time>2013-07-07T09:25:09Z</time>
      </trkpt>
      <trkpt lat="41.579882356" lon="2.395957347">
        <ele>112.60</ele>
        <time>2013-07-07T09:25:15Z</time>
      </trkpt>
      <trkpt lat="41.579547834" lon="2.395924658">
        <ele>112.60</ele>
        <time>2013-07-07T09:25:24Z</time>
      </trkpt>
      <trkpt lat="41.579424369" lon="2.395912001">
        <ele>112.10</ele>
        <time>2013-07-07T09:25:27Z</time>
      </trkpt>
      <trkpt lat="41.579146174" lon="2.395893812">
        <ele>112.10</ele>
        <time>2013-07-07T09:25:34Z</time>
      </trkpt>
      <trkpt lat="41.578979877" lon="2.395878306">
        <ele>111.70</ele>
        <time>2013-07-07T09:25:38Z</time>
      </trkpt>
      <trkpt lat="41.578761528" lon="2.395860285">
        <ele>111.70</ele>
        <time>2013-07-07T09:25:43Z</time>
      </trkpt>
      <trkpt lat="41.578517028" lon="2.395878390">
        <ele>111.70</ele>
        <time>2013-07-07T09:25:50Z</time>
      </trkpt>
      <trkpt lat="41.578269929" lon="2.395946618">
        <ele>111.20</ele>
        <time>2013-07-07T09:25:58Z</time>
      </trkpt>
      <trkpt lat="41.578071027" lon="2.395983666">
        <ele>111.20</ele>
        <time>2013-07-07T09:26:06Z</time>
      </trkpt>
      <trkpt lat="41.577906071" lon="2.395958185">
        <ele>111.20</ele>
        <time>2013-07-07T09:26:14Z</time>
      </trkpt>
      <trkpt lat="41.577672719" lon="2.395917198">
        <ele>111.20</ele>
        <time>2013-07-07T09:26:22Z</time>
      </trkpt>
      <trkpt lat="41.577352865" lon="2.395862967">
        <ele>110.70</ele>
        <time>2013-07-07T09:26:31Z</time>
      </trkpt>
      <trkpt lat="41.577150275" lon="2.395862212">
        <ele>110.70</ele>
        <time>2013-07-07T09:26:37Z</time>
      </trkpt>
      <trkpt lat="41.576938716" lon="2.395826338">
        <ele>111.70</ele>
        <time>2013-07-07T09:26:44Z</time>
      </trkpt>
      <trkpt lat="41.576639230" lon="2.395677727">
        <ele>111.70</ele>
        <time>2013-07-07T09:26:53Z</time>
      </trkpt>
      <trkpt lat="41.576339829" lon="2.395473041">
        <ele>111.70</ele>
        <time>2013-07-07T09:27:02Z</time>
      </trkpt>
      <trkpt lat="41.576134556" lon="2.395236671">
        <ele>111.70</ele>
        <time>2013-07-07T09:27:10Z</time>
      </trkpt>
      <trkpt lat="41.576034643" lon="2.395094346">
        <ele>110.20</ele>
        <time>2013-07-07T09:27:14Z</time>
      </trkpt>
      <trkpt lat="41.575862395" lon="2.395029890">
        <ele>109.30</ele>
        <time>2013-07-07T09:27:19Z</time>
      </trkpt>
      <trkpt lat="41.575853091" lon="2.394945651">
        <ele>108.30</ele>
        <time>2013-07-07T09:27:22Z</time>
      </trkpt>
      <trkpt lat="41.575908077" lon="2.394836100">
        <ele>107.80</ele>
        <time>2013-07-07T09:27:26Z</time>
      </trkpt>
      <trkpt lat="41.575992985" lon="2.394578524">
        <ele>107.30</ele>
        <time>2013-07-07T09:27:33Z</time>
      </trkpt>
      <trkpt lat="41.576007905" lon="2.394178372">
        <ele>106.80</ele>
        <time>2013-07-07T09:27:41Z</time>
      </trkpt>
      <trkpt lat="41.576093149" lon="2.393910738">
        <ele>106.40</ele>
        <time>2013-07-07T09:27:48Z</time>
      </trkpt>
      <trkpt lat="41.576190379" lon="2.393556519">
        <ele>105.90</ele>
        <time>2013-07-07T09:27:57Z</time>
      </trkpt>
      <trkpt lat="41.576273192" lon="2.393325597">
        <ele>105.40</ele>
        <time>2013-07-07T09:28:03Z</time>
      </trkpt>
      <trkpt lat="41.576340667" lon="2.393046731">
        <ele>105.40</ele>
        <time>2013-07-07T09:28:11Z</time>
      </trkpt>
      <trkpt lat="41.576375033" lon="2.392833915">
        <ele>104.90</ele>
        <time>2013-07-07T09:28:16Z</time>
      </trkpt>
      <trkpt lat="41.576326585" lon="2.392477600">
        <ele>104.40</ele>
        <time>2013-07-07T09:28:24Z</time>
      </trkpt>
      <trkpt lat="41.576222063" lon="2.392107455">
        <ele>104.00</ele>
        <time>2013-07-07T09:28:32Z</time>
      </trkpt>
      <trkpt lat="41.576011426" lon="2.391808389">
        <ele>103.50</ele>
        <time>2013-07-07T09:28:40Z</time>
      </trkpt>
      <trkpt lat="41.575700960" lon="2.391563302">
        <ele>103.50</ele>
        <time>2013-07-07T09:28:49Z</time>
      </trkpt>
      <trkpt lat="41.575586631" lon="2.391509490">
        <ele>103.50</ele>
        <time>2013-07-07T09:28:52Z</time>
      </trkpt>
      <trkpt lat="41.575348417" lon="2.391460791">
        <ele>103.00</ele>
        <time>2013-07-07T09:28:58Z</time>
      </trkpt>
      <trkpt lat="41.574913312" lon="2.391449308">
        <ele>102.00</ele>
        <time>2013-07-07T09:29:08Z</time>
      </trkpt>
      <trkpt lat="41.574867966" lon="2.391449224">
        <ele>102.00</ele>
        <time>2013-07-07T09:29:09Z</time>
      </trkpt>
      <trkpt lat="41.574550795" lon="2.391466072">
        <ele>101.10</ele>
        <time>2013-07-07T09:29:17Z</time>
      </trkpt>
      <trkpt lat="41.574248376" lon="2.391493397">
        <ele>101.10</ele>
        <time>2013-07-07T09:29:25Z</time>
      </trkpt>
      <trkpt lat="41.574090210" lon="2.391520554">
        <ele>100.60</ele>
        <time>2013-07-07T09:29:29Z</time>
      </trkpt>
      <trkpt lat="41.573893654" lon="2.391528769">
        <ele>100.60</ele>
        <time>2013-07-07T09:29:34Z</time>
      </trkpt>
      <trkpt lat="41.573855349" lon="2.391548550">
        <ele>100.60</ele>
        <time>2013-07-07T09:29:35Z</time>
      </trkpt>
      <trkpt lat="41.573742277" lon="2.391676542">
        <ele>100.60</ele>
        <time>2013-07-07T09:29:40Z</time>
      </trkpt>
      <trkpt lat="41.573591822" lon="2.391771006">
        <ele>100.60</ele>
        <time>2013-07-07T09:29:46Z</time>
      </trkpt>
      <trkpt lat="41.573394512" lon="2.391840743">
        <ele>102.00</ele>
        <time>2013-07-07T09:29:52Z</time>
      </trkpt>
      <trkpt lat="41.573146910" lon="2.391942667">
        <ele>102.00</ele>
        <time>2013-07-07T09:29:59Z</time>
      </trkpt>
      <trkpt lat="41.572783136" lon="2.392122710">
        <ele>100.60</ele>
        <time>2013-07-07T09:30:09Z</time>
      </trkpt>
      <trkpt lat="41.572542994" lon="2.392255731">
        <ele>100.60</ele>
        <time>2013-07-07T09:30:15Z</time>
      </trkpt>
      <trkpt lat="41.572422378" lon="2.392333347">
        <ele>100.10</ele>
        <time>2013-07-07T09:30:18Z</time>
      </trkpt>
      <trkpt lat="41.572067070" lon="2.392574327">
        <ele>99.60</ele>
        <time>2013-07-07T09:30:27Z</time>
      </trkpt>
      <trkpt lat="41.571840926" lon="2.392785551">
        <ele>99.20</ele>
        <time>2013-07-07T09:30:34Z</time>
      </trkpt>
      <trkpt lat="41.571671695" lon="2.393043798">
        <ele>99.20</ele>
        <time>2013-07-07T09:30:41Z</time>
      </trkpt>
      <trkpt lat="41.571625679" lon="2.393113367">
        <ele>100.10</ele>
        <time>2013-07-07T09:30:43Z</time>
      </trkpt>
      <trkpt lat="41.571483186" lon="2.393318892">
        <ele>101.60</ele>
        <time>2013-07-07T09:30:50Z</time>
      </trkpt>
      <trkpt lat="41.571322002" lon="2.393410087">
        <ele>102.50</ele>
        <time>2013-07-07T09:30:56Z</time>
      </trkpt>
      <trkpt lat="41.571060068" lon="2.393489631">
        <ele>102.50</ele>
        <time>2013-07-07T09:31:04Z</time>
      </trkpt>
      <trkpt lat="41.570881785" lon="2.393635225">
        <ele>101.10</ele>
        <time>2013-07-07T09:31:09Z</time>
      </trkpt>
      <trkpt lat="41.570572157" lon="2.393860698">
        <ele>98.70</ele>
        <time>2013-07-07T09:31:16Z</time>
      </trkpt>
      <trkpt lat="41.570521782" lon="2.393894812">
        <ele>98.20</ele>
        <time>2013-07-07T09:31:17Z</time>
      </trkpt>
      <trkpt lat="41.570100256" lon="2.394248948">
        <ele>96.30</ele>
        <time>2013-07-07T09:31:25Z</time>
      </trkpt>
      <trkpt lat="41.569620140" lon="2.394634515">
        <ele>94.80</ele>
        <time>2013-07-07T09:31:35Z</time>
      </trkpt>
      <trkpt lat="41.569255947" lon="2.394860659">
        <ele>94.40</ele>
        <time>2013-07-07T09:31:43Z</time>
      </trkpt>
      <trkpt lat="41.569004322" lon="2.395020334">
        <ele>94.40</ele>
        <time>2013-07-07T09:31:49Z</time>
      </trkpt>
      <trkpt lat="41.568883790" lon="2.395095101">
        <ele>94.40</ele>
        <time>2013-07-07T09:31:52Z</time>
      </trkpt>
      <trkpt lat="41.568541306" lon="2.395306241">
        <ele>92.90</ele>
        <time>2013-07-07T09:32:00Z</time>
      </trkpt>
      <trkpt lat="41.568165126" lon="2.395542108">
        <ele>92.40</ele>
        <time>2013-07-07T09:32:09Z</time>
      </trkpt>
      <trkpt lat="41.568122294" lon="2.395562476">
        <ele>91.90</ele>
        <time>2013-07-07T09:32:10Z</time>
      </trkpt>
      <trkpt lat="41.567945604" lon="2.395655766">
        <ele>90.50</ele>
        <time>2013-07-07T09:32:14Z</time>
      </trkpt>
      <trkpt lat="41.567695488" lon="2.395833295">
        <ele>90.50</ele>
        <time>2013-07-07T09:32:21Z</time>
      </trkpt>
      <trkpt lat="41.567514942" lon="2.395958688">
        <ele>91.50</ele>
        <time>2013-07-07T09:32:27Z</time>
      </trkpt>
      <trkpt lat="41.567438583" lon="2.396000262">
        <ele>91.50</ele>
        <time>2013-07-07T09:32:29Z</time>
      </trkpt>
      <trkpt lat="41.567245966" lon="2.396132194">
        <ele>91.50</ele>
        <time>2013-07-07T09:32:34Z</time>
      </trkpt>
      <trkpt lat="41.567095176" lon="2.396273177">
        <ele>91.50</ele>
        <time>2013-07-07T09:32:38Z</time>
      </trkpt>
      <trkpt lat="41.566744142" lon="2.396462441">
        <ele>90.50</ele>
        <time>2013-07-07T09:32:46Z</time>
      </trkpt>
      <trkpt lat="41.566694102" lon="2.396481803">
        <ele>90.50</ele>
        <time>2013-07-07T09:32:47Z</time>
      </trkpt>
      <trkpt lat="41.566240054" lon="2.396732170">
        <ele>89.50</ele>
        <time>2013-07-07T09:32:57Z</time>
      </trkpt>
      <trkpt lat="41.565798244" lon="2.396997541">
        <ele>88.60</ele>
        <time>2013-07-07T09:33:07Z</time>
      </trkpt>
      <trkpt lat="41.565451988" lon="2.397220248">
        <ele>87.60</ele>
        <time>2013-07-07T09:33:15Z</time>
      </trkpt>
      <trkpt lat="41.565367750" lon="2.397265511">
        <ele>87.60</ele>
        <time>2013-07-07T09:33:17Z</time>
      </trkpt>
      <trkpt lat="41.564943206" lon="2.397518644">
        <ele>87.60</ele>
        <time>2013-07-07T09:33:27Z</time>
      </trkpt>
      <trkpt lat="41.564604242" lon="2.397719810">
        <ele>86.70</ele>
        <time>2013-07-07T09:33:35Z</time>
      </trkpt>
      <trkpt lat="41.564269385" lon="2.397929357">
        <ele>86.20</ele>
        <time>2013-07-07T09:33:43Z</time>
      </trkpt>
      <trkpt lat="41.564149943" lon="2.398021475">
        <ele>86.20</ele>
        <time>2013-07-07T09:33:46Z</time>
      </trkpt>
      <trkpt lat="41.563833526" lon="2.398206882">
        <ele>85.20</ele>
        <time>2013-07-07T09:33:54Z</time>
      </trkpt>
      <trkpt lat="41.563504536" lon="2.398445515">
        <ele>84.30</ele>
        <time>2013-07-07T09:34:03Z</time>
      </trkpt>
      <trkpt lat="41.563253331" lon="2.398627821">
        <ele>83.80</ele>
        <time>2013-07-07T09:34:10Z</time>
      </trkpt>
      <trkpt lat="41.562984523" lon="2.398848517">
        <ele>83.30</ele>
        <time>2013-07-07T09:34:18Z</time>
      </trkpt>
      <trkpt lat="41.562712027" lon="2.399060747">
        <ele>82.80</ele>
        <time>2013-07-07T09:34:26Z</time>
      </trkpt>
      <trkpt lat="41.562418409" lon="2.399330057">
        <ele>81.90</ele>
        <time>2013-07-07T09:34:35Z</time>
      </trkpt>
      <trkpt lat="41.562326125" lon="2.399447320">
        <ele>81.90</ele>
        <time>2013-07-07T09:34:38Z</time>
      </trkpt>
      <trkpt lat="41.562053042" lon="2.399709003">
        <ele>80.40</ele>
        <time>2013-07-07T09:34:46Z</time>
      </trkpt>
      <trkpt lat="41.561970899" lon="2.399779746">
        <ele>79.90</ele>
        <time>2013-07-07T09:34:48Z</time>
      </trkpt>
      <trkpt lat="41.561742660" lon="2.400073364">
        <ele>79.50</ele>
        <time>2013-07-07T09:34:56Z</time>
      </trkpt>
      <trkpt lat="41.561679964" lon="2.400175372">
        <ele>80.90</ele>
        <time>2013-07-07T09:34:59Z</time>
      </trkpt>
      <trkpt lat="41.561475780" lon="2.400437642">
        <ele>80.90</ele>
        <time>2013-07-07T09:35:06Z</time>
      </trkpt>
      <trkpt lat="41.561378383" lon="2.400579799">
        <ele>80.90</ele>
        <time>2013-07-07T09:35:09Z</time>
      </trkpt>
      <trkpt lat="41.561113012" lon="2.401029488">
        <ele>79.50</ele>
        <time>2013-07-07T09:35:18Z</time>
      </trkpt>
      <trkpt lat="41.560926598" lon="2.401380438">
        <ele>79.00</ele>
        <time>2013-07-07T09:35:25Z</time>
      </trkpt>
      <trkpt lat="41.560830877" lon="2.401583867">
        <ele>79.00</ele>
        <time>2013-07-07T09:35:29Z</time>
      </trkpt>
      <trkpt lat="41.560658377" lon="2.401940601">
        <ele>78.50</ele>
        <time>2013-07-07T09:35:37Z</time>
      </trkpt>
      <trkpt lat="41.560622503" lon="2.402042776">
        <ele>78.50</ele>
        <time>2013-07-07T09:35:39Z</time>
      </trkpt>
      <trkpt lat="41.560551676" lon="2.402198847">
        <ele>78.00</ele>
        <time>2013-07-07T09:35:42Z</time>
      </trkpt>
      <trkpt lat="41.560372051" lon="2.402640490">
        <ele>78.00</ele>
        <time>2013-07-07T09:35:50Z</time>
      </trkpt>
      <trkpt lat="41.560163258" lon="2.403192438">
        <ele>78.00</ele>
        <time>2013-07-07T09:36:00Z</time>
      </trkpt>
      <trkpt lat="41.560006349" lon="2.403624441">
        <ele>76.60</ele>
        <time>2013-07-07T09:36:08Z</time>
      </trkpt>
      <trkpt lat="41.559948598" lon="2.403778333">
        <ele>76.60</ele>
        <time>2013-07-07T09:36:11Z</time>
      </trkpt>
      <trkpt lat="41.559779199" lon="2.404215869">
        <ele>76.10</ele>
        <time>2013-07-07T09:36:19Z</time>
      </trkpt>
      <trkpt lat="41.559753216" lon="2.404274374">
        <ele>76.10</ele>
        <time>2013-07-07T09:36:20Z</time>
      </trkpt>
      <trkpt lat="41.559556073" lon="2.404740827">
        <ele>74.60</ele>
        <time>2013-07-07T09:36:29Z</time>
      </trkpt>
      <trkpt lat="41.559354488" lon="2.405184230">
        <ele>74.20</ele>
        <time>2013-07-07T09:36:38Z</time>
      </trkpt>
      <trkpt lat="41.559302604" lon="2.405288920">
        <ele>74.20</ele>
        <time>2013-07-07T09:36:40Z</time>
      </trkpt>
      <trkpt lat="41.559058607" lon="2.405710362">
        <ele>73.70</ele>
        <time>2013-07-07T09:36:48Z</time>
      </trkpt>
      <trkpt lat="41.558991636" lon="2.405817399">
        <ele>73.20</ele>
        <time>2013-07-07T09:36:50Z</time>
      </trkpt>
      <trkpt lat="41.558786447" lon="2.406110514">
        <ele>73.20</ele>
        <time>2013-07-07T09:36:56Z</time>
      </trkpt>
      <trkpt lat="41.558679494" lon="2.406250576">
        <ele>72.70</ele>
        <time>2013-07-07T09:36:59Z</time>
      </trkpt>
      <trkpt lat="41.558604727" lon="2.406338921">
        <ele>72.20</ele>
        <time>2013-07-07T09:37:01Z</time>
      </trkpt>
      <trkpt lat="41.558472461" lon="2.406526927">
        <ele>72.20</ele>
        <time>2013-07-07T09:37:05Z</time>
      </trkpt>
      <trkpt lat="41.558074153" lon="2.406876452">
        <ele>70.80</ele>
        <time>2013-07-07T09:37:14Z</time>
      </trkpt>
      <trkpt lat="41.558033417" lon="2.406915931">
        <ele>70.30</ele>
        <time>2013-07-07T09:37:15Z</time>
      </trkpt>
      <trkpt lat="41.557926212" lon="2.407041576">
        <ele>70.30</ele>
        <time>2013-07-07T09:37:18Z</time>
      </trkpt>
      <trkpt lat="41.557787827" lon="2.407177530">
        <ele>70.30</ele>
        <time>2013-07-07T09:37:22Z</time>
      </trkpt>
      <trkpt lat="41.557591858" lon="2.407318933">
        <ele>70.30</ele>
        <time>2013-07-07T09:37:27Z</time>
      </trkpt>
      <trkpt lat="41.557392033" lon="2.407474669">
        <ele>70.30</ele>
        <time>2013-07-07T09:37:32Z</time>
      </trkpt>
      <trkpt lat="41.557308633" lon="2.407533761">
        <ele>70.30</ele>
        <time>2013-07-07T09:37:34Z</time>
      </trkpt>
      <trkpt lat="41.556853161" lon="2.407816818">
        <ele>69.80</ele>
        <time>2013-07-07T09:37:44Z</time>
      </trkpt>
      <trkpt lat="41.556723912" lon="2.407892758">
        <ele>69.40</ele>
        <time>2013-07-07T09:37:47Z</time>
      </trkpt>
      <trkpt lat="41.556593825" lon="2.407972470">
        <ele>69.40</ele>
        <time>2013-07-07T09:37:50Z</time>
      </trkpt>
      <trkpt lat="41.556328035" lon="2.408061653">
        <ele>67.00</ele>
        <time>2013-07-07T09:37:56Z</time>
      </trkpt>
      <trkpt lat="41.556261398" lon="2.408103144">
        <ele>66.50</ele>
        <time>2013-07-07T09:37:58Z</time>
      </trkpt>
      <trkpt lat="41.556073141" lon="2.408209510">
        <ele>67.90</ele>
        <time>2013-07-07T09:38:05Z</time>
      </trkpt>
      <trkpt lat="41.555888320" lon="2.408297939">
        <ele>67.90</ele>
        <time>2013-07-07T09:38:11Z</time>
      </trkpt>
      <trkpt lat="41.555692686" lon="2.408372706">
        <ele>67.90</ele>
        <time>2013-07-07T09:38:16Z</time>
      </trkpt>
      <trkpt lat="41.555411306" lon="2.408441605">
        <ele>67.90</ele>
        <time>2013-07-07T09:38:23Z</time>
      </trkpt>
      <trkpt lat="41.555326900" lon="2.408467505">
        <ele>67.90</ele>
        <time>2013-07-07T09:38:25Z</time>
      </trkpt>
      <trkpt lat="41.554983242" lon="2.408564735">
        <ele>66.50</ele>
        <time>2013-07-07T09:38:33Z</time>
      </trkpt>
      <trkpt lat="41.554736395" lon="2.408613937">
        <ele>66.00</ele>
        <time>2013-07-07T09:38:39Z</time>
      </trkpt>
      <trkpt lat="41.554664646" lon="2.408645201">
        <ele>66.00</ele>
        <time>2013-07-07T09:38:41Z</time>
      </trkpt>
      <trkpt lat="41.554433473" lon="2.408703875">
        <ele>66.00</ele>
        <time>2013-07-07T09:38:48Z</time>
      </trkpt>
      <trkpt lat="41.554168437" lon="2.408777384">
        <ele>65.50</ele>
        <time>2013-07-07T09:38:54Z</time>
      </trkpt>
      <trkpt lat="41.553977246" lon="2.408833291">
        <ele>65.00</ele>
        <time>2013-07-07T09:38:58Z</time>
      </trkpt>
      <trkpt lat="41.553525881" lon="2.408952147">
        <ele>64.60</ele>
        <time>2013-07-07T09:39:08Z</time>
      </trkpt>
      <trkpt lat="41.553180211" lon="2.408998582">
        <ele>63.60</ele>
        <time>2013-07-07T09:39:16Z</time>
      </trkpt>
      <trkpt lat="41.552675369" lon="2.409062369">
        <ele>62.60</ele>
        <time>2013-07-07T09:39:27Z</time>
      </trkpt>
      <trkpt lat="41.552555759" lon="2.409089945">
        <ele>62.60</ele>
        <time>2013-07-07T09:39:30Z</time>
      </trkpt>
      <trkpt lat="41.552168264" lon="2.409148283">
        <ele>62.10</ele>
        <time>2013-07-07T09:39:39Z</time>
      </trkpt>
      <trkpt lat="41.552000039" lon="2.409195054">
        <ele>62.10</ele>
        <time>2013-07-07T09:39:43Z</time>
      </trkpt>
      <trkpt lat="41.551795185" lon="2.409202766">
        <ele>61.70</ele>
        <time>2013-07-07T09:39:48Z</time>
      </trkpt>
      <trkpt lat="41.551665517" lon="2.409209639">
        <ele>61.70</ele>
        <time>2013-07-07T09:39:51Z</time>
      </trkpt>
      <trkpt lat="41.551405091" lon="2.409231348">
        <ele>61.20</ele>
        <time>2013-07-07T09:39:57Z</time>
      </trkpt>
      <trkpt lat="41.551208368" lon="2.409325980">
        <ele>60.70</ele>
        <time>2013-07-07T09:40:02Z</time>
      </trkpt>
      <trkpt lat="41.550842498" lon="2.409493534">
        <ele>60.70</ele>
        <time>2013-07-07T09:40:12Z</time>
      </trkpt>
      <trkpt lat="41.550601518" lon="2.409598727">
        <ele>60.70</ele>
        <time>2013-07-07T09:40:18Z</time>
      </trkpt>
      <trkpt lat="41.550140346" lon="2.409767454">
        <ele>60.20</ele>
        <time>2013-07-07T09:40:28Z</time>
      </trkpt>
      <trkpt lat="41.549942952" lon="2.409855381">
        <ele>59.30</ele>
        <time>2013-07-07T09:40:32Z</time>
      </trkpt>
      <trkpt lat="41.549674145" lon="2.409972308">
        <ele>59.30</ele>
        <time>2013-07-07T09:40:39Z</time>
      </trkpt>
      <trkpt lat="41.549608095" lon="2.409854207">
        <ele>61.20</ele>
        <time>2013-07-07T09:40:43Z</time>
      </trkpt>
      <trkpt lat="41.549507931" lon="2.409415247">
        <ele>61.20</ele>
        <time>2013-07-07T09:40:53Z</time>
      </trkpt>
      <trkpt lat="41.549502232" lon="2.409330841">
        <ele>61.20</ele>
        <time>2013-07-07T09:40:55Z</time>
      </trkpt>
      <trkpt lat="41.549594684" lon="2.409220703">
        <ele>61.20</ele>
        <time>2013-07-07T09:41:00Z</time>
      </trkpt>
      <trkpt lat="41.549659644" lon="2.409198491">
        <ele>61.20</ele>
        <time>2013-07-07T09:41:02Z</time>
      </trkpt>
      <trkpt lat="41.549976228" lon="2.408991542">
        <ele>61.70</ele>
        <time>2013-07-07T09:41:12Z</time>
      </trkpt>
      <trkpt lat="41.550167168" lon="2.408755172">
        <ele>62.10</ele>
        <time>2013-07-07T09:41:19Z</time>
      </trkpt>
      <trkpt lat="41.550362131" lon="2.408356948">
        <ele>63.10</ele>
        <time>2013-07-07T09:41:28Z</time>
      </trkpt>
      <trkpt lat="41.550564051" lon="2.407836348">
        <ele>64.10</ele>
        <time>2013-07-07T09:41:38Z</time>
      </trkpt>
      <trkpt lat="41.550722302" lon="2.407434687">
        <ele>65.00</ele>
        <time>2013-07-07T09:41:46Z</time>
      </trkpt>
      <trkpt lat="41.550821962" lon="2.407249950">
        <ele>65.00</ele>
        <time>2013-07-07T09:41:50Z</time>
      </trkpt>
      <trkpt lat="41.550930843" lon="2.407113157">
        <ele>65.00</ele>
        <time>2013-07-07T09:41:54Z</time>
      </trkpt>
      <trkpt lat="41.550985493" lon="2.406978125">
        <ele>65.50</ele>
        <time>2013-07-07T09:41:59Z</time>
      </trkpt>
      <trkpt lat="41.551039054" lon="2.406812582">
        <ele>65.50</ele>
        <time>2013-07-07T09:42:04Z</time>
      </trkpt>
      <trkpt lat="41.551026816" lon="2.406569842">
        <ele>65.50</ele>
        <time>2013-07-07T09:42:10Z</time>
      </trkpt>
      <trkpt lat="41.551085070" lon="2.406314194">
        <ele>65.50</ele>
        <time>2013-07-07T09:42:17Z</time>
      </trkpt>
      <trkpt lat="41.551132847" lon="2.406063827">
        <ele>65.50</ele>
        <time>2013-07-07T09:42:23Z</time>
      </trkpt>
      <trkpt lat="41.551192526" lon="2.405792840">
        <ele>66.00</ele>
        <time>2013-07-07T09:42:29Z</time>
      </trkpt>
      <trkpt lat="41.551295708" lon="2.405467119">
        <ele>66.50</ele>
        <time>2013-07-07T09:42:37Z</time>
      </trkpt>
      <trkpt lat="41.551412132" lon="2.405199485">
        <ele>67.90</ele>
        <time>2013-07-07T09:42:45Z</time>
      </trkpt>
      <trkpt lat="41.551519840" lon="2.404926235">
        <ele>69.40</ele>
        <time>2013-07-07T09:42:54Z</time>
      </trkpt>
      <trkpt lat="41.551556469" lon="2.404686764">
        <ele>70.30</ele>
        <time>2013-07-07T09:43:01Z</time>
      </trkpt>
      <trkpt lat="41.551463849" lon="2.404529771">
        <ele>70.80</ele>
        <time>2013-07-07T09:43:07Z</time>
      </trkpt>
      <trkpt lat="41.551312974" lon="2.404443605">
        <ele>70.80</ele>
        <time>2013-07-07T09:43:14Z</time>
      </trkpt>
      <trkpt lat="41.551221779" lon="2.404262220">
        <ele>70.80</ele>
        <time>2013-07-07T09:43:21Z</time>
      </trkpt>
      <trkpt lat="41.551150030" lon="2.404216036">
        <ele>70.80</ele>
        <time>2013-07-07T09:43:23Z</time>
      </trkpt>
      <trkpt lat="41.550774437" lon="2.404036747">
        <ele>70.80</ele>
        <time>2013-07-07T09:43:32Z</time>
      </trkpt>
      <trkpt lat="41.550317791" lon="2.403820410">
        <ele>69.80</ele>
        <time>2013-07-07T09:43:43Z</time>
      </trkpt>
      <trkpt lat="41.550003721" lon="2.403713960">
        <ele>69.80</ele>
        <time>2013-07-07T09:43:51Z</time>
      </trkpt>
      <trkpt lat="41.549680515" lon="2.403613042">
        <ele>69.80</ele>
        <time>2013-07-07T09:44:00Z</time>
      </trkpt>
      <trkpt lat="41.549531652" lon="2.403492846">
        <ele>71.30</ele>
        <time>2013-07-07T09:44:05Z</time>
      </trkpt>
      <trkpt lat="41.549309951" lon="2.403355382">
        <ele>71.30</ele>
        <time>2013-07-07T09:44:12Z</time>
      </trkpt>
      <trkpt lat="41.549013567" lon="2.403170897">
        <ele>72.20</ele>
        <time>2013-07-07T09:44:21Z</time>
      </trkpt>
      <trkpt lat="41.548818101" lon="2.403036116">
        <ele>73.20</ele>
        <time>2013-07-07T09:44:28Z</time>
      </trkpt>
      <trkpt lat="41.548659012" lon="2.402922960">
        <ele>74.20</ele>
        <time>2013-07-07T09:44:34Z</time>
      </trkpt>
      <trkpt lat="41.548406968" lon="2.402748197">
        <ele>75.10</ele>
        <time>2013-07-07T09:44:43Z</time>
      </trkpt>
      <trkpt lat="41.548167833" lon="2.402593132">
        <ele>75.60</ele>
        <time>2013-07-07T09:44:51Z</time>
      </trkpt>
      <trkpt lat="41.547948143" lon="2.402448460">
        <ele>77.00</ele>
        <time>2013-07-07T09:44:58Z</time>
      </trkpt>
      <trkpt lat="41.547729375" lon="2.402299765">
        <ele>78.00</ele>
        <time>2013-07-07T09:45:06Z</time>
      </trkpt>
      <trkpt lat="41.547523264" lon="2.402053840">
        <ele>79.00</ele>
        <time>2013-07-07T09:45:15Z</time>
      </trkpt>
      <trkpt lat="41.547398290" lon="2.401769107">
        <ele>79.90</ele>
        <time>2013-07-07T09:45:23Z</time>
      </trkpt>
      <trkpt lat="41.547308352" lon="2.401443219">
        <ele>81.90</ele>
        <time>2013-07-07T09:45:32Z</time>
      </trkpt>
      <trkpt lat="41.547273232" lon="2.401149098">
        <ele>83.30</ele>
        <time>2013-07-07T09:45:40Z</time>
      </trkpt>
      <trkpt lat="41.547316651" lon="2.400883391">
        <ele>84.70</ele>
        <time>2013-07-07T09:45:47Z</time>
      </trkpt>
      <trkpt lat="41.547418239" lon="2.400570076">
        <ele>85.20</ele>
        <time>2013-07-07T09:45:56Z</time>
      </trkpt>
      <trkpt lat="41.547542040" lon="2.400245696">
        <ele>86.20</ele>
        <time>2013-07-07T09:46:05Z</time>
      </trkpt>
      <trkpt lat="41.547667098" lon="2.399966495">
        <ele>87.10</ele>
        <time>2013-07-07T09:46:14Z</time>
      </trkpt>
      <trkpt lat="41.547822331" lon="2.399661142">
        <ele>88.10</ele>
        <time>2013-07-07T09:46:24Z</time>
      </trkpt>
      <trkpt lat="41.547978569" lon="2.399459725">
        <ele>89.10</ele>
        <time>2013-07-07T09:46:32Z</time>
      </trkpt>
      <trkpt lat="41.548067334" lon="2.399193851">
        <ele>90.00</ele>
        <time>2013-07-07T09:46:40Z</time>
      </trkpt>
      <trkpt lat="41.548079488" lon="2.398898976">
        <ele>90.00</ele>
        <time>2013-07-07T09:46:48Z</time>
      </trkpt>
      <trkpt lat="41.548064819" lon="2.398651542">
        <ele>91.00</ele>
        <time>2013-07-07T09:46:55Z</time>
      </trkpt>
      <trkpt lat="41.548051995" lon="2.398360187">
        <ele>91.90</ele>
        <time>2013-07-07T09:47:03Z</time>
      </trkpt>
      <trkpt lat="41.548000279" lon="2.398090374">
        <ele>92.40</ele>
        <time>2013-07-07T09:47:11Z</time>
      </trkpt>
      <trkpt lat="41.547962895" lon="2.397871019">
        <ele>93.90</ele>
        <time>2013-07-07T09:47:18Z</time>
      </trkpt>
      <trkpt lat="41.547883602" lon="2.397563487">
        <ele>95.80</ele>
        <time>2013-07-07T09:47:28Z</time>
      </trkpt>
      <trkpt lat="41.547829791" lon="2.397384282">
        <ele>97.20</ele>
        <time>2013-07-07T09:47:34Z</time>
      </trkpt>
      <trkpt lat="41.547783103" lon="2.397089407">
        <ele>97.20</ele>
        <time>2013-07-07T09:47:42Z</time>
      </trkpt>
      <trkpt lat="41.547775392" lon="2.396841554">
        <ele>97.70</ele>
        <time>2013-07-07T09:47:49Z</time>
      </trkpt>
      <trkpt lat="41.547801711" lon="2.396634689">
        <ele>99.20</ele>
        <time>2013-07-07T09:47:56Z</time>
      </trkpt>
      <trkpt lat="41.547939007" lon="2.396380046">
        <ele>100.10</ele>
        <time>2013-07-07T09:48:05Z</time>
      </trkpt>
      <trkpt lat="41.548057359" lon="2.396181731">
        <ele>100.10</ele>
        <time>2013-07-07T09:48:12Z</time>
      </trkpt>
      <trkpt lat="41.548056605" lon="2.395928765">
        <ele>100.60</ele>
        <time>2013-07-07T09:48:19Z</time>
      </trkpt>
      <trkpt lat="41.548006565" lon="2.395704046">
        <ele>101.10</ele>
        <time>2013-07-07T09:48:26Z</time>
      </trkpt>
      <trkpt lat="41.547906485" lon="2.395606145">
        <ele>101.10</ele>
        <time>2013-07-07T09:48:31Z</time>
      </trkpt>
      <trkpt lat="41.547772039" lon="2.395641685">
        <ele>101.10</ele>
        <time>2013-07-07T09:48:36Z</time>
      </trkpt>
      <trkpt lat="41.547574562" lon="2.395717038">
        <ele>101.10</ele>
        <time>2013-07-07T09:48:42Z</time>
      </trkpt>
      <trkpt lat="41.547507758" lon="2.395726509">
        <ele>101.10</ele>
        <time>2013-07-07T09:48:44Z</time>
      </trkpt>
      <trkpt lat="41.547400218" lon="2.395571193">
        <ele>101.10</ele>
        <time>2013-07-07T09:48:50Z</time>
      </trkpt>
      <trkpt lat="41.547323943" lon="2.395392071">
        <ele>103.00</ele>
        <time>2013-07-07T09:48:58Z</time>
      </trkpt>
      <trkpt lat="41.547242135" lon="2.395220075">
        <ele>104.90</ele>
        <time>2013-07-07T09:49:06Z</time>
      </trkpt>
      <trkpt lat="41.547181869" lon="2.395047324">
        <ele>106.40</ele>
        <time>2013-07-07T09:49:14Z</time>
      </trkpt>
      <trkpt lat="41.547114395" lon="2.394882619">
        <ele>107.80</ele>
        <time>2013-07-07T09:49:22Z</time>
      </trkpt>
      <trkpt lat="41.547028816" lon="2.394696876">
        <ele>109.70</ele>
        <time>2013-07-07T09:49:31Z</time>
      </trkpt>
      <trkpt lat="41.546978944" lon="2.394529071">
        <ele>111.20</ele>
        <time>2013-07-07T09:49:39Z</time>
      </trkpt>
      <trkpt lat="41.546904429" lon="2.394372832">
        <ele>113.10</ele>
        <time>2013-07-07T09:49:47Z</time>
      </trkpt>
      <trkpt lat="41.546823878" lon="2.394221455">
        <ele>115.50</ele>
        <time>2013-07-07T09:49:57Z</time>
      </trkpt>
      <trkpt lat="41.546699659" lon="2.394123806">
        <ele>116.90</ele>
        <time>2013-07-07T09:50:06Z</time>
      </trkpt>
      <trkpt lat="41.546640147" lon="2.394068150">
        <ele>116.90</ele>
        <time>2013-07-07T09:50:09Z</time>
      </trkpt>
      <trkpt lat="41.546534367" lon="2.393819207">
        <ele>117.40</ele>
        <time>2013-07-07T09:50:18Z</time>
      </trkpt>
      <trkpt lat="41.546444513" lon="2.393528691">
        <ele>118.90</ele>
        <time>2013-07-07T09:50:28Z</time>
      </trkpt>
      <trkpt lat="41.546444346" lon="2.393298021">
        <ele>120.30</ele>
        <time>2013-07-07T09:50:37Z</time>
      </trkpt>
      <trkpt lat="41.546404699" lon="2.393028794">
        <ele>122.20</ele>
        <time>2013-07-07T09:50:48Z</time>
      </trkpt>
      <trkpt lat="41.546381230" lon="2.392868616">
        <ele>123.70</ele>
        <time>2013-07-07T09:50:54Z</time>
      </trkpt>
      <trkpt lat="41.546353318" lon="2.392620595">
        <ele>124.60</ele>
        <time>2013-07-07T09:51:04Z</time>
      </trkpt>
      <trkpt lat="41.546280983" lon="2.392378945">
        <ele>125.60</ele>
        <time>2013-07-07T09:51:14Z</time>
      </trkpt>
      <trkpt lat="41.546116027" lon="2.392133690">
        <ele>127.00</ele>
        <time>2013-07-07T09:51:27Z</time>
      </trkpt>
      <trkpt lat="41.546008235" lon="2.392016344">
        <ele>128.00</ele>
        <time>2013-07-07T09:51:34Z</time>
      </trkpt>
      <trkpt lat="41.545917040" lon="2.391939230">
        <ele>129.00</ele>
        <time>2013-07-07T09:51:40Z</time>
      </trkpt>
      <trkpt lat="41.545793407" lon="2.391860189">
        <ele>129.90</ele>
        <time>2013-07-07T09:51:47Z</time>
      </trkpt>
      <trkpt lat="41.545703469" lon="2.391792463">
        <ele>131.40</ele>
        <time>2013-07-07T09:51:53Z</time>
      </trkpt>
      <trkpt lat="41.545595343" lon="2.391711829">
        <ele>132.30</ele>
        <time>2013-07-07T09:52:01Z</time>
      </trkpt>
      <trkpt lat="41.545573298" lon="2.391697999">
        <ele>132.30</ele>
        <time>2013-07-07T09:52:03Z</time>
      </trkpt>
      <trkpt lat="41.545541783" lon="2.391660616">
        <ele>132.80</ele>
        <time>2013-07-07T09:52:06Z</time>
      </trkpt>
      <trkpt lat="41.545532646" lon="2.391545029">
        <ele>133.30</ele>
        <time>2013-07-07T09:52:13Z</time>
      </trkpt>
      <trkpt lat="41.545635073" lon="2.391475711">
        <ele>134.20</ele>
        <time>2013-07-07T09:52:21Z</time>
      </trkpt>
      <trkpt lat="41.545670193" lon="2.391468754">
        <ele>134.20</ele>
        <time>2013-07-07T09:52:23Z</time>
      </trkpt>
      <trkpt lat="41.545813691" lon="2.391376637">
        <ele>135.20</ele>
        <time>2013-07-07T09:52:32Z</time>
      </trkpt>
      <trkpt lat="41.545891392" lon="2.391182177">
        <ele>135.70</ele>
        <time>2013-07-07T09:52:40Z</time>
      </trkpt>
      <trkpt lat="41.545867336" lon="2.390975563">
        <ele>136.60</ele>
        <time>2013-07-07T09:52:48Z</time>
      </trkpt>
      <trkpt lat="41.545764490" lon="2.390830975">
        <ele>137.60</ele>
        <time>2013-07-07T09:52:56Z</time>
      </trkpt>
      <trkpt lat="41.545649155" lon="2.390739864">
        <ele>139.10</ele>
        <time>2013-07-07T09:53:04Z</time>
      </trkpt>
      <trkpt lat="41.545521582" lon="2.390642550">
        <ele>140.50</ele>
        <time>2013-07-07T09:53:13Z</time>
      </trkpt>
      <trkpt lat="41.545427034" lon="2.390552109">
        <ele>141.50</ele>
        <time>2013-07-07T09:53:21Z</time>
      </trkpt>
      <trkpt lat="41.545291331" lon="2.390455298">
        <ele>143.40</ele>
        <time>2013-07-07T09:53:30Z</time>
      </trkpt>
      <trkpt lat="41.545142972" lon="2.390372653">
        <ele>144.30</ele>
        <time>2013-07-07T09:53:39Z</time>
      </trkpt>
      <trkpt lat="41.545059153" lon="2.390353961">
        <ele>145.30</ele>
        <time>2013-07-07T09:53:46Z</time>
      </trkpt>
      <trkpt lat="41.544983715" lon="2.390330492">
        <ele>146.30</ele>
        <time>2013-07-07T09:53:51Z</time>
      </trkpt>
      <trkpt lat="41.544906267" lon="2.390313225">
        <ele>147.20</ele>
        <time>2013-07-07T09:53:57Z</time>
      </trkpt>
      <trkpt lat="41.544826722" lon="2.390289336">
        <ele>149.10</ele>
        <time>2013-07-07T09:54:04Z</time>
      </trkpt>
      <trkpt lat="41.544801996" lon="2.390284726">
        <ele>149.10</ele>
        <time>2013-07-07T09:54:06Z</time>
      </trkpt>
      <trkpt lat="41.544688840" lon="2.390243655">
        <ele>152.00</ele>
        <time>2013-07-07T09:54:16Z</time>
      </trkpt>
      <trkpt lat="41.544622288" lon="2.390224544">
        <ele>153.50</ele>
        <time>2013-07-07T09:54:22Z</time>
      </trkpt>
      <trkpt lat="41.544593789" lon="2.390220521">
        <ele>154.00</ele>
        <time>2013-07-07T09:54:25Z</time>
      </trkpt>
      <trkpt lat="41.544574930" lon="2.390206356">
        <ele>154.40</ele>
        <time>2013-07-07T09:54:27Z</time>
      </trkpt>
      <trkpt lat="41.544557496" lon="2.390199650">
        <ele>154.90</ele>
        <time>2013-07-07T09:54:34Z</time>
      </trkpt>
      <trkpt lat="41.544548695" lon="2.390193950">
        <ele>154.90</ele>
        <time>2013-07-07T09:54:46Z</time>
      </trkpt>
      <trkpt lat="41.544547354" lon="2.390202500">
        <ele>154.90</ele>
        <time>2013-07-07T09:54:57Z</time>
      </trkpt>
      <trkpt lat="41.544556909" lon="2.390183808">
        <ele>154.90</ele>
        <time>2013-07-07T09:55:15Z</time>
      </trkpt>
      <trkpt lat="41.544534026" lon="2.390187161">
        <ele>154.90</ele>
        <time>2013-07-07T09:55:28Z</time>
      </trkpt>
      <trkpt lat="41.544423134" lon="2.390164278">
        <ele>156.80</ele>
        <time>2013-07-07T09:55:37Z</time>
      </trkpt>
      <trkpt lat="41.544414165" lon="2.390166122">
        <ele>156.80</ele>
        <time>2013-07-07T09:55:38Z</time>
      </trkpt>
      <trkpt lat="41.544298746" lon="2.390200321">
        <ele>159.70</ele>
        <time>2013-07-07T09:55:48Z</time>
      </trkpt>
      <trkpt lat="41.544214676" lon="2.390206942">
        <ele>161.20</ele>
        <time>2013-07-07T09:55:55Z</time>
      </trkpt>
      <trkpt lat="41.544133036" lon="2.390210044">
        <ele>163.10</ele>
        <time>2013-07-07T09:56:02Z</time>
      </trkpt>
      <trkpt lat="41.544096491" lon="2.390240638">
        <ele>164.00</ele>
        <time>2013-07-07T09:56:06Z</time>
      </trkpt>
      <trkpt lat="41.544121720" lon="2.390332755">
        <ele>165.50</ele>
        <time>2013-07-07T09:56:14Z</time>
      </trkpt>
      <trkpt lat="41.544179639" lon="2.390402073">
        <ele>166.90</ele>
        <time>2013-07-07T09:56:21Z</time>
      </trkpt>
      <trkpt lat="41.544265470" lon="2.390492430">
        <ele>168.40</ele>
        <time>2013-07-07T09:56:30Z</time>
      </trkpt>
      <trkpt lat="41.544341159" lon="2.390569292">
        <ele>170.30</ele>
        <time>2013-07-07T09:56:38Z</time>
      </trkpt>
      <trkpt lat="41.544426486" lon="2.390690075">
        <ele>172.20</ele>
        <time>2013-07-07T09:56:49Z</time>
      </trkpt>
      <trkpt lat="41.544456326" lon="2.390759058">
        <ele>173.70</ele>
        <time>2013-07-07T09:56:55Z</time>
      </trkpt>
      <trkpt lat="41.544458254" lon="2.390846984">
        <ele>175.10</ele>
        <time>2013-07-07T09:57:02Z</time>
      </trkpt>
      <trkpt lat="41.544448112" lon="2.390909597">
        <ele>175.60</ele>
        <time>2013-07-07T09:57:06Z</time>
      </trkpt>
      <trkpt lat="41.544432689" lon="2.390933486">
        <ele>176.10</ele>
        <time>2013-07-07T09:57:08Z</time>
      </trkpt>
      <trkpt lat="41.544387594" lon="2.390960559">
        <ele>177.00</ele>
        <time>2013-07-07T09:57:12Z</time>
      </trkpt>
      <trkpt lat="41.544247030" lon="2.390967265">
        <ele>178.90</ele>
        <time>2013-07-07T09:57:23Z</time>
      </trkpt>
      <trkpt lat="41.544156505" lon="2.390958715">
        <ele>181.40</ele>
        <time>2013-07-07T09:57:31Z</time>
      </trkpt>
      <trkpt lat="41.544063299" lon="2.390945975">
        <ele>183.80</ele>
        <time>2013-07-07T09:57:40Z</time>
      </trkpt>
      <trkpt lat="41.543965482" lon="2.390938263">
        <ele>186.20</ele>
        <time>2013-07-07T09:57:49Z</time>
      </trkpt>
      <trkpt lat="41.543827935" lon="2.390922757">
        <ele>189.50</ele>
        <time>2013-07-07T09:58:01Z</time>
      </trkpt>
      <trkpt lat="41.543747888" lon="2.390918482">
        <ele>191.00</ele>
        <time>2013-07-07T09:58:09Z</time>
      </trkpt>
      <trkpt lat="41.543651496" lon="2.390893588">
        <ele>192.90</ele>
        <time>2013-07-07T09:58:18Z</time>
      </trkpt>
      <trkpt lat="41.543635235" lon="2.390885122">
        <ele>193.40</ele>
        <time>2013-07-07T09:58:20Z</time>
      </trkpt>
      <trkpt lat="41.543542782" lon="2.390823264">
        <ele>194.80</ele>
        <time>2013-07-07T09:58:29Z</time>
      </trkpt>
      <trkpt lat="41.543464831" lon="2.390752688">
        <ele>195.30</ele>
        <time>2013-07-07T09:58:37Z</time>
      </trkpt>
      <trkpt lat="41.543429627" lon="2.390697284">
        <ele>196.30</ele>
        <time>2013-07-07T09:58:42Z</time>
      </trkpt>
      <trkpt lat="41.543346394" lon="2.390615057">
        <ele>197.70</ele>
        <time>2013-07-07T09:58:51Z</time>
      </trkpt>
      <trkpt lat="41.543267521" lon="2.390522689">
        <ele>199.10</ele>
        <time>2013-07-07T09:59:01Z</time>
      </trkpt>
      <trkpt lat="41.543222761" lon="2.390492011">
        <ele>200.60</ele>
        <time>2013-07-07T09:59:05Z</time>
      </trkpt>
      <trkpt lat="41.543204992" lon="2.390468122">
        <ele>200.60</ele>
        <time>2013-07-07T09:59:07Z</time>
      </trkpt>
      <trkpt lat="41.543184037" lon="2.390451694">
        <ele>201.10</ele>
        <time>2013-07-07T09:59:09Z</time>
      </trkpt>
      <trkpt lat="41.543109438" lon="2.390395870">
        <ele>202.00</ele>
        <time>2013-07-07T09:59:16Z</time>
      </trkpt>
      <trkpt lat="41.543040706" lon="2.390314566">
        <ele>204.40</ele>
        <time>2013-07-07T09:59:25Z</time>
      </trkpt>
      <trkpt lat="41.542956384" lon="2.390239716">
        <ele>206.80</ele>
        <time>2013-07-07T09:59:34Z</time>
      </trkpt>
      <trkpt lat="41.542945823" lon="2.390233094">
        <ele>207.30</ele>
        <time>2013-07-07T09:59:35Z</time>
      </trkpt>
      <trkpt lat="41.542911877" lon="2.390227646">
        <ele>207.80</ele>
        <time>2013-07-07T09:59:38Z</time>
      </trkpt>
      <trkpt lat="41.542814898" lon="2.390170062">
        <ele>210.20</ele>
        <time>2013-07-07T09:59:47Z</time>
      </trkpt>
      <trkpt lat="41.542769049" lon="2.390134690">
        <ele>211.60</ele>
        <time>2013-07-07T09:59:52Z</time>
      </trkpt>
      <trkpt lat="41.542685146" lon="2.390029162">
        <ele>213.60</ele>
        <time>2013-07-07T10:00:03Z</time>
      </trkpt>
      <trkpt lat="41.542623791" lon="2.389951127">
        <ele>215.50</ele>
        <time>2013-07-07T10:00:11Z</time>
      </trkpt>
      <trkpt lat="41.542614906" lon="2.389942158">
        <ele>215.50</ele>
        <time>2013-07-07T10:00:12Z</time>
      </trkpt>
      <trkpt lat="41.542570733" lon="2.389907205">
        <ele>216.40</ele>
        <time>2013-07-07T10:00:16Z</time>
      </trkpt>
      <trkpt lat="41.542537289" lon="2.389865212">
        <ele>217.40</ele>
        <time>2013-07-07T10:00:20Z</time>
      </trkpt>
      <trkpt lat="41.542460763" lon="2.389821794">
        <ele>218.80</ele>
        <time>2013-07-07T10:00:28Z</time>
      </trkpt>
      <trkpt lat="41.542336627" lon="2.389811903">
        <ele>221.20</ele>
        <time>2013-07-07T10:00:39Z</time>
      </trkpt>
      <trkpt lat="41.542316845" lon="2.389817100">
        <ele>221.20</ele>
        <time>2013-07-07T10:00:41Z</time>
      </trkpt>
      <trkpt lat="41.542242665" lon="2.389836797">
        <ele>223.20</ele>
        <time>2013-07-07T10:00:49Z</time>
      </trkpt>
      <trkpt lat="41.542157002" lon="2.389832774">
        <ele>224.10</ele>
        <time>2013-07-07T10:00:57Z</time>
      </trkpt>
      <trkpt lat="41.542086008" lon="2.389744345">
        <ele>225.10</ele>
        <time>2013-07-07T10:01:06Z</time>
      </trkpt>
      <trkpt lat="41.542078296" lon="2.389733365">
        <ele>225.10</ele>
        <time>2013-07-07T10:01:07Z</time>
      </trkpt>
      <trkpt lat="41.542063544" lon="2.389676619">
        <ele>225.60</ele>
        <time>2013-07-07T10:01:11Z</time>
      </trkpt>
      <trkpt lat="41.541972098" lon="2.389574947">
        <ele>227.50</ele>
        <time>2013-07-07T10:01:21Z</time>
      </trkpt>
      <trkpt lat="41.541958100" lon="2.389566649">
        <ele>227.50</ele>
        <time>2013-07-07T10:01:22Z</time>
      </trkpt>
      <trkpt lat="41.541850476" lon="2.389560530">
        <ele>228.90</ele>
        <time>2013-07-07T10:01:31Z</time>
      </trkpt>
      <trkpt lat="41.541794401" lon="2.389605792">
        <ele>230.90</ele>
        <time>2013-07-07T10:01:39Z</time>
      </trkpt>
      <trkpt lat="41.541725670" lon="2.389653150">
        <ele>232.80</ele>
        <time>2013-07-07T10:01:47Z</time>
      </trkpt>
      <trkpt lat="41.541640090" lon="2.389719870">
        <ele>234.70</ele>
        <time>2013-07-07T10:01:57Z</time>
      </trkpt>
      <trkpt lat="41.541542777" lon="2.389788518">
        <ele>237.10</ele>
        <time>2013-07-07T10:02:08Z</time>
      </trkpt>
      <trkpt lat="41.541454599" lon="2.389875187">
        <ele>239.00</ele>
        <time>2013-07-07T10:02:19Z</time>
      </trkpt>
      <trkpt lat="41.541387208" lon="2.389949534">
        <ele>241.00</ele>
        <time>2013-07-07T10:02:27Z</time>
      </trkpt>
      <trkpt lat="41.541320237" lon="2.390049782">
        <ele>243.40</ele>
        <time>2013-07-07T10:02:37Z</time>
      </trkpt>
      <trkpt lat="41.541267096" lon="2.390158327">
        <ele>244.80</ele>
        <time>2013-07-07T10:02:47Z</time>
      </trkpt>
      <trkpt lat="41.541231892" lon="2.390264442">
        <ele>246.70</ele>
        <time>2013-07-07T10:02:56Z</time>
      </trkpt>
      <trkpt lat="41.541193586" lon="2.390369384">
        <ele>248.60</ele>
        <time>2013-07-07T10:03:05Z</time>
      </trkpt>
      <trkpt lat="41.541176152" lon="2.390439121">
        <ele>249.10</ele>
        <time>2013-07-07T10:03:10Z</time>
      </trkpt>
      <trkpt lat="41.541124855" lon="2.390553031">
        <ele>250.60</ele>
        <time>2013-07-07T10:03:19Z</time>
      </trkpt>
      <trkpt lat="41.541072133" lon="2.390666103">
        <ele>252.00</ele>
        <time>2013-07-07T10:03:29Z</time>
      </trkpt>
      <trkpt lat="41.541019159" lon="2.390782611">
        <ele>253.40</ele>
        <time>2013-07-07T10:03:39Z</time>
      </trkpt>
      <trkpt lat="41.540957971" lon="2.390843213">
        <ele>254.90</ele>
        <time>2013-07-07T10:03:46Z</time>
      </trkpt>
      <trkpt lat="41.540828806" lon="2.390854193">
        <ele>255.90</ele>
        <time>2013-07-07T10:03:56Z</time>
      </trkpt>
      <trkpt lat="41.540749765" lon="2.390818737">
        <ele>257.80</ele>
        <time>2013-07-07T10:04:05Z</time>
      </trkpt>
      <trkpt lat="41.540668795" lon="2.390772805">
        <ele>260.20</ele>
        <time>2013-07-07T10:04:15Z</time>
      </trkpt>
      <trkpt lat="41.540539966" lon="2.390721256">
        <ele>263.10</ele>
        <time>2013-07-07T10:04:27Z</time>
      </trkpt>
      <trkpt lat="41.540456733" lon="2.390671803">
        <ele>265.00</ele>
        <time>2013-07-07T10:04:36Z</time>
      </trkpt>
      <trkpt lat="41.540379620" lon="2.390636347">
        <ele>266.90</ele>
        <time>2013-07-07T10:04:44Z</time>
      </trkpt>
      <trkpt lat="41.540293538" lon="2.390584882">
        <ele>268.80</ele>
        <time>2013-07-07T10:04:53Z</time>
      </trkpt>
      <trkpt lat="41.540208629" lon="2.390531993">
        <ele>270.80</ele>
        <time>2013-07-07T10:05:02Z</time>
      </trkpt>
      <trkpt lat="41.540190273" lon="2.390523778">
        <ele>270.80</ele>
        <time>2013-07-07T10:05:04Z</time>
      </trkpt>
      <trkpt lat="41.540121457" lon="2.390450101">
        <ele>271.20</ele>
        <time>2013-07-07T10:05:12Z</time>
      </trkpt>
      <trkpt lat="41.540069992" lon="2.390380699">
        <ele>273.20</ele>
        <time>2013-07-07T10:05:20Z</time>
      </trkpt>
      <trkpt lat="41.540040153" lon="2.390277769">
        <ele>274.10</ele>
        <time>2013-07-07T10:05:28Z</time>
      </trkpt>
      <trkpt lat="41.539979300" lon="2.390171235">
        <ele>276.50</ele>
        <time>2013-07-07T10:05:38Z</time>
      </trkpt>
      <trkpt lat="41.539900426" lon="2.390090099">
        <ele>278.00</ele>
        <time>2013-07-07T10:05:47Z</time>
      </trkpt>
      <trkpt lat="41.539830857" lon="2.390029665">
        <ele>278.90</ele>
        <time>2013-07-07T10:05:55Z</time>
      </trkpt>
      <trkpt lat="41.539776961" lon="2.389974847">
        <ele>280.40</ele>
        <time>2013-07-07T10:06:02Z</time>
      </trkpt>
      <trkpt lat="41.539712336" lon="2.389897902">
        <ele>281.30</ele>
        <time>2013-07-07T10:06:10Z</time>
      </trkpt>
      <trkpt lat="41.539632038" lon="2.389866637">
        <ele>282.30</ele>
        <time>2013-07-07T10:06:18Z</time>
      </trkpt>
      <trkpt lat="41.539552326" lon="2.389835708">
        <ele>283.70</ele>
        <time>2013-07-07T10:06:26Z</time>
      </trkpt>
      <trkpt lat="41.539459538" lon="2.389804779">
        <ele>284.20</ele>
        <time>2013-07-07T10:06:34Z</time>
      </trkpt>
      <trkpt lat="41.539351998" lon="2.389782147">
        <ele>286.10</ele>
        <time>2013-07-07T10:06:44Z</time>
      </trkpt>
      <trkpt lat="41.539256780" lon="2.389765887">
        <ele>286.60</ele>
        <time>2013-07-07T10:06:52Z</time>
      </trkpt>
      <trkpt lat="41.539225013" lon="2.389746524">
        <ele>287.10</ele>
        <time>2013-07-07T10:06:55Z</time>
      </trkpt>
      <trkpt lat="41.539198526" lon="2.389704782">
        <ele>287.60</ele>
        <time>2013-07-07T10:06:59Z</time>
      </trkpt>
      <trkpt lat="41.539129375" lon="2.389617946">
        <ele>289.50</ele>
        <time>2013-07-07T10:07:08Z</time>
      </trkpt>
      <trkpt lat="41.539075982" lon="2.389574695">
        <ele>290.50</ele>
        <time>2013-07-07T10:07:14Z</time>
      </trkpt>
      <trkpt lat="41.539011693" lon="2.389439076">
        <ele>292.40</ele>
        <time>2013-07-07T10:07:25Z</time>
      </trkpt>
      <trkpt lat="41.538980429" lon="2.389310749">
        <ele>294.30</ele>
        <time>2013-07-07T10:07:34Z</time>
      </trkpt>
      <trkpt lat="41.538973053" lon="2.389284849">
        <ele>294.30</ele>
        <time>2013-07-07T10:07:36Z</time>
      </trkpt>
      <trkpt lat="41.538972047" lon="2.389199438">
        <ele>296.20</ele>
        <time>2013-07-07T10:07:42Z</time>
      </trkpt>
      <trkpt lat="41.538937932" lon="2.389064489">
        <ele>298.20</ele>
        <time>2013-07-07T10:07:52Z</time>
      </trkpt>
      <trkpt lat="41.538892251" lon="2.388955943">
        <ele>300.10</ele>
        <time>2013-07-07T10:08:00Z</time>
      </trkpt>
      <trkpt lat="41.538860819" lon="2.388827365">
        <ele>301.50</ele>
        <time>2013-07-07T10:08:09Z</time>
      </trkpt>
      <trkpt lat="41.538812623" lon="2.388727201">
        <ele>303.90</ele>
        <time>2013-07-07T10:08:18Z</time>
      </trkpt>
      <trkpt lat="41.538750178" lon="2.388604993">
        <ele>304.40</ele>
        <time>2013-07-07T10:08:27Z</time>
      </trkpt>
      <trkpt lat="41.538711873" lon="2.388505248">
        <ele>305.80</ele>
        <time>2013-07-07T10:08:35Z</time>
      </trkpt>
      <trkpt lat="41.538689158" lon="2.388397038">
        <ele>307.80</ele>
        <time>2013-07-07T10:08:43Z</time>
      </trkpt>
      <trkpt lat="41.538671304" lon="2.388253372">
        <ele>308.70</ele>
        <time>2013-07-07T10:08:53Z</time>
      </trkpt>
      <trkpt lat="41.538668203" lon="2.388239291">
        <ele>309.20</ele>
        <time>2013-07-07T10:08:54Z</time>
      </trkpt>
      <trkpt lat="41.538640543" lon="2.388075173">
        <ele>311.60</ele>
        <time>2013-07-07T10:09:05Z</time>
      </trkpt>
      <trkpt lat="41.538588156" lon="2.387961514">
        <ele>314.00</ele>
        <time>2013-07-07T10:09:13Z</time>
      </trkpt>
      <trkpt lat="41.538552449" lon="2.387794798">
        <ele>315.50</ele>
        <time>2013-07-07T10:09:23Z</time>
      </trkpt>
      <trkpt lat="41.538542977" lon="2.387757750">
        <ele>315.50</ele>
        <time>2013-07-07T10:09:25Z</time>
      </trkpt>
      <trkpt lat="41.538546330" lon="2.387545018">
        <ele>316.90</ele>
        <time>2013-07-07T10:09:36Z</time>
      </trkpt>
      <trkpt lat="41.538545911" lon="2.387462623">
        <ele>317.40</ele>
        <time>2013-07-07T10:09:40Z</time>
      </trkpt>
      <trkpt lat="41.538576421" lon="2.387283502">
        <ele>317.90</ele>
        <time>2013-07-07T10:09:50Z</time>
      </trkpt>
      <trkpt lat="41.538630652" lon="2.387135981">
        <ele>318.80</ele>
        <time>2013-07-07T10:10:00Z</time>
      </trkpt>
      <trkpt lat="41.538664431" lon="2.387026681">
        <ele>319.80</ele>
        <time>2013-07-07T10:10:08Z</time>
      </trkpt>
      <trkpt lat="41.538638531" lon="2.386989130">
        <ele>320.70</ele>
        <time>2013-07-07T10:10:13Z</time>
      </trkpt>
      <trkpt lat="41.538585473" lon="2.387046043">
        <ele>323.10</ele>
        <time>2013-07-07T10:10:20Z</time>
      </trkpt>
      <trkpt lat="41.538501990" lon="2.387142602">
        <ele>324.10</ele>
        <time>2013-07-07T10:10:30Z</time>
      </trkpt>
      <trkpt lat="41.538461757" lon="2.387217117">
        <ele>325.10</ele>
        <time>2013-07-07T10:10:36Z</time>
      </trkpt>
      <trkpt lat="41.538420266" lon="2.387323400">
        <ele>327.50</ele>
        <time>2013-07-07T10:10:45Z</time>
      </trkpt>
      <trkpt lat="41.538390259" lon="2.387464216">
        <ele>328.90</ele>
        <time>2013-07-07T10:10:55Z</time>
      </trkpt>
      <trkpt lat="41.538354803" lon="2.387578042">
        <ele>329.90</ele>
        <time>2013-07-07T10:11:03Z</time>
      </trkpt>
      <trkpt lat="41.538313062" lon="2.387712823">
        <ele>331.30</ele>
        <time>2013-07-07T10:11:12Z</time>
      </trkpt>
      <trkpt lat="41.538300992" lon="2.387779376">
        <ele>331.30</ele>
        <time>2013-07-07T10:11:16Z</time>
      </trkpt>
      <trkpt lat="41.538241564" lon="2.387873253">
        <ele>331.30</ele>
        <time>2013-07-07T10:11:23Z</time>
      </trkpt>
      <trkpt lat="41.538139472" lon="2.387992192">
        <ele>331.30</ele>
        <time>2013-07-07T10:11:29Z</time>
      </trkpt>
      <trkpt lat="41.538065209" lon="2.388016164">
        <ele>331.30</ele>
        <time>2013-07-07T10:11:33Z</time>
      </trkpt>
      <trkpt lat="41.538021874" lon="2.388024881">
        <ele>331.30</ele>
        <time>2013-07-07T10:11:41Z</time>
      </trkpt>
      <trkpt lat="41.537979294" lon="2.388020774">
        <ele>332.30</ele>
        <time>2013-07-07T10:11:48Z</time>
      </trkpt>
      <trkpt lat="41.537932272" lon="2.387997221">
        <ele>334.20</ele>
        <time>2013-07-07T10:11:57Z</time>
      </trkpt>
      <trkpt lat="41.537896146" lon="2.387966292">
        <ele>335.60</ele>
        <time>2013-07-07T10:12:05Z</time>
      </trkpt>
      <trkpt lat="41.537851973" lon="2.387943326">
        <ele>337.10</ele>
        <time>2013-07-07T10:12:14Z</time>
      </trkpt>
      <trkpt lat="41.537808052" lon="2.387925724">
        <ele>338.00</ele>
        <time>2013-07-07T10:12:22Z</time>
      </trkpt>
      <trkpt lat="41.537767567" lon="2.387898818">
        <ele>340.00</ele>
        <time>2013-07-07T10:12:31Z</time>
      </trkpt>
      <trkpt lat="41.537731944" lon="2.387882808">
        <ele>341.40</ele>
        <time>2013-07-07T10:12:39Z</time>
      </trkpt>
      <trkpt lat="41.537706715" lon="2.387868978">
        <ele>341.90</ele>
        <time>2013-07-07T10:12:46Z</time>
      </trkpt>
      <trkpt lat="41.537672433" lon="2.387858165">
        <ele>343.80</ele>
        <time>2013-07-07T10:12:54Z</time>
      </trkpt>
      <trkpt lat="41.537631948" lon="2.387834696">
        <ele>345.70</ele>
        <time>2013-07-07T10:13:03Z</time>
      </trkpt>
      <trkpt lat="41.537602611" lon="2.387816340">
        <ele>346.70</ele>
        <time>2013-07-07T10:13:10Z</time>
      </trkpt>
      <trkpt lat="41.537566150" lon="2.387790607">
        <ele>347.70</ele>
        <time>2013-07-07T10:13:18Z</time>
      </trkpt>
      <trkpt lat="41.537508734" lon="2.387758337">
        <ele>348.10</ele>
        <time>2013-07-07T10:13:27Z</time>
      </trkpt>
      <trkpt lat="41.537452659" lon="2.387729922">
        <ele>349.60</ele>
        <time>2013-07-07T10:13:36Z</time>
      </trkpt>
      <trkpt lat="41.537391136" lon="2.387691282">
        <ele>351.00</ele>
        <time>2013-07-07T10:13:47Z</time>
      </trkpt>
      <trkpt lat="41.537327936" lon="2.387664795">
        <ele>352.00</ele>
        <time>2013-07-07T10:13:56Z</time>
      </trkpt>
      <trkpt lat="41.537278735" lon="2.387644595">
        <ele>352.50</ele>
        <time>2013-07-07T10:14:06Z</time>
      </trkpt>
      <trkpt lat="41.537252332" lon="2.387625651">
        <ele>352.90</ele>
        <time>2013-07-07T10:14:20Z</time>
      </trkpt>
      <trkpt lat="41.537201286" lon="2.387600422">
        <ele>354.40</ele>
        <time>2013-07-07T10:14:28Z</time>
      </trkpt>
      <trkpt lat="41.537141691" lon="2.387572426">
        <ele>355.80</ele>
        <time>2013-07-07T10:14:38Z</time>
      </trkpt>
      <trkpt lat="41.537092992" lon="2.387520710">
        <ele>356.80</ele>
        <time>2013-07-07T10:14:48Z</time>
      </trkpt>
      <trkpt lat="41.537059716" lon="2.387466479">
        <ele>357.80</ele>
        <time>2013-07-07T10:14:57Z</time>
      </trkpt>
      <trkpt lat="41.537044963" lon="2.387427084">
        <ele>358.70</ele>
        <time>2013-07-07T10:15:04Z</time>
      </trkpt>
      <trkpt lat="41.537043287" lon="2.387352234">
        <ele>360.60</ele>
        <time>2013-07-07T10:15:15Z</time>
      </trkpt>
      <trkpt lat="41.537075222" lon="2.387267660">
        <ele>361.60</ele>
        <time>2013-07-07T10:15:27Z</time>
      </trkpt>
      <trkpt lat="41.537104056" lon="2.387201276">
        <ele>363.00</ele>
        <time>2013-07-07T10:15:36Z</time>
      </trkpt>
      <trkpt lat="41.537131800" lon="2.387155008">
        <ele>364.00</ele>
        <time>2013-07-07T10:15:45Z</time>
      </trkpt>
      <trkpt lat="41.537158790" lon="2.387122821">
        <ele>365.40</ele>
        <time>2013-07-07T10:15:53Z</time>
      </trkpt>
      <trkpt lat="41.537185528" lon="2.387099603">
        <ele>365.90</ele>
        <time>2013-07-07T10:16:01Z</time>
      </trkpt>
      <trkpt lat="41.537227437" lon="2.387066159">
        <ele>367.80</ele>
        <time>2013-07-07T10:16:11Z</time>
      </trkpt>
      <trkpt lat="41.537267671" lon="2.387023495">
        <ele>369.30</ele>
        <time>2013-07-07T10:16:20Z</time>
      </trkpt>
      <trkpt lat="41.537300276" lon="2.386979323">
        <ele>370.70</ele>
        <time>2013-07-07T10:16:29Z</time>
      </trkpt>
      <trkpt lat="41.537330367" lon="2.386943532">
        <ele>371.20</ele>
        <time>2013-07-07T10:16:36Z</time>
      </trkpt>
      <trkpt lat="41.537335815" lon="2.386924673">
        <ele>370.70</ele>
        <time>2013-07-07T10:16:43Z</time>
      </trkpt>
      <trkpt lat="41.537375713" lon="2.386909753">
        <ele>371.70</ele>
        <time>2013-07-07T10:16:53Z</time>
      </trkpt>
      <trkpt lat="41.537392561" lon="2.386923918">
        <ele>371.70</ele>
        <time>2013-07-07T10:16:59Z</time>
      </trkpt>
      <trkpt lat="41.537385939" lon="2.386929534">
        <ele>371.70</ele>
        <time>2013-07-07T10:17:18Z</time>
      </trkpt>
      <trkpt lat="41.537384850" lon="2.386943113">
        <ele>371.70</ele>
        <time>2013-07-07T10:17:43Z</time>
      </trkpt>
      <trkpt lat="41.537393651" lon="2.386948477">
        <ele>371.70</ele>
        <time>2013-07-07T10:18:04Z</time>
      </trkpt>
      <trkpt lat="41.537397422" lon="2.386948477">
        <ele>372.20</ele>
        <time>2013-07-07T10:18:39Z</time>
      </trkpt>
      <trkpt lat="41.537398344" lon="2.386941604">
        <ele>372.20</ele>
        <time>2013-07-07T10:19:11Z</time>
      </trkpt>
      <trkpt lat="41.537391723" lon="2.386940263">
        <ele>372.20</ele>
        <time>2013-07-07T10:19:38Z</time>
      </trkpt>
      <trkpt lat="41.537392561" lon="2.386926433">
        <ele>372.20</ele>
        <time>2013-07-07T10:20:06Z</time>
      </trkpt>
      <trkpt lat="41.537392393" lon="2.386939593">
        <ele>372.20</ele>
        <time>2013-07-07T10:20:36Z</time>
      </trkpt>
      <trkpt lat="41.537393064" lon="2.386942862">
        <ele>372.70</ele>
        <time>2013-07-07T10:21:07Z</time>
      </trkpt>
      <trkpt lat="41.537396500" lon="2.386941269">
        <ele>372.70</ele>
        <time>2013-07-07T10:21:30Z</time>
      </trkpt>
      <trkpt lat="41.537403625" lon="2.386939006">
        <ele>372.70</ele>
        <time>2013-07-07T10:21:59Z</time>
      </trkpt>
      <trkpt lat="41.537403793" lon="2.386948226">
        <ele>372.70</ele>
        <time>2013-07-07T10:22:28Z</time>
      </trkpt>
      <trkpt lat="41.537402619" lon="2.386941101">
        <ele>372.70</ele>
        <time>2013-07-07T10:22:54Z</time>
      </trkpt>
      <trkpt lat="41.537403206" lon="2.386937581">
        <ele>372.70</ele>
        <time>2013-07-07T10:23:11Z</time>
      </trkpt>
      <trkpt lat="41.537403206" lon="2.386940431">
        <ele>372.70</ele>
        <time>2013-07-07T10:23:34Z</time>
      </trkpt>
      <trkpt lat="41.537397842" lon="2.386935905">
        <ele>372.70</ele>
        <time>2013-07-07T10:24:04Z</time>
      </trkpt>
      <trkpt lat="41.537398931" lon="2.386944203">
        <ele>373.10</ele>
        <time>2013-07-07T10:24:30Z</time>
      </trkpt>
      <trkpt lat="41.537394740" lon="2.386943113">
        <ele>373.10</ele>
        <time>2013-07-07T10:24:54Z</time>
      </trkpt>
      <trkpt lat="41.537396417" lon="2.386950657">
        <ele>373.10</ele>
        <time>2013-07-07T10:25:21Z</time>
      </trkpt>
      <trkpt lat="41.537394154" lon="2.386943700">
        <ele>373.10</ele>
        <time>2013-07-07T10:25:44Z</time>
      </trkpt>
      <trkpt lat="41.537395243" lon="2.386938335">
        <ele>373.60</ele>
        <time>2013-07-07T10:26:01Z</time>
      </trkpt>
      <trkpt lat="41.537394321" lon="2.386947388">
        <ele>373.60</ele>
        <time>2013-07-07T10:26:16Z</time>
      </trkpt>
      <trkpt lat="41.537398261" lon="2.386944706">
        <ele>373.60</ele>
        <time>2013-07-07T10:26:43Z</time>
      </trkpt>
      <trkpt lat="41.537400691" lon="2.386948477">
        <ele>373.60</ele>
        <time>2013-07-07T10:27:07Z</time>
      </trkpt>
      <trkpt lat="41.537404882" lon="2.386953171">
        <ele>373.60</ele>
        <time>2013-07-07T10:27:37Z</time>
      </trkpt>
      <trkpt lat="41.537405469" lon="2.386950321">
        <ele>373.60</ele>
        <time>2013-07-07T10:27:59Z</time>
      </trkpt>
      <trkpt lat="41.537409241" lon="2.386952836">
        <ele>373.60</ele>
        <time>2013-07-07T10:28:22Z</time>
      </trkpt>
      <trkpt lat="41.537405804" lon="2.386948897">
        <ele>373.60</ele>
        <time>2013-07-07T10:28:51Z</time>
      </trkpt>
      <trkpt lat="41.537402200" lon="2.386945460">
        <ele>373.60</ele>
        <time>2013-07-07T10:29:08Z</time>
      </trkpt>
      <trkpt lat="41.537402871" lon="2.386942191">
        <ele>373.60</ele>
        <time>2013-07-07T10:29:32Z</time>
      </trkpt>
      <trkpt lat="41.537405804" lon="2.386946298">
        <ele>373.60</ele>
        <time>2013-07-07T10:29:48Z</time>
      </trkpt>
      <trkpt lat="41.537405050" lon="2.386944622">
        <ele>373.60</ele>
        <time>2013-07-07T10:30:17Z</time>
      </trkpt>
      <trkpt lat="41.537403709" lon="2.386949399">
        <ele>373.60</ele>
        <time>2013-07-07T10:30:47Z</time>
      </trkpt>
      <trkpt lat="41.537407397" lon="2.386948310">
        <ele>374.10</ele>
        <time>2013-07-07T10:31:11Z</time>
      </trkpt>
      <trkpt lat="41.537406978" lon="2.386950992">
        <ele>374.10</ele>
        <time>2013-07-07T10:31:28Z</time>
      </trkpt>
      <trkpt lat="41.537408654" lon="2.386959542">
        <ele>374.10</ele>
        <time>2013-07-07T10:31:47Z</time>
      </trkpt>
      <trkpt lat="41.537407313" lon="2.386957949">
        <ele>374.10</ele>
        <time>2013-07-07T10:32:04Z</time>
      </trkpt>
      <trkpt lat="41.537410582" lon="2.386961469">
        <ele>374.10</ele>
        <time>2013-07-07T10:32:21Z</time>
      </trkpt>
      <trkpt lat="41.537411672" lon="2.386964068">
        <ele>374.10</ele>
        <time>2013-07-07T10:32:37Z</time>
      </trkpt>
      <trkpt lat="41.537412594" lon="2.386962727">
        <ele>374.10</ele>
        <time>2013-07-07T10:32:50Z</time>
      </trkpt>
      <trkpt lat="41.537409492" lon="2.386963397">
        <ele>374.10</ele>
        <time>2013-07-07T10:33:05Z</time>
      </trkpt>
      <trkpt lat="41.537413348" lon="2.386964319">
        <ele>374.10</ele>
        <time>2013-07-07T10:33:28Z</time>
      </trkpt>
      <trkpt lat="41.537414102" lon="2.386965241">
        <ele>374.10</ele>
        <time>2013-07-07T10:33:45Z</time>
      </trkpt>
      <trkpt lat="41.537412845" lon="2.386962894">
        <ele>373.60</ele>
        <time>2013-07-07T10:34:05Z</time>
      </trkpt>
      <trkpt lat="41.537411420" lon="2.386951663">
        <ele>373.60</ele>
        <time>2013-07-07T10:34:20Z</time>
      </trkpt>
      <trkpt lat="41.537407984" lon="2.386945711">
        <ele>374.10</ele>
        <time>2013-07-07T10:34:38Z</time>
      </trkpt>
      <trkpt lat="41.537400943" lon="2.386943197">
        <ele>374.10</ele>
        <time>2013-07-07T10:34:57Z</time>
      </trkpt>
      <trkpt lat="41.537406307" lon="2.386941520">
        <ele>374.10</ele>
        <time>2013-07-07T10:35:15Z</time>
      </trkpt>
      <trkpt lat="41.537410498" lon="2.386938252">
        <ele>374.10</ele>
        <time>2013-07-07T10:35:29Z</time>
      </trkpt>
      <trkpt lat="41.537414941" lon="2.386940263">
        <ele>374.10</ele>
        <time>2013-07-07T10:35:53Z</time>
      </trkpt>
      <trkpt lat="41.537418545" lon="2.386942778">
        <ele>374.10</ele>
        <time>2013-07-07T10:36:10Z</time>
      </trkpt>
      <trkpt lat="41.537416449" lon="2.386939006">
        <ele>374.10</ele>
        <time>2013-07-07T10:36:30Z</time>
      </trkpt>
      <trkpt lat="41.537414773" lon="2.386936910">
        <ele>374.10</ele>
        <time>2013-07-07T10:36:46Z</time>
      </trkpt>
      <trkpt lat="41.537412091" lon="2.386936240">
        <ele>374.10</ele>
        <time>2013-07-07T10:36:57Z</time>
      </trkpt>
      <trkpt lat="41.537416617" lon="2.386944454">
        <ele>374.10</ele>
        <time>2013-07-07T10:37:20Z</time>
      </trkpt>
      <trkpt lat="41.537419635" lon="2.386938084">
        <ele>374.10</ele>
        <time>2013-07-07T10:37:47Z</time>
      </trkpt>
      <trkpt lat="41.537423742" lon="2.386945795">
        <ele>374.10</ele>
        <time>2013-07-07T10:38:07Z</time>
      </trkpt>
      <trkpt lat="41.537423993" lon="2.386951579">
        <ele>374.10</ele>
        <time>2013-07-07T10:38:21Z</time>
      </trkpt>
      <trkpt lat="41.537430447" lon="2.386960883">
        <ele>374.10</ele>
        <time>2013-07-07T10:38:43Z</time>
      </trkpt>
      <trkpt lat="41.537432626" lon="2.386957530">
        <ele>374.10</ele>
        <time>2013-07-07T10:39:03Z</time>
      </trkpt>
      <trkpt lat="41.537429777" lon="2.386957781">
        <ele>374.10</ele>
        <time>2013-07-07T10:39:28Z</time>
      </trkpt>
      <trkpt lat="41.537427765" lon="2.386963397">
        <ele>374.10</ele>
        <time>2013-07-07T10:39:45Z</time>
      </trkpt>
      <trkpt lat="41.537433800" lon="2.386964738">
        <ele>374.60</ele>
        <time>2013-07-07T10:40:07Z</time>
      </trkpt>
      <trkpt lat="41.537433548" lon="2.386965409">
        <ele>374.60</ele>
        <time>2013-07-07T10:40:24Z</time>
      </trkpt>
      <trkpt lat="41.537427346" lon="2.386948142">
        <ele>374.60</ele>
        <time>2013-07-07T10:40:39Z</time>
      </trkpt>
      <trkpt lat="41.537428436" lon="2.386948813">
        <ele>374.60</ele>
        <time>2013-07-07T10:40:59Z</time>
      </trkpt>
      <trkpt lat="41.537418377" lon="2.386946382">
        <ele>374.60</ele>
        <time>2013-07-07T10:41:14Z</time>
      </trkpt>
      <trkpt lat="41.537415695" lon="2.386944119">
        <ele>374.60</ele>
        <time>2013-07-07T10:41:29Z</time>
      </trkpt>
      <trkpt lat="41.537415946" lon="2.386944035">
        <ele>374.60</ele>
        <time>2013-07-07T10:41:41Z</time>
      </trkpt>
      <trkpt lat="41.537415108" lon="2.386944454">
        <ele>374.60</ele>
        <time>2013-07-07T10:42:05Z</time>
      </trkpt>
      <trkpt lat="41.537414270" lon="2.386949148">
        <ele>375.10</ele>
        <time>2013-07-07T10:42:29Z</time>
      </trkpt>
      <trkpt lat="41.537412258" lon="2.386946550">
        <ele>375.10</ele>
        <time>2013-07-07T10:42:44Z</time>
      </trkpt>
      <trkpt lat="41.537405888" lon="2.386945711">
        <ele>375.10</ele>
        <time>2013-07-07T10:43:05Z</time>
      </trkpt>
      <trkpt lat="41.537401111" lon="2.386938838">
        <ele>375.10</ele>
        <time>2013-07-07T10:43:22Z</time>
      </trkpt>
      <trkpt lat="41.537407062" lon="2.386945376">
        <ele>375.10</ele>
        <time>2013-07-07T10:43:38Z</time>
      </trkpt>
      <trkpt lat="41.537406140" lon="2.386939425">
        <ele>375.10</ele>
        <time>2013-07-07T10:43:52Z</time>
      </trkpt>
      <trkpt lat="41.537405888" lon="2.386942610">
        <ele>375.10</ele>
        <time>2013-07-07T10:44:11Z</time>
      </trkpt>
      <trkpt lat="41.537394740" lon="2.386931714">
        <ele>375.10</ele>
        <time>2013-07-07T10:44:27Z</time>
      </trkpt>
      <trkpt lat="41.537375127" lon="2.386920482">
        <ele>375.10</ele>
        <time>2013-07-07T10:44:35Z</time>
      </trkpt>
      <trkpt lat="41.537357273" lon="2.386920817">
        <ele>375.10</ele>
        <time>2013-07-07T10:44:44Z</time>
      </trkpt>
      <trkpt lat="41.537353250" lon="2.386911010">
        <ele>375.10</ele>
        <time>2013-07-07T10:44:59Z</time>
      </trkpt>
      <trkpt lat="41.537328775" lon="2.386917716">
        <ele>375.10</ele>
        <time>2013-07-07T10:45:11Z</time>
      </trkpt>
      <trkpt lat="41.537315531" lon="2.386937078">
        <ele>375.10</ele>
        <time>2013-07-07T10:45:16Z</time>
      </trkpt>
      <trkpt lat="41.537267754" lon="2.386987789">
        <ele>373.60</ele>
        <time>2013-07-07T10:45:22Z</time>
      </trkpt>
      <trkpt lat="41.537159879" lon="2.387087869">
        <ele>369.80</ele>
        <time>2013-07-07T10:45:29Z</time>
      </trkpt>
      <trkpt lat="41.537061224" lon="2.387235809">
        <ele>366.40</ele>
        <time>2013-07-07T10:45:34Z</time>
      </trkpt>
      <trkpt lat="41.537035408" lon="2.387311498">
        <ele>365.40</ele>
        <time>2013-07-07T10:45:37Z</time>
      </trkpt>
      <trkpt lat="41.537051418" lon="2.387444686">
        <ele>363.50</ele>
        <time>2013-07-07T10:45:44Z</time>
      </trkpt>
      <trkpt lat="41.537149402" lon="2.387574522">
        <ele>360.60</ele>
        <time>2013-07-07T10:45:51Z</time>
      </trkpt>
      <trkpt lat="41.537339084" lon="2.387661023">
        <ele>357.30</ele>
        <time>2013-07-07T10:45:58Z</time>
      </trkpt>
      <trkpt lat="41.537514350" lon="2.387727575">
        <ele>354.40</ele>
        <time>2013-07-07T10:46:04Z</time>
      </trkpt>
      <trkpt lat="41.537576041" lon="2.387768479">
        <ele>352.90</ele>
        <time>2013-07-07T10:46:08Z</time>
      </trkpt>
      <trkpt lat="41.537629517" lon="2.387790356">
        <ele>351.00</ele>
        <time>2013-07-07T10:46:12Z</time>
      </trkpt>
      <trkpt lat="41.537747870" lon="2.387855483">
        <ele>347.20</ele>
        <time>2013-07-07T10:46:17Z</time>
      </trkpt>
      <trkpt lat="41.537865803" lon="2.387931759">
        <ele>342.90</ele>
        <time>2013-07-07T10:46:21Z</time>
      </trkpt>
      <trkpt lat="41.537973343" lon="2.388003675">
        <ele>339.50</ele>
        <time>2013-07-07T10:46:25Z</time>
      </trkpt>
      <trkpt lat="41.538121284" lon="2.387986995">
        <ele>337.10</ele>
        <time>2013-07-07T10:46:31Z</time>
      </trkpt>
      <trkpt lat="41.538202169" lon="2.387904014">
        <ele>337.10</ele>
        <time>2013-07-07T10:46:37Z</time>
      </trkpt>
      <trkpt lat="41.538274002" lon="2.387751967">
        <ele>337.10</ele>
        <time>2013-07-07T10:46:44Z</time>
      </trkpt>
      <trkpt lat="41.538321611" lon="2.387592543">
        <ele>337.10</ele>
        <time>2013-07-07T10:46:48Z</time>
      </trkpt>
      <trkpt lat="41.538413477" lon="2.387295153">
        <ele>334.20</ele>
        <time>2013-07-07T10:46:54Z</time>
      </trkpt>
      <trkpt lat="41.538439209" lon="2.387232624">
        <ele>333.20</ele>
        <time>2013-07-07T10:46:55Z</time>
      </trkpt>
      <trkpt lat="41.538501068" lon="2.387130029">
        <ele>332.30</ele>
        <time>2013-07-07T10:46:57Z</time>
      </trkpt>
      <trkpt lat="41.538560998" lon="2.387064902">
        <ele>330.80</ele>
        <time>2013-07-07T10:46:59Z</time>
      </trkpt>
      <trkpt lat="41.538632999" lon="2.386985190">
        <ele>328.40</ele>
        <time>2013-07-07T10:47:03Z</time>
      </trkpt>
      <trkpt lat="41.538631742" lon="2.387075631">
        <ele>327.00</ele>
        <time>2013-07-07T10:47:10Z</time>
      </trkpt>
      <trkpt lat="41.538536355" lon="2.387282748">
        <ele>325.50</ele>
        <time>2013-07-07T10:47:15Z</time>
      </trkpt>
      <trkpt lat="41.538506264" lon="2.387403363">
        <ele>325.50</ele>
        <time>2013-07-07T10:47:18Z</time>
      </trkpt>
      <trkpt lat="41.538495955" lon="2.387715338">
        <ele>323.60</ele>
        <time>2013-07-07T10:47:25Z</time>
      </trkpt>
      <trkpt lat="41.538558651" lon="2.387923963">
        <ele>321.70</ele>
        <time>2013-07-07T10:47:29Z</time>
      </trkpt>
      <trkpt lat="41.538593269" lon="2.388039550">
        <ele>319.80</ele>
        <time>2013-07-07T10:47:31Z</time>
      </trkpt>
      <trkpt lat="41.538619839" lon="2.388170307">
        <ele>318.30</ele>
        <time>2013-07-07T10:47:33Z</time>
      </trkpt>
      <trkpt lat="41.538636435" lon="2.388298970">
        <ele>315.90</ele>
        <time>2013-07-07T10:47:35Z</time>
      </trkpt>
      <trkpt lat="41.538725032" lon="2.388598120">
        <ele>313.10</ele>
        <time>2013-07-07T10:47:39Z</time>
      </trkpt>
      <trkpt lat="41.538824609" lon="2.388854941">
        <ele>309.70</ele>
        <time>2013-07-07T10:47:43Z</time>
      </trkpt>
      <trkpt lat="41.538861992" lon="2.388973294">
        <ele>307.80</ele>
        <time>2013-07-07T10:47:45Z</time>
      </trkpt>
      <trkpt lat="41.538939274" lon="2.389224919">
        <ele>304.40</ele>
        <time>2013-07-07T10:47:50Z</time>
      </trkpt>
      <trkpt lat="41.538947320" lon="2.389344444">
        <ele>302.50</ele>
        <time>2013-07-07T10:47:53Z</time>
      </trkpt>
      <trkpt lat="41.538933239" lon="2.389573103">
        <ele>302.00</ele>
        <time>2013-07-07T10:47:59Z</time>
      </trkpt>
      <trkpt lat="41.539008760" lon="2.389748033">
        <ele>303.40</ele>
        <time>2013-07-07T10:48:05Z</time>
      </trkpt>
      <trkpt lat="41.539030469" lon="2.389800001">
        <ele>303.90</ele>
        <time>2013-07-07T10:48:07Z</time>
      </trkpt>
      <trkpt lat="41.539056285" lon="2.390001586">
        <ele>305.80</ele>
        <time>2013-07-07T10:48:15Z</time>
      </trkpt>
      <trkpt lat="41.539051340" lon="2.390108371">
        <ele>306.80</ele>
        <time>2013-07-07T10:48:20Z</time>
      </trkpt>
      <trkpt lat="41.539052848" lon="2.390332671">
        <ele>307.30</ele>
        <time>2013-07-07T10:48:28Z</time>
      </trkpt>
      <trkpt lat="41.539054944" lon="2.390419591">
        <ele>307.30</ele>
        <time>2013-07-07T10:48:30Z</time>
      </trkpt>
      <trkpt lat="41.539075647" lon="2.390596449">
        <ele>303.90</ele>
        <time>2013-07-07T10:48:33Z</time>
      </trkpt>
      <trkpt lat="41.539093752" lon="2.390667276">
        <ele>303.00</ele>
        <time>2013-07-07T10:48:34Z</time>
      </trkpt>
      <trkpt lat="41.539117389" lon="2.391043540">
        <ele>299.10</ele>
        <time>2013-07-07T10:48:39Z</time>
      </trkpt>
      <trkpt lat="41.539069445" lon="2.391364399">
        <ele>295.70</ele>
        <time>2013-07-07T10:48:43Z</time>
      </trkpt>
      <trkpt lat="41.539015717" lon="2.391499264">
        <ele>294.80</ele>
        <time>2013-07-07T10:48:45Z</time>
      </trkpt>
      <trkpt lat="41.538879846" lon="2.391807970">
        <ele>292.90</ele>
        <time>2013-07-07T10:48:49Z</time>
      </trkpt>
      <trkpt lat="41.538785466" lon="2.392041070">
        <ele>294.30</ele>
        <time>2013-07-07T10:48:54Z</time>
      </trkpt>
      <trkpt lat="41.538651607" lon="2.392244834">
        <ele>291.90</ele>
        <time>2013-07-07T10:49:00Z</time>
      </trkpt>
      <trkpt lat="41.538490255" lon="2.392395038">
        <ele>290.00</ele>
        <time>2013-07-07T10:49:04Z</time>
      </trkpt>
      <trkpt lat="41.538457314" lon="2.392442312">
        <ele>289.00</ele>
        <time>2013-07-07T10:49:05Z</time>
      </trkpt>
      <trkpt lat="41.538400233" lon="2.392526634">
        <ele>288.50</ele>
        <time>2013-07-07T10:49:07Z</time>
      </trkpt>
      <trkpt lat="41.538280624" lon="2.392763088">
        <ele>285.70</ele>
        <time>2013-07-07T10:49:12Z</time>
      </trkpt>
      <trkpt lat="41.538221783" lon="2.392914465">
        <ele>285.20</ele>
        <time>2013-07-07T10:49:15Z</time>
      </trkpt>
      <trkpt lat="41.537998321" lon="2.392981855">
        <ele>281.30</ele>
        <time>2013-07-07T10:49:21Z</time>
      </trkpt>
      <trkpt lat="41.537931936" lon="2.392931983">
        <ele>279.40</ele>
        <time>2013-07-07T10:49:23Z</time>
      </trkpt>
      <trkpt lat="41.537635636" lon="2.392811786">
        <ele>275.60</ele>
        <time>2013-07-07T10:49:29Z</time>
      </trkpt>
      <trkpt lat="41.537410414" lon="2.392703827">
        <ele>271.70</ele>
        <time>2013-07-07T10:49:34Z</time>
      </trkpt>
      <trkpt lat="41.537372109" lon="2.392680358">
        <ele>270.80</ele>
        <time>2013-07-07T10:49:35Z</time>
      </trkpt>
      <trkpt lat="41.537286781" lon="2.392643897">
        <ele>269.30</ele>
        <time>2013-07-07T10:49:37Z</time>
      </trkpt>
      <trkpt lat="41.537169854" lon="2.392647836">
        <ele>268.80</ele>
        <time>2013-07-07T10:49:42Z</time>
      </trkpt>
      <trkpt lat="41.537156610" lon="2.392673485">
        <ele>268.40</ele>
        <time>2013-07-07T10:49:54Z</time>
      </trkpt>
      <trkpt lat="41.537159041" lon="2.392684465">
        <ele>268.40</ele>
        <time>2013-07-07T10:50:20Z</time>
      </trkpt>
      <trkpt lat="41.537141104" lon="2.392695613">
        <ele>268.40</ele>
        <time>2013-07-07T10:50:31Z</time>
      </trkpt>
      <trkpt lat="41.537082598" lon="2.392718496">
        <ele>268.40</ele>
        <time>2013-07-07T10:50:35Z</time>
      </trkpt>
      <trkpt lat="41.536919738" lon="2.392739786">
        <ele>267.40</ele>
        <time>2013-07-07T10:50:43Z</time>
      </trkpt>
      <trkpt lat="41.536884450" lon="2.392740624">
        <ele>266.90</ele>
        <time>2013-07-07T10:50:44Z</time>
      </trkpt>
      <trkpt lat="41.536724020" lon="2.392799465">
        <ele>265.00</ele>
        <time>2013-07-07T10:50:48Z</time>
      </trkpt>
      <trkpt lat="41.536498966" lon="2.392933911">
        <ele>262.10</ele>
        <time>2013-07-07T10:50:53Z</time>
      </trkpt>
      <trkpt lat="41.536443478" lon="2.392965510">
        <ele>261.10</ele>
        <time>2013-07-07T10:50:54Z</time>
      </trkpt>
      <trkpt lat="41.536267542" lon="2.393032314">
        <ele>258.30</ele>
        <time>2013-07-07T10:50:57Z</time>
      </trkpt>
      <trkpt lat="41.536054055" lon="2.393162820">
        <ele>253.90</ele>
        <time>2013-07-07T10:51:02Z</time>
      </trkpt>
      <trkpt lat="41.536062437" lon="2.393317215">
        <ele>253.90</ele>
        <time>2013-07-07T10:51:06Z</time>
      </trkpt>
      <trkpt lat="41.536095210" lon="2.393582419">
        <ele>251.50</ele>
        <time>2013-07-07T10:51:11Z</time>
      </trkpt>
      <trkpt lat="41.536091354" lon="2.393689120">
        <ele>249.60</ele>
        <time>2013-07-07T10:51:13Z</time>
      </trkpt>
      <trkpt lat="41.536065454" lon="2.393941164">
        <ele>244.80</ele>
        <time>2013-07-07T10:51:18Z</time>
      </trkpt>
      <trkpt lat="41.536138461" lon="2.394215755">
        <ele>241.00</ele>
        <time>2013-07-07T10:51:22Z</time>
      </trkpt>
      <trkpt lat="41.536225632" lon="2.394409293">
        <ele>237.60</ele>
        <time>2013-07-07T10:51:24Z</time>
      </trkpt>
      <trkpt lat="41.536314983" lon="2.394632587">
        <ele>234.70</ele>
        <time>2013-07-07T10:51:26Z</time>
      </trkpt>
      <trkpt lat="41.536530231" lon="2.395099627">
        <ele>231.30</ele>
        <time>2013-07-07T10:51:30Z</time>
      </trkpt>
      <trkpt lat="41.536741790" lon="2.395596003">
        <ele>228.00</ele>
        <time>2013-07-07T10:51:35Z</time>
      </trkpt>
      <trkpt lat="41.536816557" lon="2.395761881">
        <ele>227.00</ele>
        <time>2013-07-07T10:51:37Z</time>
      </trkpt>
      <trkpt lat="41.536905824" lon="2.396038065">
        <ele>226.50</ele>
        <time>2013-07-07T10:51:40Z</time>
      </trkpt>
      <trkpt lat="41.537081006" lon="2.396376107">
        <ele>225.10</ele>
        <time>2013-07-07T10:51:45Z</time>
      </trkpt>
      <trkpt lat="41.537303210" lon="2.396754634">
        <ele>224.60</ele>
        <time>2013-07-07T10:51:53Z</time>
      </trkpt>
      <trkpt lat="41.537360626" lon="2.396885978">
        <ele>224.60</ele>
        <time>2013-07-07T10:51:55Z</time>
      </trkpt>
      <trkpt lat="41.537410498" lon="2.397112960">
        <ele>223.20</ele>
        <time>2013-07-07T10:51:58Z</time>
      </trkpt>
      <trkpt lat="41.537401362" lon="2.397368021">
        <ele>220.30</ele>
        <time>2013-07-07T10:52:02Z</time>
      </trkpt>
      <trkpt lat="41.537369008" lon="2.397494085">
        <ele>218.40</ele>
        <time>2013-07-07T10:52:04Z</time>
      </trkpt>
      <trkpt lat="41.537354004" lon="2.397826595">
        <ele>214.00</ele>
        <time>2013-07-07T10:52:08Z</time>
      </trkpt>
      <trkpt lat="41.537362135" lon="2.397889711">
        <ele>213.10</ele>
        <time>2013-07-07T10:52:09Z</time>
      </trkpt>
      <trkpt lat="41.537459029" lon="2.398288354">
        <ele>210.70</ele>
        <time>2013-07-07T10:52:15Z</time>
      </trkpt>
      <trkpt lat="41.537524073" lon="2.398420788">
        <ele>209.70</ele>
        <time>2013-07-07T10:52:17Z</time>
      </trkpt>
      <trkpt lat="41.537623482" lon="2.398725806">
        <ele>207.80</ele>
        <time>2013-07-07T10:52:21Z</time>
      </trkpt>
      <trkpt lat="41.537664721" lon="2.399133669">
        <ele>203.90</ele>
        <time>2013-07-07T10:52:26Z</time>
      </trkpt>
      <trkpt lat="41.537590961" lon="2.399450254">
        <ele>201.10</ele>
        <time>2013-07-07T10:52:30Z</time>
      </trkpt>
      <trkpt lat="41.537558523" lon="2.399661729">
        <ele>198.20</ele>
        <time>2013-07-07T10:52:33Z</time>
      </trkpt>
      <trkpt lat="41.537559528" lon="2.399717469">
        <ele>197.20</ele>
        <time>2013-07-07T10:52:34Z</time>
      </trkpt>
      <trkpt lat="41.537570676" lon="2.399841353">
        <ele>196.30</ele>
        <time>2013-07-07T10:52:36Z</time>
      </trkpt>
      <trkpt lat="41.537507812" lon="2.400147796">
        <ele>193.40</ele>
        <time>2013-07-07T10:52:40Z</time>
      </trkpt>
      <trkpt lat="41.537431956" lon="2.400297664">
        <ele>192.40</ele>
        <time>2013-07-07T10:52:42Z</time>
      </trkpt>
      <trkpt lat="41.537126519" lon="2.400731511">
        <ele>188.10</ele>
        <time>2013-07-07T10:52:48Z</time>
      </trkpt>
      <trkpt lat="41.536907584" lon="2.400982801">
        <ele>183.80</ele>
        <time>2013-07-07T10:52:52Z</time>
      </trkpt>
      <trkpt lat="41.536850084" lon="2.401075086">
        <ele>181.80</ele>
        <time>2013-07-07T10:52:54Z</time>
      </trkpt>
      <trkpt lat="41.536914625" lon="2.401306007">
        <ele>178.90</ele>
        <time>2013-07-07T10:52:59Z</time>
      </trkpt>
      <trkpt lat="41.537001629" lon="2.401366441">
        <ele>177.50</ele>
        <time>2013-07-07T10:53:01Z</time>
      </trkpt>
      <trkpt lat="41.537315531" lon="2.401458893">
        <ele>172.70</ele>
        <time>2013-07-07T10:53:06Z</time>
      </trkpt>
      <trkpt lat="41.537373953" lon="2.401468197">
        <ele>171.70</ele>
        <time>2013-07-07T10:53:07Z</time>
      </trkpt>
      <trkpt lat="41.537490629" lon="2.401456295">
        <ele>170.80</ele>
        <time>2013-07-07T10:53:09Z</time>
      </trkpt>
      <trkpt lat="41.537553745" lon="2.401445147">
        <ele>169.30</ele>
        <time>2013-07-07T10:53:10Z</time>
      </trkpt>
      <trkpt lat="41.537881310" lon="2.401357053">
        <ele>166.00</ele>
        <time>2013-07-07T10:53:14Z</time>
      </trkpt>
      <trkpt lat="41.538164534" lon="2.401216404">
        <ele>164.50</ele>
        <time>2013-07-07T10:53:18Z</time>
      </trkpt>
      <trkpt lat="41.538352792" lon="2.401087575">
        <ele>161.60</ele>
        <time>2013-07-07T10:53:21Z</time>
      </trkpt>
      <trkpt lat="41.538450441" lon="2.401010126">
        <ele>159.20</ele>
        <time>2013-07-07T10:53:23Z</time>
      </trkpt>
      <trkpt lat="41.538590083" lon="2.401052371">
        <ele>156.80</ele>
        <time>2013-07-07T10:53:28Z</time>
      </trkpt>
      <trkpt lat="41.538542390" lon="2.401199808">
        <ele>155.40</ele>
        <time>2013-07-07T10:53:32Z</time>
      </trkpt>
      <trkpt lat="41.538439293" lon="2.401328554">
        <ele>152.00</ele>
        <time>2013-07-07T10:53:37Z</time>
      </trkpt>
      <trkpt lat="41.538412806" lon="2.401572552">
        <ele>149.60</ele>
        <time>2013-07-07T10:53:41Z</time>
      </trkpt>
      <trkpt lat="41.538376177" lon="2.401747985">
        <ele>147.20</ele>
        <time>2013-07-07T10:53:43Z</time>
      </trkpt>
      <trkpt lat="41.538334352" lon="2.401896428">
        <ele>145.30</ele>
        <time>2013-07-07T10:53:45Z</time>
      </trkpt>
      <trkpt lat="41.538237122" lon="2.402223742">
        <ele>142.40</ele>
        <time>2013-07-07T10:53:49Z</time>
      </trkpt>
      <trkpt lat="41.538124301" lon="2.402638897">
        <ele>138.10</ele>
        <time>2013-07-07T10:53:53Z</time>
      </trkpt>
      <trkpt lat="41.538058503" lon="2.402882559">
        <ele>134.70</ele>
        <time>2013-07-07T10:53:56Z</time>
      </trkpt>
      <trkpt lat="41.538017851" lon="2.403035361">
        <ele>132.80</ele>
        <time>2013-07-07T10:53:58Z</time>
      </trkpt>
      <trkpt lat="41.537948197" lon="2.403212136">
        <ele>129.40</ele>
        <time>2013-07-07T10:54:01Z</time>
      </trkpt>
      <trkpt lat="41.537845687" lon="2.403639529">
        <ele>126.60</ele>
        <time>2013-07-07T10:54:07Z</time>
      </trkpt>
      <trkpt lat="41.537725742" lon="2.404096007">
        <ele>122.70</ele>
        <time>2013-07-07T10:54:12Z</time>
      </trkpt>
      <trkpt lat="41.537702105" lon="2.404191393">
        <ele>122.70</ele>
        <time>2013-07-07T10:54:13Z</time>
      </trkpt>
      <trkpt lat="41.537587775" lon="2.404578553">
        <ele>119.30</ele>
        <time>2013-07-07T10:54:17Z</time>
      </trkpt>
      <trkpt lat="41.537554332" lon="2.404677041">
        <ele>119.30</ele>
        <time>2013-07-07T10:54:18Z</time>
      </trkpt>
      <trkpt lat="41.537457688" lon="2.404980298">
        <ele>116.00</ele>
        <time>2013-07-07T10:54:21Z</time>
      </trkpt>
      <trkpt lat="41.537304719" lon="2.405255141">
        <ele>112.10</ele>
        <time>2013-07-07T10:54:25Z</time>
      </trkpt>
      <trkpt lat="41.537237580" lon="2.405353460">
        <ele>110.70</ele>
        <time>2013-07-07T10:54:27Z</time>
      </trkpt>
      <trkpt lat="41.537125849" lon="2.405537192">
        <ele>108.80</ele>
        <time>2013-07-07T10:54:31Z</time>
      </trkpt>
      <trkpt lat="41.537000958" lon="2.405761827">
        <ele>106.80</ele>
        <time>2013-07-07T10:54:37Z</time>
      </trkpt>
      <trkpt lat="41.536916720" lon="2.405942541">
        <ele>104.40</ele>
        <time>2013-07-07T10:54:43Z</time>
      </trkpt>
      <trkpt lat="41.536826531" lon="2.406105904">
        <ele>103.50</ele>
        <time>2013-07-07T10:54:49Z</time>
      </trkpt>
      <trkpt lat="41.536762409" lon="2.406344872">
        <ele>101.60</ele>
        <time>2013-07-07T10:54:57Z</time>
      </trkpt>
      <trkpt lat="41.536694516" lon="2.406525418">
        <ele>100.10</ele>
        <time>2013-07-07T10:55:04Z</time>
      </trkpt>
      <trkpt lat="41.536677836" lon="2.406566489">
        <ele>99.60</ele>
        <time>2013-07-07T10:55:08Z</time>
      </trkpt>
      <trkpt lat="41.536674148" lon="2.406622648">
        <ele>98.70</ele>
        <time>2013-07-07T10:55:22Z</time>
      </trkpt>
      <trkpt lat="41.536609691" lon="2.406824820">
        <ele>97.70</ele>
        <time>2013-07-07T10:55:28Z</time>
      </trkpt>
      <trkpt lat="41.536470468" lon="2.407087592">
        <ele>96.30</ele>
        <time>2013-07-07T10:55:35Z</time>
      </trkpt>
      <trkpt lat="41.536312637" lon="2.407343408">
        <ele>93.90</ele>
        <time>2013-07-07T10:55:42Z</time>
      </trkpt>
      <trkpt lat="41.536227225" lon="2.407493528">
        <ele>92.40</ele>
        <time>2013-07-07T10:55:48Z</time>
      </trkpt>
      <trkpt lat="41.536073501" lon="2.407768706">
        <ele>90.50</ele>
        <time>2013-07-07T10:55:57Z</time>
      </trkpt>
      <trkpt lat="41.535915083" lon="2.407998119">
        <ele>88.60</ele>
        <time>2013-07-07T10:56:04Z</time>
      </trkpt>
      <trkpt lat="41.535748786" lon="2.408095097">
        <ele>87.10</ele>
        <time>2013-07-07T10:56:11Z</time>
      </trkpt>
      <trkpt lat="41.535539406" lon="2.408061402">
        <ele>85.20</ele>
        <time>2013-07-07T10:56:18Z</time>
      </trkpt>
      <trkpt lat="41.535526582" lon="2.408069029">
        <ele>85.20</ele>
        <time>2013-07-07T10:56:19Z</time>
      </trkpt>
      <trkpt lat="41.535496994" lon="2.408096103">
        <ele>85.20</ele>
        <time>2013-07-07T10:56:22Z</time>
      </trkpt>
      <trkpt lat="41.535430106" lon="2.408119237">
        <ele>84.30</ele>
        <time>2013-07-07T10:56:28Z</time>
      </trkpt>
      <trkpt lat="41.535409151" lon="2.408142706">
        <ele>84.30</ele>
        <time>2013-07-07T10:56:42Z</time>
      </trkpt>
      <trkpt lat="41.535408229" lon="2.408161649">
        <ele>84.30</ele>
        <time>2013-07-07T10:56:57Z</time>
      </trkpt>
      <trkpt lat="41.535398674" lon="2.408176485">
        <ele>84.30</ele>
        <time>2013-07-07T10:57:07Z</time>
      </trkpt>
      <trkpt lat="41.535402949" lon="2.408373209">
        <ele>84.30</ele>
        <time>2013-07-07T10:57:15Z</time>
      </trkpt>
      <trkpt lat="41.535402865" lon="2.408531794">
        <ele>83.80</ele>
        <time>2013-07-07T10:57:20Z</time>
      </trkpt>
      <trkpt lat="41.535422646" lon="2.408615949">
        <ele>83.80</ele>
        <time>2013-07-07T10:57:26Z</time>
      </trkpt>
      <trkpt lat="41.535424406" lon="2.408620307">
        <ele>83.80</ele>
        <time>2013-07-07T10:57:27Z</time>
      </trkpt>
      <trkpt lat="41.535433626" lon="2.408652661">
        <ele>83.80</ele>
        <time>2013-07-07T10:57:29Z</time>
      </trkpt>
      <trkpt lat="41.535512332" lon="2.408718292">
        <ele>83.30</ele>
        <time>2013-07-07T10:57:33Z</time>
      </trkpt>
      <trkpt lat="41.535786672" lon="2.408785850">
        <ele>83.30</ele>
        <time>2013-07-07T10:57:41Z</time>
      </trkpt>
      <trkpt lat="41.536034190" lon="2.408839662">
        <ele>83.30</ele>
        <time>2013-07-07T10:57:47Z</time>
      </trkpt>
      <trkpt lat="41.536309032" lon="2.408914512">
        <ele>83.30</ele>
        <time>2013-07-07T10:57:53Z</time>
      </trkpt>
      <trkpt lat="41.536405173" lon="2.408918284">
        <ele>83.30</ele>
        <time>2013-07-07T10:57:55Z</time>
      </trkpt>
      <trkpt lat="41.536670460" lon="2.408989195">
        <ele>82.80</ele>
        <time>2013-07-07T10:58:01Z</time>
      </trkpt>
      <trkpt lat="41.537216876" lon="2.409117270">
        <ele>82.80</ele>
        <time>2013-07-07T10:58:13Z</time>
      </trkpt>
      <trkpt lat="41.537354004" lon="2.409153732">
        <ele>82.80</ele>
        <time>2013-07-07T10:58:16Z</time>
      </trkpt>
      <trkpt lat="41.537480319" lon="2.409246771">
        <ele>82.30</ele>
        <time>2013-07-07T10:58:19Z</time>
      </trkpt>
      <trkpt lat="41.537619375" lon="2.409342827">
        <ele>81.90</ele>
        <time>2013-07-07T10:58:22Z</time>
      </trkpt>
      <trkpt lat="41.538054228" lon="2.409491103">
        <ele>79.90</ele>
        <time>2013-07-07T10:58:29Z</time>
      </trkpt>
      <trkpt lat="41.538257406" lon="2.409554889">
        <ele>78.50</ele>
        <time>2013-07-07T10:58:32Z</time>
      </trkpt>
      <trkpt lat="41.538415153" lon="2.409752619">
        <ele>76.10</ele>
        <time>2013-07-07T10:58:36Z</time>
      </trkpt>
      <trkpt lat="41.538378357" lon="2.409988150">
        <ele>74.60</ele>
        <time>2013-07-07T10:58:39Z</time>
      </trkpt>
      <trkpt lat="41.538363604" lon="2.410073478">
        <ele>74.60</ele>
        <time>2013-07-07T10:58:40Z</time>
      </trkpt>
      <trkpt lat="41.538268637" lon="2.410537584">
        <ele>72.70</ele>
        <time>2013-07-07T10:58:45Z</time>
      </trkpt>
      <trkpt lat="41.538270565" lon="2.410889624">
        <ele>69.80</ele>
        <time>2013-07-07T10:58:49Z</time>
      </trkpt>
      <trkpt lat="41.538380284" lon="2.411422545">
        <ele>67.40</ele>
        <time>2013-07-07T10:58:54Z</time>
      </trkpt>
      <trkpt lat="41.538374920" lon="2.411988324">
        <ele>64.10</ele>
        <time>2013-07-07T10:58:59Z</time>
      </trkpt>
      <trkpt lat="41.538275846" lon="2.412409933">
        <ele>61.70</ele>
        <time>2013-07-07T10:59:03Z</time>
      </trkpt>
      <trkpt lat="41.538208791" lon="2.412572626">
        <ele>61.20</ele>
        <time>2013-07-07T10:59:05Z</time>
      </trkpt>
      <trkpt lat="41.538079709" lon="2.412651248">
        <ele>60.20</ele>
        <time>2013-07-07T10:59:07Z</time>
      </trkpt>
      <trkpt lat="41.537855326" lon="2.412696343">
        <ele>59.70</ele>
        <time>2013-07-07T10:59:10Z</time>
      </trkpt>
      <trkpt lat="41.537326512" lon="2.412716879">
        <ele>59.30</ele>
        <time>2013-07-07T10:59:18Z</time>
      </trkpt>
      <trkpt lat="41.536974555" lon="2.412688632">
        <ele>58.30</ele>
        <time>2013-07-07T10:59:25Z</time>
      </trkpt>
      <trkpt lat="41.536651098" lon="2.412616044">
        <ele>58.30</ele>
        <time>2013-07-07T10:59:32Z</time>
      </trkpt>
      <trkpt lat="41.536195290" lon="2.412449328">
        <ele>58.30</ele>
        <time>2013-07-07T10:59:43Z</time>
      </trkpt>
      <trkpt lat="41.535894547" lon="2.412283283">
        <ele>58.30</ele>
        <time>2013-07-07T10:59:51Z</time>
      </trkpt>
      <trkpt lat="41.535722131" lon="2.412216814">
        <ele>58.30</ele>
        <time>2013-07-07T10:59:55Z</time>
      </trkpt>
      <trkpt lat="41.535288368" lon="2.412175408">
        <ele>57.80</ele>
        <time>2013-07-07T11:00:04Z</time>
      </trkpt>
      <trkpt lat="41.534980417" lon="2.412156967">
        <ele>57.80</ele>
        <time>2013-07-07T11:00:11Z</time>
      </trkpt>
      <trkpt lat="41.534730217" lon="2.412220167">
        <ele>57.80</ele>
        <time>2013-07-07T11:00:18Z</time>
      </trkpt>
      <trkpt lat="41.534594766" lon="2.412334329">
        <ele>57.80</ele>
        <time>2013-07-07T11:00:22Z</time>
      </trkpt>
      <trkpt lat="41.534480017" lon="2.412529375">
        <ele>57.80</ele>
        <time>2013-07-07T11:00:26Z</time>
      </trkpt>
      <trkpt lat="41.534441041" lon="2.412652925">
        <ele>57.80</ele>
        <time>2013-07-07T11:00:28Z</time>
      </trkpt>
      <trkpt lat="41.534434084" lon="2.413115187">
        <ele>56.90</ele>
        <time>2013-07-07T11:00:34Z</time>
      </trkpt>
      <trkpt lat="41.534521591" lon="2.413689179">
        <ele>53.50</ele>
        <time>2013-07-07T11:00:41Z</time>
      </trkpt>
      <trkpt lat="41.534537014" lon="2.413774759">
        <ele>53.00</ele>
        <time>2013-07-07T11:00:42Z</time>
      </trkpt>
      <trkpt lat="41.534685206" lon="2.414430223">
        <ele>50.60</ele>
        <time>2013-07-07T11:00:49Z</time>
      </trkpt>
      <trkpt lat="41.534717393" lon="2.414528459">
        <ele>49.70</ele>
        <time>2013-07-07T11:00:50Z</time>
      </trkpt>
      <trkpt lat="41.534945129" lon="2.415451894">
        <ele>47.20</ele>
        <time>2013-07-07T11:00:59Z</time>
      </trkpt>
      <trkpt lat="41.535093740" lon="2.416155219">
        <ele>44.80</ele>
        <time>2013-07-07T11:01:06Z</time>
      </trkpt>
      <trkpt lat="41.535111342" lon="2.416346243">
        <ele>44.40</ele>
        <time>2013-07-07T11:01:08Z</time>
      </trkpt>
      <trkpt lat="41.535112767" lon="2.416438108">
        <ele>43.40</ele>
        <time>2013-07-07T11:01:09Z</time>
      </trkpt>
      <trkpt lat="41.535080748" lon="2.416793250">
        <ele>40.00</ele>
        <time>2013-07-07T11:01:13Z</time>
      </trkpt>
      <trkpt lat="41.535095668" lon="2.416986871">
        <ele>39.10</ele>
        <time>2013-07-07T11:01:15Z</time>
      </trkpt>
      <trkpt lat="41.535133135" lon="2.417385515">
        <ele>39.10</ele>
        <time>2013-07-07T11:01:20Z</time>
      </trkpt>
      <trkpt lat="41.535170016" lon="2.417635044">
        <ele>40.00</ele>
        <time>2013-07-07T11:01:24Z</time>
      </trkpt>
      <trkpt lat="41.535202370" lon="2.417888597">
        <ele>41.00</ele>
        <time>2013-07-07T11:01:29Z</time>
      </trkpt>
      <trkpt lat="41.535263055" lon="2.418472983">
        <ele>41.50</ele>
        <time>2013-07-07T11:01:39Z</time>
      </trkpt>
      <trkpt lat="41.535312424" lon="2.418765763">
        <ele>41.50</ele>
        <time>2013-07-07T11:01:44Z</time>
      </trkpt>
      <trkpt lat="41.535398255" lon="2.419368003">
        <ele>41.00</ele>
        <time>2013-07-07T11:01:54Z</time>
      </trkpt>
      <trkpt lat="41.535441924" lon="2.419682827">
        <ele>41.00</ele>
        <time>2013-07-07T11:01:59Z</time>
      </trkpt>
      <trkpt lat="41.535465226" lon="2.419925231">
        <ele>41.00</ele>
        <time>2013-07-07T11:02:03Z</time>
      </trkpt>
      <trkpt lat="41.535393896" lon="2.420154728">
        <ele>41.00</ele>
        <time>2013-07-07T11:02:08Z</time>
      </trkpt>
      <trkpt lat="41.535312927" lon="2.420206947">
        <ele>41.00</ele>
        <time>2013-07-07T11:02:10Z</time>
      </trkpt>
      <trkpt lat="41.534880002" lon="2.420421943">
        <ele>39.60</ele>
        <time>2013-07-07T11:02:19Z</time>
      </trkpt>
      <trkpt lat="41.534830968" lon="2.420449017">
        <ele>39.60</ele>
        <time>2013-07-07T11:02:20Z</time>
      </trkpt>
      <trkpt lat="41.534681183" lon="2.420538871">
        <ele>39.10</ele>
        <time>2013-07-07T11:02:23Z</time>
      </trkpt>
      <trkpt lat="41.534191177" lon="2.420650685">
        <ele>37.60</ele>
        <time>2013-07-07T11:02:32Z</time>
      </trkpt>
      <trkpt lat="41.533715420" lon="2.420757806">
        <ele>36.70</ele>
        <time>2013-07-07T11:02:41Z</time>
      </trkpt>
      <trkpt lat="41.533170261" lon="2.420851432">
        <ele>36.20</ele>
        <time>2013-07-07T11:02:51Z</time>
      </trkpt>
      <trkpt lat="41.532687631" lon="2.420940783">
        <ele>34.70</ele>
        <time>2013-07-07T11:03:00Z</time>
      </trkpt>
      <trkpt lat="41.532636921" lon="2.420947991">
        <ele>34.70</ele>
        <time>2013-07-07T11:03:01Z</time>
      </trkpt>
      <trkpt lat="41.532477413" lon="2.420957211">
        <ele>34.70</ele>
        <time>2013-07-07T11:03:05Z</time>
      </trkpt>
      <trkpt lat="41.532406251" lon="2.420836931">
        <ele>34.30</ele>
        <time>2013-07-07T11:03:10Z</time>
      </trkpt>
      <trkpt lat="41.532410861" lon="2.420795189">
        <ele>34.30</ele>
        <time>2013-07-07T11:03:11Z</time>
      </trkpt>
      <trkpt lat="41.532455033" lon="2.420528477">
        <ele>34.30</ele>
        <time>2013-07-07T11:03:17Z</time>
      </trkpt>
      <trkpt lat="41.532378674" lon="2.420409538">
        <ele>34.30</ele>
        <time>2013-07-07T11:03:22Z</time>
      </trkpt>
      <trkpt lat="41.532371298" lon="2.420313314">
        <ele>34.30</ele>
        <time>2013-07-07T11:03:26Z</time>
      </trkpt>
      <trkpt lat="41.532336932" lon="2.420264112">
        <ele>34.30</ele>
        <time>2013-07-07T11:03:29Z</time>
      </trkpt>
      <trkpt lat="41.532279432" lon="2.420181550">
        <ele>34.30</ele>
        <time>2013-07-07T11:03:35Z</time>
      </trkpt>
      <trkpt lat="41.532267027" lon="2.420170151">
        <ele>33.80</ele>
        <time>2013-07-07T11:03:44Z</time>
      </trkpt>
      <trkpt lat="41.532269123" lon="2.420174509">
        <ele>33.80</ele>
        <time>2013-07-07T11:03:58Z</time>
      </trkpt>
      <trkpt lat="41.532275912" lon="2.420180377">
        <ele>33.80</ele>
        <time>2013-07-07T11:04:13Z</time>
      </trkpt>
      <trkpt lat="41.532263004" lon="2.420183310">
        <ele>33.80</ele>
        <time>2013-07-07T11:04:33Z</time>
      </trkpt>
      <trkpt lat="41.532256382" lon="2.420179958">
        <ele>33.80</ele>
        <time>2013-07-07T11:04:50Z</time>
      </trkpt>
      <trkpt lat="41.532247581" lon="2.420157410">
        <ele>33.80</ele>
        <time>2013-07-07T11:05:00Z</time>
      </trkpt>
      <trkpt lat="41.532239032" lon="2.420148022">
        <ele>33.80</ele>
        <time>2013-07-07T11:05:01Z</time>
      </trkpt>
      <trkpt lat="41.532191590" lon="2.420152046">
        <ele>33.80</ele>
        <time>2013-07-07T11:05:05Z</time>
      </trkpt>
      <trkpt lat="41.532176922" lon="2.420178784">
        <ele>33.80</ele>
        <time>2013-07-07T11:05:07Z</time>
      </trkpt>
      <trkpt lat="41.532065359" lon="2.420257155">
        <ele>33.80</ele>
        <time>2013-07-07T11:05:14Z</time>
      </trkpt>
      <trkpt lat="41.532018755" lon="2.420320773">
        <ele>33.80</ele>
        <time>2013-07-07T11:05:16Z</time>
      </trkpt>
      <trkpt lat="41.531900738" lon="2.420584217">
        <ele>33.80</ele>
        <time>2013-07-07T11:05:23Z</time>
      </trkpt>
      <trkpt lat="41.531702087" lon="2.420837266">
        <ele>33.30</ele>
        <time>2013-07-07T11:05:30Z</time>
      </trkpt>
      <trkpt lat="41.531482565" lon="2.420877919">
        <ele>32.30</ele>
        <time>2013-07-07T11:05:35Z</time>
      </trkpt>
      <trkpt lat="41.531237143" lon="2.420856545">
        <ele>31.90</ele>
        <time>2013-07-07T11:05:40Z</time>
      </trkpt>
      <trkpt lat="41.530745712" lon="2.420851935">
        <ele>31.90</ele>
        <time>2013-07-07T11:05:50Z</time>
      </trkpt>
      <trkpt lat="41.530229051" lon="2.420821005">
        <ele>30.40</ele>
        <time>2013-07-07T11:06:00Z</time>
      </trkpt>
      <trkpt lat="41.529706356" lon="2.420769038">
        <ele>29.90</ele>
        <time>2013-07-07T11:06:11Z</time>
      </trkpt>
      <trkpt lat="41.529219702" lon="2.420737019">
        <ele>29.50</ele>
        <time>2013-07-07T11:06:21Z</time>
      </trkpt>
      <trkpt lat="41.528967575" lon="2.420765266">
        <ele>29.50</ele>
        <time>2013-07-07T11:06:26Z</time>
      </trkpt>
      <trkpt lat="41.528573458" lon="2.420935670">
        <ele>27.50</ele>
        <time>2013-07-07T11:06:33Z</time>
      </trkpt>
      <trkpt lat="41.528384111" lon="2.421171620">
        <ele>26.60</ele>
        <time>2013-07-07T11:06:37Z</time>
      </trkpt>
      <trkpt lat="41.528346979" lon="2.421339678">
        <ele>25.60</ele>
        <time>2013-07-07T11:06:39Z</time>
      </trkpt>
      <trkpt lat="41.528325186" lon="2.421510333">
        <ele>25.60</ele>
        <time>2013-07-07T11:06:41Z</time>
      </trkpt>
      <trkpt lat="41.528200295" lon="2.421744272">
        <ele>25.10</ele>
        <time>2013-07-07T11:06:45Z</time>
      </trkpt>
      <trkpt lat="41.527993095" lon="2.421833958">
        <ele>24.70</ele>
        <time>2013-07-07T11:06:49Z</time>
      </trkpt>
      <trkpt lat="41.527809783" lon="2.422073597">
        <ele>25.60</ele>
        <time>2013-07-07T11:06:55Z</time>
      </trkpt>
      <trkpt lat="41.527663518" lon="2.422217766">
        <ele>26.10</ele>
        <time>2013-07-07T11:07:01Z</time>
      </trkpt>
      <trkpt lat="41.527435614" lon="2.422319187">
        <ele>26.10</ele>
        <time>2013-07-07T11:07:07Z</time>
      </trkpt>
      <trkpt lat="41.527089526" lon="2.422464278">
        <ele>26.10</ele>
        <time>2013-07-07T11:07:14Z</time>
      </trkpt>
      <trkpt lat="41.526874027" lon="2.422556143">
        <ele>25.10</ele>
        <time>2013-07-07T11:07:18Z</time>
      </trkpt>
      <trkpt lat="41.526598933" lon="2.422751022">
        <ele>24.70</ele>
        <time>2013-07-07T11:07:24Z</time>
      </trkpt>
      <trkpt lat="41.526255359" lon="2.422914637">
        <ele>24.20</ele>
        <time>2013-07-07T11:07:30Z</time>
      </trkpt>
      <trkpt lat="41.526009434" lon="2.423132567">
        <ele>24.20</ele>
        <time>2013-07-07T11:07:35Z</time>
      </trkpt>
      <trkpt lat="41.525656555" lon="2.423507154">
        <ele>22.70</ele>
        <time>2013-07-07T11:07:44Z</time>
      </trkpt>
      <trkpt lat="41.525294206" lon="2.423903618">
        <ele>22.30</ele>
        <time>2013-07-07T11:07:53Z</time>
      </trkpt>
      <trkpt lat="41.525256739" lon="2.423949048">
        <ele>22.70</ele>
        <time>2013-07-07T11:07:54Z</time>
      </trkpt>
      <trkpt lat="41.525072253" lon="2.424261274">
        <ele>21.80</ele>
        <time>2013-07-07T11:08:01Z</time>
      </trkpt>
      <trkpt lat="41.525064961" lon="2.424444335">
        <ele>21.30</ele>
        <time>2013-07-07T11:08:04Z</time>
      </trkpt>
      <trkpt lat="41.525122628" lon="2.424775839">
        <ele>21.80</ele>
        <time>2013-07-07T11:08:09Z</time>
      </trkpt>
      <trkpt lat="41.525194545" lon="2.424979603">
        <ele>21.30</ele>
        <time>2013-07-07T11:08:12Z</time>
      </trkpt>
      <trkpt lat="41.525247435" lon="2.425111366">
        <ele>21.30</ele>
        <time>2013-07-07T11:08:14Z</time>
      </trkpt>
      <trkpt lat="41.525327147" lon="2.425362907">
        <ele>21.30</ele>
        <time>2013-07-07T11:08:18Z</time>
      </trkpt>
      <trkpt lat="41.525567540" lon="2.426104035">
        <ele>20.30</ele>
        <time>2013-07-07T11:08:30Z</time>
      </trkpt>
      <trkpt lat="41.525760156" lon="2.426605692">
        <ele>20.30</ele>
        <time>2013-07-07T11:08:38Z</time>
      </trkpt>
      <trkpt lat="41.525739788" lon="2.426870979">
        <ele>20.30</ele>
        <time>2013-07-07T11:08:42Z</time>
      </trkpt>
      <trkpt lat="41.525609868" lon="2.427080275">
        <ele>19.40</ele>
        <time>2013-07-07T11:08:46Z</time>
      </trkpt>
      <trkpt lat="41.525187001" lon="2.427490905">
        <ele>17.00</ele>
        <time>2013-07-07T11:08:54Z</time>
      </trkpt>
      <trkpt lat="41.524952056" lon="2.427606659">
        <ele>16.00</ele>
        <time>2013-07-07T11:08:58Z</time>
      </trkpt>
      <trkpt lat="41.524667072" lon="2.427579418">
        <ele>16.00</ele>
        <time>2013-07-07T11:09:03Z</time>
      </trkpt>
      <trkpt lat="41.524367251" lon="2.427806735">
        <ele>16.00</ele>
        <time>2013-07-07T11:09:09Z</time>
      </trkpt>
      <trkpt lat="41.524290976" lon="2.428102281">
        <ele>16.00</ele>
        <time>2013-07-07T11:09:13Z</time>
      </trkpt>
      <trkpt lat="41.524350320" lon="2.428415848">
        <ele>16.00</ele>
        <time>2013-07-07T11:09:17Z</time>
      </trkpt>
      <trkpt lat="41.524578810" lon="2.428679459">
        <ele>16.00</ele>
        <time>2013-07-07T11:09:22Z</time>
      </trkpt>
      <trkpt lat="41.524635975" lon="2.428709298">
        <ele>16.00</ele>
        <time>2013-07-07T11:09:23Z</time>
      </trkpt>
      <trkpt lat="41.524755501" lon="2.428762775">
        <ele>15.50</ele>
        <time>2013-07-07T11:09:25Z</time>
      </trkpt>
      <trkpt lat="41.524976364" lon="2.429059662">
        <ele>15.50</ele>
        <time>2013-07-07T11:09:30Z</time>
      </trkpt>
      <trkpt lat="41.525470980" lon="2.429886453">
        <ele>15.00</ele>
        <time>2013-07-07T11:09:43Z</time>
      </trkpt>
      <trkpt lat="41.525843220" lon="2.430376794">
        <ele>15.00</ele>
        <time>2013-07-07T11:09:52Z</time>
      </trkpt>
      <trkpt lat="41.526267345" lon="2.430925306">
        <ele>15.00</ele>
        <time>2013-07-07T11:10:02Z</time>
      </trkpt>
      <trkpt lat="41.526608572" lon="2.431361835">
        <ele>15.00</ele>
        <time>2013-07-07T11:10:10Z</time>
      </trkpt>
      <trkpt lat="41.526687027" lon="2.431466358">
        <ele>15.00</ele>
        <time>2013-07-07T11:10:12Z</time>
      </trkpt>
      <trkpt lat="41.526768666" lon="2.431730891">
        <ele>14.60</ele>
        <time>2013-07-07T11:10:16Z</time>
      </trkpt>
      <trkpt lat="41.526933371" lon="2.432015121">
        <ele>14.60</ele>
        <time>2013-07-07T11:10:21Z</time>
      </trkpt>
      <trkpt lat="41.526986428" lon="2.432035070">
        <ele>14.60</ele>
        <time>2013-07-07T11:10:22Z</time>
      </trkpt>
      <trkpt lat="41.527095058" lon="2.432062395">
        <ele>14.60</ele>
        <time>2013-07-07T11:10:24Z</time>
      </trkpt>
      <trkpt lat="41.527356238" lon="2.432341261">
        <ele>14.60</ele>
        <time>2013-07-07T11:10:30Z</time>
      </trkpt>
      <trkpt lat="41.527689251" lon="2.432754824">
        <ele>14.60</ele>
        <time>2013-07-07T11:10:38Z</time>
      </trkpt>
      <trkpt lat="41.528007176" lon="2.433147265">
        <ele>14.10</ele>
        <time>2013-07-07T11:10:46Z</time>
      </trkpt>
      <trkpt lat="41.528333400" lon="2.433535095">
        <ele>14.10</ele>
        <time>2013-07-07T11:10:54Z</time>
      </trkpt>
      <trkpt lat="41.528410430" lon="2.433629224">
        <ele>14.10</ele>
        <time>2013-07-07T11:10:56Z</time>
      </trkpt>
      <trkpt lat="41.528599609" lon="2.433764424">
        <ele>15.50</ele>
        <time>2013-07-07T11:11:01Z</time>
      </trkpt>
      <trkpt lat="41.528890964" lon="2.434063742">
        <ele>15.50</ele>
        <time>2013-07-07T11:11:09Z</time>
      </trkpt>
      <trkpt lat="41.528925665" lon="2.434104813">
        <ele>15.50</ele>
        <time>2013-07-07T11:11:10Z</time>
      </trkpt>
      <trkpt lat="41.529038318" lon="2.434400946">
        <ele>15.50</ele>
        <time>2013-07-07T11:11:15Z</time>
      </trkpt>
      <trkpt lat="41.528985177" lon="2.434657013">
        <ele>15.50</ele>
        <time>2013-07-07T11:11:19Z</time>
      </trkpt>
      <trkpt lat="41.528918792" lon="2.434759859">
        <ele>15.50</ele>
        <time>2013-07-07T11:11:21Z</time>
      </trkpt>
      <trkpt lat="41.528709412" lon="2.434974855">
        <ele>15.50</ele>
        <time>2013-07-07T11:11:26Z</time>
      </trkpt>
      <trkpt lat="41.528445718" lon="2.435281800">
        <ele>15.00</ele>
        <time>2013-07-07T11:11:32Z</time>
      </trkpt>
      <trkpt lat="41.528370783" lon="2.435399985">
        <ele>14.10</ele>
        <time>2013-07-07T11:11:34Z</time>
      </trkpt>
      <trkpt lat="41.528296268" lon="2.435514398">
        <ele>14.10</ele>
        <time>2013-07-07T11:11:36Z</time>
      </trkpt>
      <trkpt lat="41.527959651" lon="2.435913879">
        <ele>11.20</ele>
        <time>2013-07-07T11:11:43Z</time>
      </trkpt>
      <trkpt lat="41.527627141" lon="2.436299112">
        <ele>8.30</ele>
        <time>2013-07-07T11:11:48Z</time>
      </trkpt>
      <trkpt lat="41.527340228" lon="2.436618797">
        <ele>6.40</ele>
        <time>2013-07-07T11:11:52Z</time>
      </trkpt>
      <trkpt lat="41.527138392" lon="2.436987601">
        <ele>6.40</ele>
        <time>2013-07-07T11:11:56Z</time>
      </trkpt>
      <trkpt lat="41.527182229" lon="2.437393621">
        <ele>6.90</ele>
        <time>2013-07-07T11:12:00Z</time>
      </trkpt>
      <trkpt lat="41.527228246" lon="2.437472746">
        <ele>6.90</ele>
        <time>2013-07-07T11:12:01Z</time>
      </trkpt>
      <trkpt lat="41.527603504" lon="2.437979348">
        <ele>10.70</ele>
        <time>2013-07-07T11:12:10Z</time>
      </trkpt>
      <trkpt lat="41.527910617" lon="2.438466923">
        <ele>12.60</ele>
        <time>2013-07-07T11:12:20Z</time>
      </trkpt>
      <trkpt lat="41.528130474" lon="2.438830027">
        <ele>13.10</ele>
        <time>2013-07-07T11:12:27Z</time>
      </trkpt>
      <trkpt lat="41.528483939" lon="2.439433273">
        <ele>13.10</ele>
        <time>2013-07-07T11:12:38Z</time>
      </trkpt>
      <trkpt lat="41.528754339" lon="2.439942809">
        <ele>12.60</ele>
        <time>2013-07-07T11:12:47Z</time>
      </trkpt>
      <trkpt lat="41.528999929" lon="2.440411944">
        <ele>12.60</ele>
        <time>2013-07-07T11:12:57Z</time>
      </trkpt>
      <trkpt lat="41.529097494" lon="2.440590059">
        <ele>12.60</ele>
        <time>2013-07-07T11:13:03Z</time>
      </trkpt>
      <trkpt lat="41.529187013" lon="2.440841181">
        <ele>12.60</ele>
        <time>2013-07-07T11:13:09Z</time>
      </trkpt>
      <trkpt lat="41.529368817" lon="2.441242255">
        <ele>12.60</ele>
        <time>2013-07-07T11:13:17Z</time>
      </trkpt>
      <trkpt lat="41.529616586" lon="2.441705188">
        <ele>12.60</ele>
        <time>2013-07-07T11:13:25Z</time>
      </trkpt>
      <trkpt lat="41.529787828" lon="2.442065274">
        <ele>12.60</ele>
        <time>2013-07-07T11:13:31Z</time>
      </trkpt>
      <trkpt lat="41.529994526" lon="2.442133335">
        <ele>12.60</ele>
        <time>2013-07-07T11:13:35Z</time>
      </trkpt>
      <trkpt lat="41.530130899" lon="2.442273062">
        <ele>12.60</ele>
        <time>2013-07-07T11:13:38Z</time>
      </trkpt>
      <trkpt lat="41.530324102" lon="2.442547904">
        <ele>12.60</ele>
        <time>2013-07-07T11:13:43Z</time>
      </trkpt>
      <trkpt lat="41.530450501" lon="2.442685032">
        <ele>12.60</ele>
        <time>2013-07-07T11:13:46Z</time>
      </trkpt>
      <trkpt lat="41.530774294" lon="2.443115192">
        <ele>12.60</ele>
        <time>2013-07-07T11:13:55Z</time>
      </trkpt>
      <trkpt lat="41.530801619" lon="2.443155089">
        <ele>12.60</ele>
        <time>2013-07-07T11:13:56Z</time>
      </trkpt>
      <trkpt lat="41.530968419" lon="2.443403194">
        <ele>12.60</ele>
        <time>2013-07-07T11:14:02Z</time>
      </trkpt>
      <trkpt lat="41.531001444" lon="2.443444600">
        <ele>12.60</ele>
        <time>2013-07-07T11:14:03Z</time>
      </trkpt>
      <trkpt lat="41.531321968" lon="2.443871910">
        <ele>12.60</ele>
        <time>2013-07-07T11:14:12Z</time>
      </trkpt>
      <trkpt lat="41.531793031" lon="2.444487309">
        <ele>13.10</ele>
        <time>2013-07-07T11:14:24Z</time>
      </trkpt>
      <trkpt lat="41.532247581" lon="2.445070773">
        <ele>12.60</ele>
        <time>2013-07-07T11:14:35Z</time>
      </trkpt>
      <trkpt lat="41.532696264" lon="2.445652980">
        <ele>12.60</ele>
        <time>2013-07-07T11:14:46Z</time>
      </trkpt>
      <trkpt lat="41.533107313" lon="2.446194451">
        <ele>12.60</ele>
        <time>2013-07-07T11:14:56Z</time>
      </trkpt>
      <trkpt lat="41.533191886" lon="2.446306853">
        <ele>12.60</ele>
        <time>2013-07-07T11:14:58Z</time>
      </trkpt>
      <trkpt lat="41.533303030" lon="2.446660150">
        <ele>12.60</ele>
        <time>2013-07-07T11:15:03Z</time>
      </trkpt>
      <trkpt lat="41.533386095" lon="2.446712704">
        <ele>12.60</ele>
        <time>2013-07-07T11:15:05Z</time>
      </trkpt>
      <trkpt lat="41.533617436" lon="2.446794428">
        <ele>12.60</ele>
        <time>2013-07-07T11:15:10Z</time>
      </trkpt>
      <trkpt lat="41.534042733" lon="2.447213607">
        <ele>12.60</ele>
        <time>2013-07-07T11:15:19Z</time>
      </trkpt>
      <trkpt lat="41.534540199" lon="2.447732363">
        <ele>12.60</ele>
        <time>2013-07-07T11:15:30Z</time>
      </trkpt>
      <trkpt lat="41.534894083" lon="2.448129246">
        <ele>12.60</ele>
        <time>2013-07-07T11:15:38Z</time>
      </trkpt>
      <trkpt lat="41.535315442" lon="2.448666191">
        <ele>12.60</ele>
        <time>2013-07-07T11:15:48Z</time>
      </trkpt>
      <trkpt lat="41.535539071" lon="2.449016219">
        <ele>12.20</ele>
        <time>2013-07-07T11:15:55Z</time>
      </trkpt>
      <trkpt lat="41.535587937" lon="2.449143037">
        <ele>11.20</ele>
        <time>2013-07-07T11:15:58Z</time>
      </trkpt>
      <trkpt lat="41.535771752" lon="2.449194167">
        <ele>11.20</ele>
        <time>2013-07-07T11:16:03Z</time>
      </trkpt>
      <trkpt lat="41.535834281" lon="2.449249739">
        <ele>11.20</ele>
        <time>2013-07-07T11:16:05Z</time>
      </trkpt>
      <trkpt lat="41.536147681" lon="2.449711079">
        <ele>12.20</ele>
        <time>2013-07-07T11:16:15Z</time>
      </trkpt>
      <trkpt lat="41.536379943" lon="2.450087091">
        <ele>12.20</ele>
        <time>2013-07-07T11:16:22Z</time>
      </trkpt>
      <trkpt lat="41.536673813" lon="2.450534265">
        <ele>12.20</ele>
        <time>2013-07-07T11:16:31Z</time>
      </trkpt>
      <trkpt lat="41.536821921" lon="2.450739371">
        <ele>12.20</ele>
        <time>2013-07-07T11:16:37Z</time>
      </trkpt>
      <trkpt lat="41.537030798" lon="2.451043131">
        <ele>12.20</ele>
        <time>2013-07-07T11:16:45Z</time>
      </trkpt>
      <trkpt lat="41.537127860" lon="2.451178079">
        <ele>12.20</ele>
        <time>2013-07-07T11:16:50Z</time>
      </trkpt>
      <trkpt lat="41.537337660" lon="2.451498603">
        <ele>12.20</ele>
        <time>2013-07-07T11:16:56Z</time>
      </trkpt>
      <trkpt lat="41.537644521" lon="2.451949717">
        <ele>12.20</ele>
        <time>2013-07-07T11:17:05Z</time>
      </trkpt>
      <trkpt lat="41.537974600" lon="2.452454727">
        <ele>12.20</ele>
        <time>2013-07-07T11:17:16Z</time>
      </trkpt>
      <trkpt lat="41.538149447" lon="2.452754883">
        <ele>11.70</ele>
        <time>2013-07-07T11:17:24Z</time>
      </trkpt>
      <trkpt lat="41.538175179" lon="2.452797296">
        <ele>12.20</ele>
        <time>2013-07-07T11:17:25Z</time>
      </trkpt>
      <trkpt lat="41.538464774" lon="2.453208176">
        <ele>12.20</ele>
        <time>2013-07-07T11:17:36Z</time>
      </trkpt>
      <trkpt lat="41.538625287" lon="2.453448821">
        <ele>12.60</ele>
        <time>2013-07-07T11:17:43Z</time>
      </trkpt>
      <trkpt lat="41.538890659" lon="2.453813266">
        <ele>12.60</ele>
        <time>2013-07-07T11:17:52Z</time>
      </trkpt>
      <trkpt lat="41.539056536" lon="2.454052821">
        <ele>13.10</ele>
        <time>2013-07-07T11:17:57Z</time>
      </trkpt>
      <trkpt lat="41.539415952" lon="2.454624634">
        <ele>13.10</ele>
        <time>2013-07-07T11:18:08Z</time>
      </trkpt>
      <trkpt lat="41.539690795" lon="2.455023780">
        <ele>13.10</ele>
        <time>2013-07-07T11:18:16Z</time>
      </trkpt>
      <trkpt lat="41.540010397" lon="2.455598360">
        <ele>13.10</ele>
        <time>2013-07-07T11:18:27Z</time>
      </trkpt>
      <trkpt lat="41.540245174" lon="2.456019215">
        <ele>13.60</ele>
        <time>2013-07-07T11:18:35Z</time>
      </trkpt>
      <trkpt lat="41.540273253" lon="2.456072440">
        <ele>13.60</ele>
        <time>2013-07-07T11:18:36Z</time>
      </trkpt>
      <trkpt lat="41.540549689" lon="2.456661101">
        <ele>13.60</ele>
        <time>2013-07-07T11:18:46Z</time>
      </trkpt>
      <trkpt lat="41.540583971" lon="2.456730084">
        <ele>12.20</ele>
        <time>2013-07-07T11:18:47Z</time>
      </trkpt>
      <trkpt lat="41.540660078" lon="2.456832428">
        <ele>11.70</ele>
        <time>2013-07-07T11:18:49Z</time>
      </trkpt>
      <trkpt lat="41.540794524" lon="2.456918007">
        <ele>10.70</ele>
        <time>2013-07-07T11:18:54Z</time>
      </trkpt>
      <trkpt lat="41.540810953" lon="2.456904177">
        <ele>10.70</ele>
        <time>2013-07-07T11:19:00Z</time>
      </trkpt>
      <trkpt lat="41.540878092" lon="2.456839133">
        <ele>10.70</ele>
        <time>2013-07-07T11:19:06Z</time>
      </trkpt>
      <trkpt lat="41.540909272" lon="2.456787333">
        <ele>10.70</ele>
        <time>2013-07-07T11:19:08Z</time>
      </trkpt>
      <trkpt lat="41.541087555" lon="2.456613408">
        <ele>12.20</ele>
        <time>2013-07-07T11:19:15Z</time>
      </trkpt>
      <trkpt lat="41.541194425" lon="2.456457254">
        <ele>14.60</ele>
        <time>2013-07-07T11:19:22Z</time>
      </trkpt>
      <trkpt lat="41.541268604" lon="2.456253825">
        <ele>15.50</ele>
        <time>2013-07-07T11:19:28Z</time>
      </trkpt>
      <trkpt lat="41.541310095" lon="2.456179393">
        <ele>16.50</ele>
        <time>2013-07-07T11:19:34Z</time>
      </trkpt>
      <trkpt lat="41.541378156" lon="2.456143770">
        <ele>17.40</ele>
        <time>2013-07-07T11:19:38Z</time>
      </trkpt>
      <trkpt lat="41.541474045" lon="2.456338482">
        <ele>18.40</ele>
        <time>2013-07-07T11:19:44Z</time>
      </trkpt>
      <trkpt lat="41.541535652" lon="2.456684990">
        <ele>18.40</ele>
        <time>2013-07-07T11:19:51Z</time>
      </trkpt>
      <trkpt lat="41.541601701" lon="2.457077011">
        <ele>16.50</ele>
        <time>2013-07-07T11:19:57Z</time>
      </trkpt>
      <trkpt lat="41.541645958" lon="2.457282200">
        <ele>15.00</ele>
        <time>2013-07-07T11:20:01Z</time>
      </trkpt>
      <trkpt lat="41.541692142" lon="2.457523683">
        <ele>14.60</ele>
        <time>2013-07-07T11:20:06Z</time>
      </trkpt>
      <trkpt lat="41.541765567" lon="2.457961051">
        <ele>14.10</ele>
        <time>2013-07-07T11:20:12Z</time>
      </trkpt>
      <trkpt lat="41.541814266" lon="2.458415685">
        <ele>13.60</ele>
        <time>2013-07-07T11:20:19Z</time>
      </trkpt>
      <trkpt lat="41.541811584" lon="2.458469497">
        <ele>13.60</ele>
        <time>2013-07-07T11:20:20Z</time>
      </trkpt>
      <trkpt lat="41.541817116" lon="2.458649373">
        <ele>13.60</ele>
        <time>2013-07-07T11:20:23Z</time>
      </trkpt>
      <trkpt lat="41.541893224" lon="2.458919857">
        <ele>13.60</ele>
        <time>2013-07-07T11:20:27Z</time>
      </trkpt>
      <trkpt lat="41.542222633" lon="2.459687388">
        <ele>13.10</ele>
        <time>2013-07-07T11:20:38Z</time>
      </trkpt>
      <trkpt lat="41.542588335" lon="2.460500432">
        <ele>13.10</ele>
        <time>2013-07-07T11:20:49Z</time>
      </trkpt>
      <trkpt lat="41.542947751" lon="2.461308196">
        <ele>12.60</ele>
        <time>2013-07-07T11:21:00Z</time>
      </trkpt>
      <trkpt lat="41.543341868" lon="2.462186368">
        <ele>12.60</ele>
        <time>2013-07-07T11:21:12Z</time>
      </trkpt>
      <trkpt lat="41.543815949" lon="2.463217091">
        <ele>12.60</ele>
        <time>2013-07-07T11:21:26Z</time>
      </trkpt>
      <trkpt lat="41.544204534" lon="2.464047570">
        <ele>12.60</ele>
        <time>2013-07-07T11:21:37Z</time>
      </trkpt>
      <trkpt lat="41.544678949" lon="2.465081980">
        <ele>12.60</ele>
        <time>2013-07-07T11:21:51Z</time>
      </trkpt>
      <trkpt lat="41.545068121" lon="2.465867113">
        <ele>12.60</ele>
        <time>2013-07-07T11:22:02Z</time>
      </trkpt>
      <trkpt lat="41.545477577" lon="2.466710919">
        <ele>12.20</ele>
        <time>2013-07-07T11:22:14Z</time>
      </trkpt>
      <trkpt lat="41.545548153" lon="2.466854921">
        <ele>13.60</ele>
        <time>2013-07-07T11:22:16Z</time>
      </trkpt>
      <trkpt lat="41.545924835" lon="2.467670647">
        <ele>13.60</ele>
        <time>2013-07-07T11:22:27Z</time>
      </trkpt>
      <trkpt lat="41.546235804" lon="2.468335668">
        <ele>13.60</ele>
        <time>2013-07-07T11:22:36Z</time>
      </trkpt>
      <trkpt lat="41.546500505" lon="2.468967663">
        <ele>12.20</ele>
        <time>2013-07-07T11:22:44Z</time>
      </trkpt>
      <trkpt lat="41.546834356" lon="2.469888331">
        <ele>11.70</ele>
        <time>2013-07-07T11:22:55Z</time>
      </trkpt>
      <trkpt lat="41.547130656" lon="2.470946463">
        <ele>10.71</ele>
        <time>2013-07-07T11:23:07Z</time>
      </trkpt>
      <trkpt lat="41.547407259" lon="2.471980203">
        <ele>10.71</ele>
        <time>2013-07-07T11:23:19Z</time>
      </trkpt>
      <trkpt lat="41.547640360" lon="2.472863069">
        <ele>10.71</ele>
        <time>2013-07-07T11:23:30Z</time>
      </trkpt>
      <trkpt lat="41.547827695" lon="2.473595144">
        <ele>10.71</ele>
        <time>2013-07-07T11:23:39Z</time>
      </trkpt>
      <trkpt lat="41.548092144" lon="2.474618323">
        <ele>10.71</ele>
        <time>2013-07-07T11:23:51Z</time>
      </trkpt>
      <trkpt lat="41.548364221" lon="2.475635635">
        <ele>10.71</ele>
        <time>2013-07-07T11:24:03Z</time>
      </trkpt>
      <trkpt lat="41.548504618" lon="2.476030674">
        <ele>10.71</ele>
        <time>2013-07-07T11:24:08Z</time>
      </trkpt>
      <trkpt lat="41.548596232" lon="2.476445075">
        <ele>10.71</ele>
        <time>2013-07-07T11:24:13Z</time>
      </trkpt>
      <trkpt lat="41.548685080" lon="2.476765348">
        <ele>10.71</ele>
        <time>2013-07-07T11:24:17Z</time>
      </trkpt>
      <trkpt lat="41.548860681" lon="2.477529693">
        <ele>10.71</ele>
        <time>2013-07-07T11:24:26Z</time>
      </trkpt>
      <trkpt lat="41.549136613" lon="2.478604672">
        <ele>11.67</ele>
        <time>2013-07-07T11:24:39Z</time>
      </trkpt>
      <trkpt lat="41.549382622" lon="2.479638161">
        <ele>12.15</ele>
        <time>2013-07-07T11:24:51Z</time>
      </trkpt>
      <trkpt lat="41.549654866" lon="2.480787488">
        <ele>12.15</ele>
        <time>2013-07-07T11:25:04Z</time>
      </trkpt>
      <trkpt lat="41.549850835" lon="2.481582427">
        <ele>10.71</ele>
        <time>2013-07-07T11:25:13Z</time>
      </trkpt>
      <trkpt lat="41.550149734" lon="2.482744914">
        <ele>10.23</ele>
        <time>2013-07-07T11:25:26Z</time>
      </trkpt>
      <trkpt lat="41.550421475" lon="2.483752921">
        <ele>10.23</ele>
        <time>2013-07-07T11:25:38Z</time>
      </trkpt>
      <trkpt lat="41.550735126" lon="2.484837288">
        <ele>10.23</ele>
        <time>2013-07-07T11:25:51Z</time>
      </trkpt>
      <trkpt lat="41.551032767" lon="2.485884691">
        <ele>10.23</ele>
        <time>2013-07-07T11:26:03Z</time>
      </trkpt>
      <trkpt lat="41.551338707" lon="2.486995377">
        <ele>9.75</ele>
        <time>2013-07-07T11:26:16Z</time>
      </trkpt>
      <trkpt lat="41.551653112" lon="2.488124419">
        <ele>9.27</ele>
        <time>2013-07-07T11:26:29Z</time>
      </trkpt>
      <trkpt lat="41.552010432" lon="2.489443563">
        <ele>8.79</ele>
        <time>2013-07-07T11:26:44Z</time>
      </trkpt>
      <trkpt lat="41.552252167" lon="2.490392143">
        <ele>8.79</ele>
        <time>2013-07-07T11:26:55Z</time>
      </trkpt>
      <trkpt lat="41.552276558" lon="2.490468921">
        <ele>8.79</ele>
        <time>2013-07-07T11:26:56Z</time>
      </trkpt>
      <trkpt lat="41.552312516" lon="2.490781231">
        <ele>8.79</ele>
        <time>2013-07-07T11:27:00Z</time>
      </trkpt>
      <trkpt lat="41.552385355" lon="2.491089014">
        <ele>8.79</ele>
        <time>2013-07-07T11:27:04Z</time>
      </trkpt>
      <trkpt lat="41.552486608" lon="2.491600646">
        <ele>10.23</ele>
        <time>2013-07-07T11:27:10Z</time>
      </trkpt>
      <trkpt lat="41.552707304" lon="2.492457444">
        <ele>10.23</ele>
        <time>2013-07-07T11:27:20Z</time>
      </trkpt>
      <trkpt lat="41.553029001" lon="2.493445670">
        <ele>10.71</ele>
        <time>2013-07-07T11:27:32Z</time>
      </trkpt>
      <trkpt lat="41.553379868" lon="2.494312191">
        <ele>10.71</ele>
        <time>2013-07-07T11:27:43Z</time>
      </trkpt>
      <trkpt lat="41.553747917" lon="2.495128086">
        <ele>10.71</ele>
        <time>2013-07-07T11:27:54Z</time>
      </trkpt>
      <trkpt lat="41.554162486" lon="2.495754968">
        <ele>10.71</ele>
        <time>2013-07-07T11:28:03Z</time>
      </trkpt>
      <trkpt lat="41.554559788" lon="2.496183619">
        <ele>9.27</ele>
        <time>2013-07-07T11:28:10Z</time>
      </trkpt>
      <trkpt lat="41.555073515" lon="2.496787619">
        <ele>9.27</ele>
        <time>2013-07-07T11:28:20Z</time>
      </trkpt>
      <trkpt lat="41.555411138" lon="2.497452807">
        <ele>9.27</ele>
        <time>2013-07-07T11:28:29Z</time>
      </trkpt>
      <trkpt lat="41.555775248" lon="2.498300049">
        <ele>9.27</ele>
        <time>2013-07-07T11:28:40Z</time>
      </trkpt>
      <trkpt lat="41.556131898" lon="2.499147879">
        <ele>10.71</ele>
        <time>2013-07-07T11:28:51Z</time>
      </trkpt>
      <trkpt lat="41.556466755" lon="2.499989590">
        <ele>11.67</ele>
        <time>2013-07-07T11:29:02Z</time>
      </trkpt>
      <trkpt lat="41.556821561" lon="2.500727784">
        <ele>12.15</ele>
        <time>2013-07-07T11:29:12Z</time>
      </trkpt>
      <trkpt lat="41.557246272" lon="2.501537727">
        <ele>11.67</ele>
        <time>2013-07-07T11:29:23Z</time>
      </trkpt>
      <trkpt lat="41.557380299" lon="2.501788011">
        <ele>10.71</ele>
        <time>2013-07-07T11:29:26Z</time>
      </trkpt>
      <trkpt lat="41.557914645" lon="2.502820326">
        <ele>9.27</ele>
        <time>2013-07-07T11:29:38Z</time>
      </trkpt>
      <trkpt lat="41.558285544" lon="2.503537985">
        <ele>8.79</ele>
        <time>2013-07-07T11:29:47Z</time>
      </trkpt>
      <trkpt lat="41.558693659" lon="2.504295960">
        <ele>8.79</ele>
        <time>2013-07-07T11:29:58Z</time>
      </trkpt>
      <trkpt lat="41.558981829" lon="2.504835000">
        <ele>8.31</ele>
        <time>2013-07-07T11:30:06Z</time>
      </trkpt>
      <trkpt lat="41.559318781" lon="2.505461631">
        <ele>8.31</ele>
        <time>2013-07-07T11:30:15Z</time>
      </trkpt>
      <trkpt lat="41.559714743" lon="2.506222792">
        <ele>8.31</ele>
        <time>2013-07-07T11:30:26Z</time>
      </trkpt>
      <trkpt lat="41.560125204" lon="2.507031227">
        <ele>8.31</ele>
        <time>2013-07-07T11:30:38Z</time>
      </trkpt>
      <trkpt lat="41.560434078" lon="2.507634053">
        <ele>9.75</ele>
        <time>2013-07-07T11:30:47Z</time>
      </trkpt>
      <trkpt lat="41.560804222" lon="2.508414073">
        <ele>10.71</ele>
        <time>2013-07-07T11:30:59Z</time>
      </trkpt>
      <trkpt lat="41.561171517" lon="2.509186633">
        <ele>10.71</ele>
        <time>2013-07-07T11:31:10Z</time>
      </trkpt>
      <trkpt lat="41.561617938" lon="2.510085508">
        <ele>8.31</ele>
        <time>2013-07-07T11:31:22Z</time>
      </trkpt>
      <trkpt lat="41.561765543" lon="2.510384491">
        <ele>8.31</ele>
        <time>2013-07-07T11:31:26Z</time>
      </trkpt>
      <trkpt lat="41.562226967" lon="2.511300465">
        <ele>8.31</ele>
        <time>2013-07-07T11:31:39Z</time>
      </trkpt>
      <trkpt lat="41.562605996" lon="2.512036312">
        <ele>8.31</ele>
        <time>2013-07-07T11:31:50Z</time>
      </trkpt>
      <trkpt lat="41.562884611" lon="2.512579292">
        <ele>10.23</ele>
        <time>2013-07-07T11:31:58Z</time>
      </trkpt>
      <trkpt lat="41.562968765" lon="2.512695130">
        <ele>10.23</ele>
        <time>2013-07-07T11:32:00Z</time>
      </trkpt>
      <trkpt lat="41.563097846" lon="2.512999142">
        <ele>10.71</ele>
        <time>2013-07-07T11:32:05Z</time>
      </trkpt>
      <trkpt lat="41.563131709" lon="2.513052534">
        <ele>10.71</ele>
        <time>2013-07-07T11:32:06Z</time>
      </trkpt>
      <trkpt lat="41.563378137" lon="2.513586545">
        <ele>11.67</ele>
        <time>2013-07-07T11:32:14Z</time>
      </trkpt>
      <trkpt lat="41.563679048" lon="2.514184929">
        <ele>10.71</ele>
        <time>2013-07-07T11:32:22Z</time>
      </trkpt>
      <trkpt lat="41.564052210" lon="2.514960255">
        <ele>9.27</ele>
        <time>2013-07-07T11:32:32Z</time>
      </trkpt>
      <trkpt lat="41.564430485" lon="2.515703395">
        <ele>8.79</ele>
        <time>2013-07-07T11:32:42Z</time>
      </trkpt>
      <trkpt lat="41.564788225" lon="2.516416863">
        <ele>8.79</ele>
        <time>2013-07-07T11:32:52Z</time>
      </trkpt>
      <trkpt lat="41.565054602" lon="2.516955568">
        <ele>8.31</ele>
        <time>2013-07-07T11:33:00Z</time>
      </trkpt>
      <trkpt lat="41.565086956" lon="2.517018516">
        <ele>8.31</ele>
        <time>2013-07-07T11:33:01Z</time>
      </trkpt>
      <trkpt lat="41.565415610" lon="2.517704239">
        <ele>8.31</ele>
        <time>2013-07-07T11:33:12Z</time>
      </trkpt>
      <trkpt lat="41.565677461" lon="2.518308407">
        <ele>7.83</ele>
        <time>2013-07-07T11:33:22Z</time>
      </trkpt>
      <trkpt lat="41.565705624" lon="2.518369259">
        <ele>7.83</ele>
        <time>2013-07-07T11:33:23Z</time>
      </trkpt>
      <trkpt lat="41.565709228" lon="2.518669667">
        <ele>5.42</ele>
        <time>2013-07-07T11:33:28Z</time>
      </trkpt>
      <trkpt lat="41.565674024" lon="2.518714678">
        <ele>5.42</ele>
        <time>2013-07-07T11:33:29Z</time>
      </trkpt>
      <trkpt lat="41.565398679" lon="2.518916430">
        <ele>6.39</ele>
        <time>2013-07-07T11:33:37Z</time>
      </trkpt>
      <trkpt lat="41.565373030" lon="2.518938474">
        <ele>6.39</ele>
        <time>2013-07-07T11:33:38Z</time>
      </trkpt>
      <trkpt lat="41.565129620" lon="2.519119104">
        <ele>6.39</ele>
        <time>2013-07-07T11:33:45Z</time>
      </trkpt>
      <trkpt lat="41.564936417" lon="2.519270901">
        <ele>7.35</ele>
        <time>2013-07-07T11:33:51Z</time>
      </trkpt>
      <trkpt lat="41.564911271" lon="2.519311134">
        <ele>7.35</ele>
        <time>2013-07-07T11:33:53Z</time>
      </trkpt>
      <trkpt lat="41.564934573" lon="2.519465277">
        <ele>7.35</ele>
        <time>2013-07-07T11:33:57Z</time>
      </trkpt>
      <trkpt lat="41.565145042" lon="2.519898789">
        <ele>7.35</ele>
        <time>2013-07-07T11:34:05Z</time>
      </trkpt>
      <trkpt lat="41.565299521" lon="2.520174218">
        <ele>7.35</ele>
        <time>2013-07-07T11:34:10Z</time>
      </trkpt>
      <trkpt lat="41.565595821" lon="2.520767741">
        <ele>7.35</ele>
        <time>2013-07-07T11:34:20Z</time>
      </trkpt>
      <trkpt lat="41.565719370" lon="2.520991286">
        <ele>7.35</ele>
        <time>2013-07-07T11:34:24Z</time>
      </trkpt>
      <trkpt lat="41.565996979" lon="2.521571314">
        <ele>6.87</ele>
        <time>2013-07-07T11:34:34Z</time>
      </trkpt>
      <trkpt lat="41.566231421" lon="2.522129465">
        <ele>6.87</ele>
        <time>2013-07-07T11:34:43Z</time>
      </trkpt>
      <trkpt lat="41.566496289" lon="2.522793228">
        <ele>6.87</ele>
        <time>2013-07-07T11:34:53Z</time>
      </trkpt>
      <trkpt lat="41.566712207" lon="2.523376860">
        <ele>6.87</ele>
        <time>2013-07-07T11:35:02Z</time>
      </trkpt>
      <trkpt lat="41.566792086" lon="2.523551622">
        <ele>6.87</ele>
        <time>2013-07-07T11:35:05Z</time>
      </trkpt>
      <trkpt lat="41.566839947" lon="2.523672909">
        <ele>6.87</ele>
        <time>2013-07-07T11:35:07Z</time>
      </trkpt>
      <trkpt lat="41.567081178" lon="2.524360476">
        <ele>6.87</ele>
        <time>2013-07-07T11:35:18Z</time>
      </trkpt>
      <trkpt lat="41.567307070" lon="2.524894487">
        <ele>6.87</ele>
        <time>2013-07-07T11:35:27Z</time>
      </trkpt>
      <trkpt lat="41.567506141" lon="2.525429504">
        <ele>6.87</ele>
        <time>2013-07-07T11:35:36Z</time>
      </trkpt>
      <trkpt lat="41.567652237" lon="2.525836948">
        <ele>6.87</ele>
        <time>2013-07-07T11:35:43Z</time>
      </trkpt>
      <trkpt lat="41.567782157" lon="2.526167782">
        <ele>6.87</ele>
        <time>2013-07-07T11:35:49Z</time>
      </trkpt>
      <trkpt lat="41.567910065" lon="2.526516972">
        <ele>6.87</ele>
        <time>2013-07-07T11:35:56Z</time>
      </trkpt>
      <trkpt lat="41.567968235" lon="2.526682515">
        <ele>6.87</ele>
        <time>2013-07-07T11:36:01Z</time>
      </trkpt>
      <trkpt lat="41.568039816" lon="2.526840094">
        <ele>6.87</ele>
        <time>2013-07-07T11:36:09Z</time>
      </trkpt>
      <trkpt lat="41.568161689" lon="2.527025167">
        <ele>6.87</ele>
        <time>2013-07-07T11:36:14Z</time>
      </trkpt>
      <trkpt lat="41.568298063" lon="2.527176209">
        <ele>6.87</ele>
        <time>2013-07-07T11:36:19Z</time>
      </trkpt>
      <trkpt lat="41.568323963" lon="2.527202193">
        <ele>6.87</ele>
        <time>2013-07-07T11:36:20Z</time>
      </trkpt>
      <trkpt lat="41.568446842" lon="2.527533865">
        <ele>7.83</ele>
        <time>2013-07-07T11:36:28Z</time>
      </trkpt>
      <trkpt lat="41.568576761" lon="2.527937537">
        <ele>7.83</ele>
        <time>2013-07-07T11:36:36Z</time>
      </trkpt>
      <trkpt lat="41.568664017" lon="2.528139038">
        <ele>7.83</ele>
        <time>2013-07-07T11:36:41Z</time>
      </trkpt>
      <trkpt lat="41.568704753" lon="2.528331319">
        <ele>7.83</ele>
        <time>2013-07-07T11:36:47Z</time>
      </trkpt>
      <trkpt lat="41.568751608" lon="2.528433494">
        <ele>7.83</ele>
        <time>2013-07-07T11:36:50Z</time>
      </trkpt>
      <trkpt lat="41.568782034" lon="2.528541788">
        <ele>7.83</ele>
        <time>2013-07-07T11:36:52Z</time>
      </trkpt>
      <trkpt lat="41.568822267" lon="2.528654944">
        <ele>6.39</ele>
        <time>2013-07-07T11:36:54Z</time>
      </trkpt>
      <trkpt lat="41.568932741" lon="2.528885446">
        <ele>5.91</ele>
        <time>2013-07-07T11:37:00Z</time>
      </trkpt>
      <trkpt lat="41.569042795" lon="2.529146375">
        <ele>5.91</ele>
        <time>2013-07-07T11:37:08Z</time>
      </trkpt>
      <trkpt lat="41.569179085" lon="2.529472766">
        <ele>5.91</ele>
        <time>2013-07-07T11:37:18Z</time>
      </trkpt>
      <trkpt lat="41.569266089" lon="2.529683404">
        <ele>5.91</ele>
        <time>2013-07-07T11:37:23Z</time>
      </trkpt>
      <trkpt lat="41.569270867" lon="2.529779963">
        <ele>5.91</ele>
        <time>2013-07-07T11:37:25Z</time>
      </trkpt>
      <trkpt lat="41.569401792" lon="2.530150108">
        <ele>5.91</ele>
        <time>2013-07-07T11:37:33Z</time>
      </trkpt>
      <trkpt lat="41.569638162" lon="2.530766178">
        <ele>5.42</ele>
        <time>2013-07-07T11:37:44Z</time>
      </trkpt>
      <trkpt lat="41.569723908" lon="2.530989472">
        <ele>5.42</ele>
        <time>2013-07-07T11:37:50Z</time>
      </trkpt>
      <trkpt lat="41.569777134" lon="2.531121738">
        <ele>5.42</ele>
        <time>2013-07-07T11:37:58Z</time>
      </trkpt>
      <trkpt lat="41.569822731" lon="2.531241432">
        <ele>5.42</ele>
        <time>2013-07-07T11:38:06Z</time>
      </trkpt>
      <trkpt lat="41.569875453" lon="2.531380907">
        <ele>5.42</ele>
        <time>2013-07-07T11:38:10Z</time>
      </trkpt>
      <trkpt lat="41.569944269" lon="2.531468581">
        <ele>5.42</ele>
        <time>2013-07-07T11:38:15Z</time>
      </trkpt>
      <trkpt lat="41.569971426" lon="2.531545527">
        <ele>5.42</ele>
        <time>2013-07-07T11:38:17Z</time>
      </trkpt>
      <trkpt lat="41.570177621" lon="2.532001922">
        <ele>5.42</ele>
        <time>2013-07-07T11:38:27Z</time>
      </trkpt>
      <trkpt lat="41.570309636" lon="2.532255139">
        <ele>5.42</ele>
        <time>2013-07-07T11:38:33Z</time>
      </trkpt>
      <trkpt lat="41.570494122" lon="2.532627463">
        <ele>5.42</ele>
        <time>2013-07-07T11:38:41Z</time>
      </trkpt>
      <trkpt lat="41.570670980" lon="2.533087378">
        <ele>5.42</ele>
        <time>2013-07-07T11:38:49Z</time>
      </trkpt>
      <trkpt lat="41.570720349" lon="2.533203719">
        <ele>5.42</ele>
        <time>2013-07-07T11:38:51Z</time>
      </trkpt>
      <trkpt lat="41.570884802" lon="2.533379571">
        <ele>5.42</ele>
        <time>2013-07-07T11:38:56Z</time>
      </trkpt>
      <trkpt lat="41.570921599" lon="2.533368675">
        <ele>5.42</ele>
        <time>2013-07-07T11:38:57Z</time>
      </trkpt>
      <trkpt lat="41.571062750" lon="2.533345122">
        <ele>6.39</ele>
        <time>2013-07-07T11:39:01Z</time>
      </trkpt>
      <trkpt lat="41.571176576" lon="2.533550981">
        <ele>6.39</ele>
        <time>2013-07-07T11:39:06Z</time>
      </trkpt>
      <trkpt lat="41.571360140" lon="2.534024475">
        <ele>6.39</ele>
        <time>2013-07-07T11:39:15Z</time>
      </trkpt>
      <trkpt lat="41.571529538" lon="2.534466704">
        <ele>6.39</ele>
        <time>2013-07-07T11:39:23Z</time>
      </trkpt>
      <trkpt lat="41.571705139" lon="2.534903988">
        <ele>6.39</ele>
        <time>2013-07-07T11:39:32Z</time>
      </trkpt>
      <trkpt lat="41.571835897" lon="2.535268936">
        <ele>6.39</ele>
        <time>2013-07-07T11:39:40Z</time>
      </trkpt>
      <trkpt lat="41.571914519" lon="2.535499606">
        <ele>6.39</ele>
        <time>2013-07-07T11:39:45Z</time>
      </trkpt>
      <trkpt lat="41.571973025" lon="2.535719464">
        <ele>4.94</ele>
        <time>2013-07-07T11:39:49Z</time>
      </trkpt>
      <trkpt lat="41.572063381" lon="2.535924233">
        <ele>3.98</ele>
        <time>2013-07-07T11:39:55Z</time>
      </trkpt>
      <trkpt lat="41.572106297" lon="2.535945943">
        <ele>3.02</ele>
        <time>2013-07-07T11:39:57Z</time>
      </trkpt>
      <trkpt lat="41.572230433" lon="2.535863046">
        <ele>3.02</ele>
        <time>2013-07-07T11:40:03Z</time>
      </trkpt>
      <trkpt lat="41.572404776" lon="2.535883414">
        <ele>3.02</ele>
        <time>2013-07-07T11:40:09Z</time>
      </trkpt>
      <trkpt lat="41.572478705" lon="2.536011489">
        <ele>4.46</ele>
        <time>2013-07-07T11:40:13Z</time>
      </trkpt>
      <trkpt lat="41.572564619" lon="2.536189353">
        <ele>6.87</ele>
        <time>2013-07-07T11:40:20Z</time>
      </trkpt>
      <trkpt lat="41.572682217" lon="2.536236962">
        <ele>7.83</ele>
        <time>2013-07-07T11:40:27Z</time>
      </trkpt>
      <trkpt lat="41.572716164" lon="2.536245093">
        <ele>8.31</ele>
        <time>2013-07-07T11:40:29Z</time>
      </trkpt>
      <trkpt lat="41.572797301" lon="2.536418430">
        <ele>8.79</ele>
        <time>2013-07-07T11:40:36Z</time>
      </trkpt>
      <trkpt lat="41.572856645" lon="2.536706852">
        <ele>10.23</ele>
        <time>2013-07-07T11:40:45Z</time>
      </trkpt>
      <trkpt lat="41.572849101" lon="2.537023772">
        <ele>11.67</ele>
        <time>2013-07-07T11:40:55Z</time>
      </trkpt>
      <trkpt lat="41.572826135" lon="2.537340943">
        <ele>13.12</ele>
        <time>2013-07-07T11:41:04Z</time>
      </trkpt>
      <trkpt lat="41.572779615" lon="2.537649481">
        <ele>14.08</ele>
        <time>2013-07-07T11:41:13Z</time>
      </trkpt>
      <trkpt lat="41.572744411" lon="2.537930610">
        <ele>15.52</ele>
        <time>2013-07-07T11:41:21Z</time>
      </trkpt>
      <trkpt lat="41.572738711" lon="2.537965730">
        <ele>15.52</ele>
        <time>2013-07-07T11:41:22Z</time>
      </trkpt>
      <trkpt lat="41.572814735" lon="2.538285080">
        <ele>16.96</ele>
        <time>2013-07-07T11:41:31Z</time>
      </trkpt>
      <trkpt lat="41.572957479" lon="2.538547937">
        <ele>16.96</ele>
        <time>2013-07-07T11:41:39Z</time>
      </trkpt>
      <trkpt lat="41.573153699" lon="2.538873322">
        <ele>16.96</ele>
        <time>2013-07-07T11:41:48Z</time>
      </trkpt>
      <trkpt lat="41.573328211" lon="2.539147578">
        <ele>16.96</ele>
        <time>2013-07-07T11:41:55Z</time>
      </trkpt>
      <trkpt lat="41.573453185" lon="2.539307002">
        <ele>15.52</ele>
        <time>2013-07-07T11:41:59Z</time>
      </trkpt>
      <trkpt lat="41.573722914" lon="2.539565500">
        <ele>13.60</ele>
        <time>2013-07-07T11:42:06Z</time>
      </trkpt>
      <trkpt lat="41.573836992" lon="2.539777227">
        <ele>11.19</ele>
        <time>2013-07-07T11:42:12Z</time>
      </trkpt>
      <trkpt lat="41.573853756" lon="2.539813772">
        <ele>11.19</ele>
        <time>2013-07-07T11:42:13Z</time>
      </trkpt>
      <trkpt lat="41.573911759" lon="2.539998425">
        <ele>10.71</ele>
        <time>2013-07-07T11:42:17Z</time>
      </trkpt>
      <trkpt lat="41.573994823" lon="2.540385921">
        <ele>9.27</ele>
        <time>2013-07-07T11:42:25Z</time>
      </trkpt>
      <trkpt lat="41.574041259" lon="2.540537130">
        <ele>9.27</ele>
        <time>2013-07-07T11:42:30Z</time>
      </trkpt>
      <trkpt lat="41.574076966" lon="2.540704265">
        <ele>7.83</ele>
        <time>2013-07-07T11:42:37Z</time>
      </trkpt>
      <trkpt lat="41.574084845" lon="2.540714491">
        <ele>6.87</ele>
        <time>2013-07-07T11:42:47Z</time>
      </trkpt>
      <trkpt lat="41.574084174" lon="2.540742487">
        <ele>6.39</ele>
        <time>2013-07-07T11:42:54Z</time>
      </trkpt>
      <trkpt lat="41.574099178" lon="2.540766375">
        <ele>4.46</ele>
        <time>2013-07-07T11:43:02Z</time>
      </trkpt>
      <trkpt lat="41.574098088" lon="2.540769309">
        <ele>4.46</ele>
        <time>2013-07-07T11:43:09Z</time>
      </trkpt>
      <trkpt lat="41.574101274" lon="2.540776517">
        <ele>4.46</ele>
        <time>2013-07-07T11:43:11Z</time>
      </trkpt>
      <trkpt lat="41.574155840" lon="2.540904257">
        <ele>4.46</ele>
        <time>2013-07-07T11:43:17Z</time>
      </trkpt>
      <trkpt lat="41.574266816" lon="2.541098969">
        <ele>4.46</ele>
        <time>2013-07-07T11:43:25Z</time>
      </trkpt>
      <trkpt lat="41.574346360" lon="2.541307511">
        <ele>4.46</ele>
        <time>2013-07-07T11:43:32Z</time>
      </trkpt>
      <trkpt lat="41.574383408" lon="2.541517394">
        <ele>6.39</ele>
        <time>2013-07-07T11:43:37Z</time>
      </trkpt>
      <trkpt lat="41.574459600" lon="2.541703388">
        <ele>7.83</ele>
        <time>2013-07-07T11:43:44Z</time>
      </trkpt>
      <trkpt lat="41.574543000" lon="2.541696599">
        <ele>7.83</ele>
        <time>2013-07-07T11:43:49Z</time>
      </trkpt>
      <trkpt lat="41.574616006" lon="2.541810341">
        <ele>7.83</ele>
        <time>2013-07-07T11:43:53Z</time>
      </trkpt>
      <trkpt lat="41.574753889" lon="2.541897094">
        <ele>7.83</ele>
        <time>2013-07-07T11:43:58Z</time>
      </trkpt>
      <trkpt lat="41.574846006" lon="2.542047298">
        <ele>7.83</ele>
        <time>2013-07-07T11:44:02Z</time>
      </trkpt>
      <trkpt lat="41.574872325" lon="2.542098343">
        <ele>7.83</ele>
        <time>2013-07-07T11:44:03Z</time>
      </trkpt>
      <trkpt lat="41.575141300" lon="2.542716760">
        <ele>7.83</ele>
        <time>2013-07-07T11:44:13Z</time>
      </trkpt>
      <trkpt lat="41.575454448" lon="2.543433078">
        <ele>8.31</ele>
        <time>2013-07-07T11:44:24Z</time>
      </trkpt>
      <trkpt lat="41.575659888" lon="2.543972537">
        <ele>8.31</ele>
        <time>2013-07-07T11:44:32Z</time>
      </trkpt>
      <trkpt lat="41.575845128" lon="2.544825815">
        <ele>9.27</ele>
        <time>2013-07-07T11:44:44Z</time>
      </trkpt>
      <trkpt lat="41.575931043" lon="2.545300398">
        <ele>9.75</ele>
        <time>2013-07-07T11:44:51Z</time>
      </trkpt>
      <trkpt lat="41.575961134" lon="2.545431240">
        <ele>9.75</ele>
        <time>2013-07-07T11:44:53Z</time>
      </trkpt>
      <trkpt lat="41.576109326" lon="2.545998946">
        <ele>10.23</ele>
        <time>2013-07-07T11:45:02Z</time>
      </trkpt>
      <trkpt lat="41.576344438" lon="2.546577549">
        <ele>10.71</ele>
        <time>2013-07-07T11:45:11Z</time>
      </trkpt>
      <trkpt lat="41.576628501" lon="2.547076523">
        <ele>9.27</ele>
        <time>2013-07-07T11:45:19Z</time>
      </trkpt>
      <trkpt lat="41.576970483" lon="2.547600644">
        <ele>7.83</ele>
        <time>2013-07-07T11:45:27Z</time>
      </trkpt>
      <trkpt lat="41.577417657" lon="2.548353003">
        <ele>5.91</ele>
        <time>2013-07-07T11:45:37Z</time>
      </trkpt>
      <trkpt lat="41.577753353" lon="2.549139226">
        <ele>5.42</ele>
        <time>2013-07-07T11:45:47Z</time>
      </trkpt>
      <trkpt lat="41.577981759" lon="2.549800390">
        <ele>5.42</ele>
        <time>2013-07-07T11:45:56Z</time>
      </trkpt>
      <trkpt lat="41.578227517" lon="2.550458621">
        <ele>4.94</ele>
        <time>2013-07-07T11:46:05Z</time>
      </trkpt>
      <trkpt lat="41.578471682" lon="2.551118780">
        <ele>4.94</ele>
        <time>2013-07-07T11:46:14Z</time>
      </trkpt>
      <trkpt lat="41.578631022" lon="2.551547011">
        <ele>4.94</ele>
        <time>2013-07-07T11:46:21Z</time>
      </trkpt>
      <trkpt lat="41.578705369" lon="2.551709453">
        <ele>4.94</ele>
        <time>2013-07-07T11:46:25Z</time>
      </trkpt>
      <trkpt lat="41.578841072" lon="2.551671650">
        <ele>4.94</ele>
        <time>2013-07-07T11:46:29Z</time>
      </trkpt>
      <trkpt lat="41.578874767" lon="2.551636362">
        <ele>4.94</ele>
        <time>2013-07-07T11:46:30Z</time>
      </trkpt>
      <trkpt lat="41.579089344" lon="2.551525721">
        <ele>4.94</ele>
        <time>2013-07-07T11:46:37Z</time>
      </trkpt>
      <trkpt lat="41.579193364" lon="2.551493786">
        <ele>4.94</ele>
        <time>2013-07-07T11:46:41Z</time>
      </trkpt>
      <trkpt lat="41.579237201" lon="2.551390270">
        <ele>4.94</ele>
        <time>2013-07-07T11:46:44Z</time>
      </trkpt>
      <trkpt lat="41.579339041" lon="2.551289435">
        <ele>5.91</ele>
        <time>2013-07-07T11:46:48Z</time>
      </trkpt>
      <trkpt lat="41.579657553" lon="2.551016688">
        <ele>7.83</ele>
        <time>2013-07-07T11:46:59Z</time>
      </trkpt>
      <trkpt lat="41.579817480" lon="2.550852403">
        <ele>8.31</ele>
        <time>2013-07-07T11:47:05Z</time>
      </trkpt>
      <trkpt lat="41.580028117" lon="2.550683843">
        <ele>9.27</ele>
        <time>2013-07-07T11:47:12Z</time>
      </trkpt>
      <trkpt lat="41.580261134" lon="2.550468009">
        <ele>9.75</ele>
        <time>2013-07-07T11:47:20Z</time>
      </trkpt>
      <trkpt lat="41.580457019" lon="2.550292995">
        <ele>11.19</ele>
        <time>2013-07-07T11:47:27Z</time>
      </trkpt>
      <trkpt lat="41.580681068" lon="2.550117645">
        <ele>12.15</ele>
        <time>2013-07-07T11:47:35Z</time>
      </trkpt>
      <trkpt lat="41.580898326" lon="2.549944811">
        <ele>12.63</ele>
        <time>2013-07-07T11:47:43Z</time>
      </trkpt>
      <trkpt lat="41.581128829" lon="2.549759570">
        <ele>13.60</ele>
        <time>2013-07-07T11:47:51Z</time>
      </trkpt>
      <trkpt lat="41.581344160" lon="2.549591262">
        <ele>14.56</ele>
        <time>2013-07-07T11:47:59Z</time>
      </trkpt>
      <trkpt lat="41.581498135" lon="2.549534349">
        <ele>15.52</ele>
        <time>2013-07-07T11:48:04Z</time>
      </trkpt>
      <trkpt lat="41.581724363" lon="2.549351037">
        <ele>16.48</ele>
        <time>2013-07-07T11:48:12Z</time>
      </trkpt>
      <trkpt lat="41.581975485" lon="2.549142327">
        <ele>17.92</ele>
        <time>2013-07-07T11:48:21Z</time>
      </trkpt>
      <trkpt lat="41.582220991" lon="2.548907215">
        <ele>19.36</ele>
        <time>2013-07-07T11:48:30Z</time>
      </trkpt>
      <trkpt lat="41.582372871" lon="2.548747540">
        <ele>20.32</ele>
        <time>2013-07-07T11:48:36Z</time>
      </trkpt>
      <trkpt lat="41.582581832" lon="2.548551487">
        <ele>21.29</ele>
        <time>2013-07-07T11:48:44Z</time>
      </trkpt>
      <trkpt lat="41.582789284" lon="2.548395751">
        <ele>21.77</ele>
        <time>2013-07-07T11:48:52Z</time>
      </trkpt>
      <trkpt lat="41.582997742" lon="2.548230879">
        <ele>23.21</ele>
        <time>2013-07-07T11:49:00Z</time>
      </trkpt>
      <trkpt lat="41.583234782" lon="2.548048656">
        <ele>23.69</ele>
        <time>2013-07-07T11:49:08Z</time>
      </trkpt>
      <trkpt lat="41.583413987" lon="2.547900129">
        <ele>24.65</ele>
        <time>2013-07-07T11:49:15Z</time>
      </trkpt>
      <trkpt lat="41.583576596" lon="2.547768282">
        <ele>25.61</ele>
        <time>2013-07-07T11:49:22Z</time>
      </trkpt>
      <trkpt lat="41.583744821" lon="2.547636686">
        <ele>26.57</ele>
        <time>2013-07-07T11:49:29Z</time>
      </trkpt>
      <trkpt lat="41.583982280" lon="2.547436107">
        <ele>27.53</ele>
        <time>2013-07-07T11:49:37Z</time>
      </trkpt>
      <trkpt lat="41.584226445" lon="2.547220524">
        <ele>28.50</ele>
        <time>2013-07-07T11:49:45Z</time>
      </trkpt>
      <trkpt lat="41.584457953" lon="2.547023466">
        <ele>29.46</ele>
        <time>2013-07-07T11:49:53Z</time>
      </trkpt>
      <trkpt lat="41.584662136" lon="2.546871250">
        <ele>30.90</ele>
        <time>2013-07-07T11:50:00Z</time>
      </trkpt>
      <trkpt lat="41.584859279" lon="2.546733284">
        <ele>31.38</ele>
        <time>2013-07-07T11:50:07Z</time>
      </trkpt>
      <trkpt lat="41.585167984" lon="2.546515523">
        <ele>32.82</ele>
        <time>2013-07-07T11:50:18Z</time>
      </trkpt>
      <trkpt lat="41.585383567" lon="2.546365822">
        <ele>33.78</ele>
        <time>2013-07-07T11:50:26Z</time>
      </trkpt>
      <trkpt lat="41.585582805" lon="2.546207571">
        <ele>34.26</ele>
        <time>2013-07-07T11:50:34Z</time>
      </trkpt>
      <trkpt lat="41.585897880" lon="2.545958796">
        <ele>36.67</ele>
        <time>2013-07-07T11:50:45Z</time>
      </trkpt>
      <trkpt lat="41.586192756" lon="2.545724271">
        <ele>37.63</ele>
        <time>2013-07-07T11:50:55Z</time>
      </trkpt>
      <trkpt lat="41.586421749" lon="2.545553951">
        <ele>38.59</ele>
        <time>2013-07-07T11:51:03Z</time>
      </trkpt>
      <trkpt lat="41.586636996" lon="2.545387570">
        <ele>39.55</ele>
        <time>2013-07-07T11:51:10Z</time>
      </trkpt>
      <trkpt lat="41.586914018" lon="2.545186236">
        <ele>40.99</ele>
        <time>2013-07-07T11:51:19Z</time>
      </trkpt>
      <trkpt lat="41.587214593" lon="2.544950621">
        <ele>41.95</ele>
        <time>2013-07-07T11:51:29Z</time>
      </trkpt>
      <trkpt lat="41.587466889" lon="2.544779295">
        <ele>42.44</ele>
        <time>2013-07-07T11:51:37Z</time>
      </trkpt>
      <trkpt lat="41.587547187" lon="2.544736464">
        <ele>42.92</ele>
        <time>2013-07-07T11:51:40Z</time>
      </trkpt>
      <trkpt lat="41.587600748" lon="2.544644179">
        <ele>43.40</ele>
        <time>2013-07-07T11:51:44Z</time>
      </trkpt>
      <trkpt lat="41.587635700" lon="2.544537980">
        <ele>43.40</ele>
        <time>2013-07-07T11:51:47Z</time>
      </trkpt>
      <trkpt lat="41.587734774" lon="2.544450641">
        <ele>43.40</ele>
        <time>2013-07-07T11:51:51Z</time>
      </trkpt>
      <trkpt lat="41.588007773" lon="2.544312339">
        <ele>45.32</ele>
        <time>2013-07-07T11:52:00Z</time>
      </trkpt>
      <trkpt lat="41.588307091" lon="2.544196334">
        <ele>46.76</ele>
        <time>2013-07-07T11:52:10Z</time>
      </trkpt>
      <trkpt lat="41.588568606" lon="2.544066330">
        <ele>47.72</ele>
        <time>2013-07-07T11:52:19Z</time>
      </trkpt>
      <trkpt lat="41.588840850" lon="2.544030204">
        <ele>48.68</ele>
        <time>2013-07-07T11:52:28Z</time>
      </trkpt>
      <trkpt lat="41.589035478" lon="2.543969184">
        <ele>49.16</ele>
        <time>2013-07-07T11:52:34Z</time>
      </trkpt>
      <trkpt lat="41.589249720" lon="2.543851837">
        <ele>47.24</ele>
        <time>2013-07-07T11:52:38Z</time>
      </trkpt>
      <trkpt lat="41.589559096" lon="2.543696772">
        <ele>47.24</ele>
        <time>2013-07-07T11:52:45Z</time>
      </trkpt>
      <trkpt lat="41.589602849" lon="2.543670705">
        <ele>48.68</ele>
        <time>2013-07-07T11:52:47Z</time>
      </trkpt>
      <trkpt lat="41.589799237" lon="2.543550760">
        <ele>50.13</ele>
        <time>2013-07-07T11:52:58Z</time>
      </trkpt>
      <trkpt lat="41.589959751" lon="2.543449422">
        <ele>50.61</ele>
        <time>2013-07-07T11:53:02Z</time>
      </trkpt>
      <trkpt lat="41.590411116" lon="2.543367699">
        <ele>51.57</ele>
        <time>2013-07-07T11:53:12Z</time>
      </trkpt>
      <trkpt lat="41.590682690" lon="2.543196959">
        <ele>53.01</ele>
        <time>2013-07-07T11:53:20Z</time>
      </trkpt>
      <trkpt lat="41.591005393" lon="2.543109201">
        <ele>53.97</ele>
        <time>2013-07-07T11:53:28Z</time>
      </trkpt>
      <trkpt lat="41.591307393" lon="2.542990932">
        <ele>54.93</ele>
        <time>2013-07-07T11:53:37Z</time>
      </trkpt>
      <trkpt lat="41.591560191" lon="2.542891355">
        <ele>55.89</ele>
        <time>2013-07-07T11:53:45Z</time>
      </trkpt>
      <trkpt lat="41.591789604" lon="2.542815750">
        <ele>56.86</ele>
        <time>2013-07-07T11:53:52Z</time>
      </trkpt>
      <trkpt lat="41.592108787" lon="2.542679880">
        <ele>58.78</ele>
        <time>2013-07-07T11:54:02Z</time>
      </trkpt>
      <trkpt lat="41.592671548" lon="2.542683149">
        <ele>60.22</ele>
        <time>2013-07-07T11:54:20Z</time>
      </trkpt>
      <trkpt lat="41.593007830" lon="2.542603102">
        <ele>62.14</ele>
        <time>2013-07-07T11:54:31Z</time>
      </trkpt>
      <trkpt lat="41.593525831" lon="2.542339910">
        <ele>63.58</ele>
        <time>2013-07-07T11:54:48Z</time>
      </trkpt>
      <trkpt lat="41.593728003" lon="2.542637803">
        <ele>64.55</ele>
        <time>2013-07-07T11:54:55Z</time>
      </trkpt>
      <trkpt lat="41.593860185" lon="2.542676527">
        <ele>65.99</ele>
        <time>2013-07-07T11:55:02Z</time>
      </trkpt>
      <trkpt lat="41.594011563" lon="2.542695638">
        <ele>67.43</ele>
        <time>2013-07-07T11:55:09Z</time>
      </trkpt>
      <trkpt lat="41.594050622" lon="2.542697147">
        <ele>67.43</ele>
        <time>2013-07-07T11:55:11Z</time>
      </trkpt>
      <trkpt lat="41.594114576" lon="2.542679377">
        <ele>67.91</ele>
        <time>2013-07-07T11:55:15Z</time>
      </trkpt>
      <trkpt lat="41.594165790" lon="2.542653728">
        <ele>67.91</ele>
        <time>2013-07-07T11:55:23Z</time>
      </trkpt>
      <trkpt lat="41.594196719" lon="2.542608550">
        <ele>67.91</ele>
        <time>2013-07-07T11:55:30Z</time>
      </trkpt>
      <trkpt lat="41.594228821" lon="2.542546943">
        <ele>68.87</ele>
        <time>2013-07-07T11:55:39Z</time>
      </trkpt>
      <trkpt lat="41.594244999" lon="2.542501345">
        <ele>69.83</ele>
        <time>2013-07-07T11:55:48Z</time>
      </trkpt>
      <trkpt lat="41.594286740" lon="2.542465219">
        <ele>69.83</ele>
        <time>2013-07-07T11:55:52Z</time>
      </trkpt>
      <trkpt lat="41.594440632" lon="2.542470667">
        <ele>70.31</ele>
        <time>2013-07-07T11:56:00Z</time>
      </trkpt>
      <trkpt lat="41.594636601" lon="2.542447450">
        <ele>70.79</ele>
        <time>2013-07-07T11:56:09Z</time>
      </trkpt>
      <trkpt lat="41.594815303" lon="2.542433787">
        <ele>71.76</ele>
        <time>2013-07-07T11:56:16Z</time>
      </trkpt>
      <trkpt lat="41.595028287" lon="2.542417778">
        <ele>72.24</ele>
        <time>2013-07-07T11:56:24Z</time>
      </trkpt>
      <trkpt lat="41.595254431" lon="2.542399170">
        <ele>73.20</ele>
        <time>2013-07-07T11:56:32Z</time>
      </trkpt>
      <trkpt lat="41.595478396" lon="2.542380059">
        <ele>74.64</ele>
        <time>2013-07-07T11:56:40Z</time>
      </trkpt>
      <trkpt lat="41.595667407" lon="2.542339491">
        <ele>75.60</ele>
        <time>2013-07-07T11:56:47Z</time>
      </trkpt>
      <trkpt lat="41.595880643" lon="2.542327253">
        <ele>76.08</ele>
        <time>2013-07-07T11:56:54Z</time>
      </trkpt>
      <trkpt lat="41.596067308" lon="2.542278806">
        <ele>76.56</ele>
        <time>2013-07-07T11:57:01Z</time>
      </trkpt>
      <trkpt lat="41.596243747" lon="2.542229017">
        <ele>77.04</ele>
        <time>2013-07-07T11:57:07Z</time>
      </trkpt>
      <trkpt lat="41.596541221" lon="2.542215187">
        <ele>78.00</ele>
        <time>2013-07-07T11:57:17Z</time>
      </trkpt>
      <trkpt lat="41.596766275" lon="2.542191215">
        <ele>78.97</ele>
        <time>2013-07-07T11:57:25Z</time>
      </trkpt>
      <trkpt lat="41.596953946" lon="2.542169673">
        <ele>79.45</ele>
        <time>2013-07-07T11:57:32Z</time>
      </trkpt>
      <trkpt lat="41.597205990" lon="2.542141091">
        <ele>80.41</ele>
        <time>2013-07-07T11:57:42Z</time>
      </trkpt>
      <trkpt lat="41.597418136" lon="2.542154418">
        <ele>81.37</ele>
        <time>2013-07-07T11:57:50Z</time>
      </trkpt>
      <trkpt lat="41.597640172" lon="2.542109743">
        <ele>81.85</ele>
        <time>2013-07-07T11:57:58Z</time>
      </trkpt>
      <trkpt lat="41.597927588" lon="2.542074036">
        <ele>83.29</ele>
        <time>2013-07-07T11:58:08Z</time>
      </trkpt>
      <trkpt lat="41.598202849" lon="2.542022403">
        <ele>83.77</ele>
        <time>2013-07-07T11:58:17Z</time>
      </trkpt>
      <trkpt lat="41.598412816" lon="2.541998934">
        <ele>84.25</ele>
        <time>2013-07-07T11:58:24Z</time>
      </trkpt>
      <trkpt lat="41.598670224" lon="2.541970938">
        <ele>84.73</ele>
        <time>2013-07-07T11:58:33Z</time>
      </trkpt>
      <trkpt lat="41.598915730" lon="2.541950654">
        <ele>85.69</ele>
        <time>2013-07-07T11:58:42Z</time>
      </trkpt>
      <trkpt lat="41.599106335" lon="2.541944619">
        <ele>86.18</ele>
        <time>2013-07-07T11:58:49Z</time>
      </trkpt>
      <trkpt lat="41.599331976" lon="2.541880414">
        <ele>87.14</ele>
        <time>2013-07-07T11:58:57Z</time>
      </trkpt>
      <trkpt lat="41.599447897" lon="2.541893993">
        <ele>87.62</ele>
        <time>2013-07-07T11:59:01Z</time>
      </trkpt>
      <trkpt lat="41.599584690" lon="2.541828614">
        <ele>87.62</ele>
        <time>2013-07-07T11:59:06Z</time>
      </trkpt>
      <trkpt lat="41.599865651" lon="2.541726187">
        <ele>89.06</ele>
        <time>2013-07-07T11:59:15Z</time>
      </trkpt>
      <trkpt lat="41.600076205" lon="2.541689726">
        <ele>90.50</ele>
        <time>2013-07-07T11:59:22Z</time>
      </trkpt>
      <trkpt lat="41.600256583" lon="2.541623760">
        <ele>91.94</ele>
        <time>2013-07-07T11:59:29Z</time>
      </trkpt>
      <trkpt lat="41.600416594" lon="2.541566344">
        <ele>93.87</ele>
        <time>2013-07-07T11:59:36Z</time>
      </trkpt>
      <trkpt lat="41.600686072" lon="2.541482190">
        <ele>95.31</ele>
        <time>2013-07-07T11:59:46Z</time>
      </trkpt>
      <trkpt lat="41.601030904" lon="2.541394012">
        <ele>95.79</ele>
        <time>2013-07-07T11:59:57Z</time>
      </trkpt>
      <trkpt lat="41.601245899" lon="2.541334836">
        <ele>95.79</ele>
        <time>2013-07-07T12:00:04Z</time>
      </trkpt>
      <trkpt lat="41.601421081" lon="2.541290747">
        <ele>95.79</ele>
        <time>2013-07-07T12:00:09Z</time>
      </trkpt>
      <trkpt lat="41.601623839" lon="2.541295022">
        <ele>95.79</ele>
        <time>2013-07-07T12:00:15Z</time>
      </trkpt>
      <trkpt lat="41.601859287" lon="2.541221680">
        <ele>97.23</ele>
        <time>2013-07-07T12:00:24Z</time>
      </trkpt>
      <trkpt lat="41.602101943" lon="2.541154038">
        <ele>97.71</ele>
        <time>2013-07-07T12:00:32Z</time>
      </trkpt>
      <trkpt lat="41.602320375" lon="2.541079104">
        <ele>98.67</ele>
        <time>2013-07-07T12:00:40Z</time>
      </trkpt>
      <trkpt lat="41.602578538" lon="2.541000901">
        <ele>100.11</ele>
        <time>2013-07-07T12:00:49Z</time>
      </trkpt>
      <trkpt lat="41.602878443" lon="2.540914986">
        <ele>101.56</ele>
        <time>2013-07-07T12:00:59Z</time>
      </trkpt>
      <trkpt lat="41.603075250" lon="2.540814906">
        <ele>102.52</ele>
        <time>2013-07-07T12:01:06Z</time>
      </trkpt>
      <trkpt lat="41.603292592" lon="2.540684316">
        <ele>103.48</ele>
        <time>2013-07-07T12:01:14Z</time>
      </trkpt>
      <trkpt lat="41.603529297" lon="2.540544925">
        <ele>104.44</ele>
        <time>2013-07-07T12:01:23Z</time>
      </trkpt>
      <trkpt lat="41.603768349" lon="2.540370079">
        <ele>105.40</ele>
        <time>2013-07-07T12:01:32Z</time>
      </trkpt>
      <trkpt lat="41.604006731" lon="2.540209984">
        <ele>106.36</ele>
        <time>2013-07-07T12:01:41Z</time>
      </trkpt>
      <trkpt lat="41.604220134" lon="2.540033797">
        <ele>106.84</ele>
        <time>2013-07-07T12:01:50Z</time>
      </trkpt>
      <trkpt lat="41.604359190" lon="2.539888622">
        <ele>107.81</ele>
        <time>2013-07-07T12:01:58Z</time>
      </trkpt>
      <trkpt lat="41.604427251" lon="2.539749818">
        <ele>107.81</ele>
        <time>2013-07-07T12:02:05Z</time>
      </trkpt>
      <trkpt lat="41.604456923" lon="2.539575474">
        <ele>108.77</ele>
        <time>2013-07-07T12:02:12Z</time>
      </trkpt>
      <trkpt lat="41.604472094" lon="2.539509928">
        <ele>109.25</ele>
        <time>2013-07-07T12:02:18Z</time>
      </trkpt>
      <trkpt lat="41.604471842" lon="2.539492410">
        <ele>109.25</ele>
        <time>2013-07-07T12:02:27Z</time>
      </trkpt>
      <trkpt lat="41.604460946" lon="2.539474053">
        <ele>109.25</ele>
        <time>2013-07-07T12:02:51Z</time>
      </trkpt>
      <trkpt lat="41.604478548" lon="2.539442034">
        <ele>109.25</ele>
        <time>2013-07-07T12:03:21Z</time>
      </trkpt>
      <trkpt lat="41.604438985" lon="2.539468354">
        <ele>109.25</ele>
        <time>2013-07-07T12:03:48Z</time>
      </trkpt>
      <trkpt lat="41.604452983" lon="2.539456787">
        <ele>109.25</ele>
        <time>2013-07-07T12:04:17Z</time>
      </trkpt>
      <trkpt lat="41.604444517" lon="2.539440693">
        <ele>109.25</ele>
        <time>2013-07-07T12:04:36Z</time>
      </trkpt>
      <trkpt lat="41.604456504" lon="2.539488973">
        <ele>109.25</ele>
        <time>2013-07-07T12:05:02Z</time>
      </trkpt>
      <trkpt lat="41.604430520" lon="2.539484531">
        <ele>109.25</ele>
        <time>2013-07-07T12:05:24Z</time>
      </trkpt>
      <trkpt lat="41.604431023" lon="2.539473383">
        <ele>109.25</ele>
        <time>2013-07-07T12:05:46Z</time>
      </trkpt>
      <trkpt lat="41.604433286" lon="2.539452763">
        <ele>109.25</ele>
        <time>2013-07-07T12:06:19Z</time>
      </trkpt>
      <trkpt lat="41.604421551" lon="2.539420158">
        <ele>109.25</ele>
        <time>2013-07-07T12:06:38Z</time>
      </trkpt>
      <trkpt lat="41.604441165" lon="2.539455948">
        <ele>109.25</ele>
        <time>2013-07-07T12:07:09Z</time>
      </trkpt>
      <trkpt lat="41.604451726" lon="2.539437005">
        <ele>109.25</ele>
        <time>2013-07-07T12:07:25Z</time>
      </trkpt>
      <trkpt lat="41.604484667" lon="2.539460558">
        <ele>109.25</ele>
        <time>2013-07-07T12:07:50Z</time>
      </trkpt>
      <trkpt lat="41.604486846" lon="2.539437760">
        <ele>109.25</ele>
        <time>2013-07-07T12:08:18Z</time>
      </trkpt>
      <trkpt lat="41.604480224" lon="2.539473383">
        <ele>108.77</ele>
        <time>2013-07-07T12:08:43Z</time>
      </trkpt>
      <trkpt lat="41.604453235" lon="2.539483609">
        <ele>108.77</ele>
        <time>2013-07-07T12:09:10Z</time>
      </trkpt>
      <trkpt lat="41.604433537" lon="2.539452596">
        <ele>108.77</ele>
        <time>2013-07-07T12:09:28Z</time>
      </trkpt>
      <trkpt lat="41.604435633" lon="2.539464414">
        <ele>108.77</ele>
        <time>2013-07-07T12:09:45Z</time>
      </trkpt>
      <trkpt lat="41.604434291" lon="2.539472125">
        <ele>108.77</ele>
        <time>2013-07-07T12:10:05Z</time>
      </trkpt>
      <trkpt lat="41.604472597" lon="2.539466258">
        <ele>108.77</ele>
        <time>2013-07-07T12:10:24Z</time>
      </trkpt>
      <trkpt lat="41.604506879" lon="2.539466593">
        <ele>108.77</ele>
        <time>2013-07-07T12:10:36Z</time>
      </trkpt>
      <trkpt lat="41.604519535" lon="2.539481848">
        <ele>108.77</ele>
        <time>2013-07-07T12:10:38Z</time>
      </trkpt>
      <trkpt lat="41.604480895" lon="2.539635824">
        <ele>108.77</ele>
        <time>2013-07-07T12:10:44Z</time>
      </trkpt>
      <trkpt lat="41.604512998" lon="2.539837074">
        <ele>107.81</ele>
        <time>2013-07-07T12:10:49Z</time>
      </trkpt>
      <trkpt lat="41.604576365" lon="2.540077969">
        <ele>106.36</ele>
        <time>2013-07-07T12:10:53Z</time>
      </trkpt>
      <trkpt lat="41.604697986" lon="2.540335378">
        <ele>106.36</ele>
        <time>2013-07-07T12:10:59Z</time>
      </trkpt>
      <trkpt lat="41.604803011" lon="2.540380975">
        <ele>107.81</ele>
        <time>2013-07-07T12:11:03Z</time>
      </trkpt>
      <trkpt lat="41.604963860" lon="2.540416514">
        <ele>108.77</ele>
        <time>2013-07-07T12:11:10Z</time>
      </trkpt>
      <trkpt lat="41.605173743" lon="2.540431686">
        <ele>109.25</ele>
        <time>2013-07-07T12:11:18Z</time>
      </trkpt>
      <trkpt lat="41.605413298" lon="2.540442582">
        <ele>110.21</ele>
        <time>2013-07-07T12:11:27Z</time>
      </trkpt>
      <trkpt lat="41.605626869" lon="2.540479463">
        <ele>110.69</ele>
        <time>2013-07-07T12:11:35Z</time>
      </trkpt>
      <trkpt lat="41.605838512" lon="2.540530592">
        <ele>111.65</ele>
        <time>2013-07-07T12:11:44Z</time>
      </trkpt>
      <trkpt lat="41.606042108" lon="2.540596558">
        <ele>112.13</ele>
        <time>2013-07-07T12:11:52Z</time>
      </trkpt>
      <trkpt lat="41.606278897" lon="2.540667720">
        <ele>113.57</ele>
        <time>2013-07-07T12:12:01Z</time>
      </trkpt>
      <trkpt lat="41.606430861" lon="2.540699236">
        <ele>114.05</ele>
        <time>2013-07-07T12:12:07Z</time>
      </trkpt>
      <trkpt lat="41.606535383" lon="2.540840974">
        <ele>114.05</ele>
        <time>2013-07-07T12:12:13Z</time>
      </trkpt>
      <trkpt lat="41.606606629" lon="2.540993441">
        <ele>115.01</ele>
        <time>2013-07-07T12:12:18Z</time>
      </trkpt>
      <trkpt lat="41.606693633" lon="2.541292256">
        <ele>116.94</ele>
        <time>2013-07-07T12:12:27Z</time>
      </trkpt>
      <trkpt lat="41.606753313" lon="2.541567350">
        <ele>118.38</ele>
        <time>2013-07-07T12:12:35Z</time>
      </trkpt>
      <trkpt lat="41.606843670" lon="2.541814616">
        <ele>119.82</ele>
        <time>2013-07-07T12:12:43Z</time>
      </trkpt>
      <trkpt lat="41.606967051" lon="2.542098930">
        <ele>122.22</ele>
        <time>2013-07-07T12:12:53Z</time>
      </trkpt>
      <trkpt lat="41.607022036" lon="2.542273441">
        <ele>123.19</ele>
        <time>2013-07-07T12:12:59Z</time>
      </trkpt>
      <trkpt lat="41.607062353" lon="2.542329433">
        <ele>123.67</ele>
        <time>2013-07-07T12:13:05Z</time>
      </trkpt>
      <trkpt lat="41.607073837" lon="2.542366313">
        <ele>124.15</ele>
        <time>2013-07-07T12:13:13Z</time>
      </trkpt>
    </trkseg>
  </trk>
</gpx>
